GFSSE_con_mlcape_000.txt.gz
CAPE
86 253 647 656 703 431 996 1294 1144 1109 928 887 748 1093 951 886 921 983 1079 1316 1414 1255 1093 1315 1633 1509 1529 1574 1500 1249 1201 1045 1190 1109 1094 1394 1558 872 608 627 1026 549 530
280 362 463 922 1319 1491 1412 1235 1233 1182 1301 1356 1526 1256 1142 1162 1410 1671 1712 1516 1711 1715 1661 2191 2083 1899 1956 1782 1388 1165 1341 981 920 920 971 1296 1481 1304 931 867 767 798 629
497 783 1024 1224 1461 1549 914 688 921 1322 1393 1469 1279 1039 1437 1628 1507 1660 2053 1864 1891 1936 1971 2073 2082 2007 1797 1942 1690 1333 986 914 930 1055 697 978 1232 1277 1179 1012 612 792 618
594 826 1272 1421 1301 1031 1233 1274 1450 1626 1520 1588 1611 1415 1430 1430 1590 1634 1450 1464 1550 1828 1899 1802 1838 1862 1760 1676 1540 1539 1289 1004 827 694 820 760 1165 1218 1004 726 637 795 211
519 731 1159 999 1126 1120 1616 1746 1670 1568 1321 1298 1305 1429 1374 1524 1539 1673 1635 1573 1677 1676 1694 1725 1692 1731 1691 1633 1541 1516 1279 1178 834 643 634 903 908 1236 909 539 282 634 302
710 1159 1524 1445 1671 1829 1917 1782 1279 1139 930 1272 1467 1339 1151 1247 1477 1812 1878 1856 1851 1871 1763 1706 1654 1636 1608 1626 1613 1483 1146 1122 745 751 617 737 919 764 896 712 516 602 853
775 1286 1392 1504 1758 1753 2033 1785 1629 1412 1178 1139 1304 1358 1737 1870 1860 1883 1776 1693 1677 1669 1639 1685 1706 1687 1375 1435 1529 1439 1094 1259 883 823 713 728 738 979 1305 1309 503 609 398
795 1379 1708 1637 1828 1924 2088 2190 1865 1563 1355 1295 1494 1810 1850 1789 1863 1765 1706 1755 1675 1562 1583 1586 1712 1648 1645 1819 1767 1544 1572 1210 959 821 739 710 833 1043 899 913 1102 879 415
1397 1748 1976 1930 1908 2026 2018 1878 1836 1527 1143 1091 1581 1569 1542 1697 1360 1401 1611 1688 1628 1620 1716 1857 2006 1971 2042 2180 1926 1649 1517 1410 1108 978 935 926 680 1363 970 739 844 889 677
1600 1774 1819 1989 2165 2061 1996 1762 1502 1499 1389 1379 1561 1439 1430 1505 1344 1522 1271 1463 1785 2011 1914 1676 1989 1906 1787 1659 1623 1521 1647 1674 1468 1063 673 925 719 1710 807 649 710 1008 868
998 1293 1655 1909 1956 1630 2019 2171 1836 1457 1395 1340 1359 1332 1482 1411 1045 252 722 722 1177 1583 1851 1536 1462 1603 1674 1446 1563 1657 1812 1700 1099 1013 910 845 537 1764 1245 896 326 504 908
1190 1259 1362 1415 1858 1881 2112 1983 1627 1831 1509 1187 1383 1280 1013 1042 1041 912 583 365 470 1364 1494 1422 1484 1256 1260 882 606 884 1387 1430 1338 1010 858 948 598 1379 1388 1365 741 366 457
1391 1527 1611 1801 1793 1750 1709 1714 1414 1289 1215 1179 950 970 1263 1200 1106 838 753 762 866 1236 1216 1459 1445 1295 1129 1009 736 590 734 785 1009 1113 875 762 554 1433 1690 1356 1129 751 540
1447 1571 1752 1824 1644 1705 1436 1321 1097 1089 994 1248 1204 1390 1359 1394 829 576 981 1326 1180 1112 987 991 1022 952 981 820 780 727 700 741 334 777 1124 1037 667 1055 1890 1483 1343 982 771
1237 1290 1607 1862 1692 1661 1746 1539 1560 1586 1519 1576 1535 1464 1586 1375 989 1302 1109 1172 1114 981 906 1021 914 847 751 637 640 766 870 844 405 285 1134 1257 881 675 1291 1648 1515 1307 1084
1239 1608 1841 1861 1533 1841 1619 1680 1744 1764 1678 1752 1634 1540 1532 1390 1096 1183 944 807 593 825 829 870 833 663 560 602 612 552 556 691 716 310 442 938 1008 761 830 1513 1640 1624 1358
1229 1713 1828 1777 1966 1919 1996 1680 1241 1577 1379 1406 1452 1467 1289 1212 1227 1131 959 734 543 554 564 604 470 283 257 323 393 462 431 377 422 367 370 692 901 1073 742 854 1580 1710 1757
679 1509 1597 1794 1924 1712 1684 1656 1671 1527 1473 1347 1214 1250 1141 992 1039 1020 866 686 648 607 631 436 266 356 301 276 218 185 198 136 330 466 499 546 768 1020 1068 805 810 1517 1790
686 1150 1387 1707 1649 1663 1678 1764 1789 1763 1330 1345 1561 1206 1194 928 930 1056 751 758 813 643 507 461 396 333 209 181 113 219 248 189 171 247 352 564 640 798 903 1005 852 819 1193
461 716 899 1283 1713 1897 1917 1905 1826 1708 1548 1674 1371 1083 1088 942 1070 1093 730 759 778 739 610 571 506 270 260 261 121 233 202 124 57 66 102 166 312 590 899 938 978 1001 1009
459 604 706 852 1392 1943 1711 1572 1714 1654 1441 1209 957 1041 1235 1004 1022 911 705 618 768 617 536 486 402 415 341 248 199 79 16 2 0 38 121 204 233 388 648 748 805 754 1014
537 640 869 941 1466 1647 1530 1504 1408 1402 1316 1259 1439 1552 1267 993 949 643 632 698 550 403 381 314 240 246 221 362 152 82 0 0 0 0 11 64 267 363 407 531 463 616 563
718 843 1102 1349 1485 1594 1624 1579 1600 1663 1336 1185 1061 1383 710 431 231 54 129 118 101 212 158 220 289 318 190 279 280 162 17 0 0 0 0 10 34 29 125 124 198 345 555
1003 1072 1520 1587 1771 1849 1944 1569 1292 529 317 132 522 684 191 0 0 0 1 112 199 99 66 168 346 332 221 115 95 139 83 55 1 0 0 0 0 0 0 0 22 209 298
1207 1423 1530 1673 1820 1784 1757 1598 1393 229 0 53 113 0 0 0 0 0 100 151 16 0 2 54 24 127 164 144 30 9 0 0 0 0 0 0 0 0 0 0 0 0 37
1335 1619 1752 1643 1514 1498 1571 1150 369 0 0 0 0 0 0 0 0 0 8 0 0 0 0 2 80 52 53 120 30 0 0 0 0 0 0 0 0 0 0 0 0 0 58

GFSSE_con_mlcape_003.txt.gz
CAPE
88 282 576 809 783 784 325 316 381 371 471 684 1232 1107 1299 898 753 762 1175 1370 1513 1451 1691 1695 1497 1505 1774 1812 1798 1649 1490 1439 1456 1032 636 1501 1029 839 899 876 730 723 730
117 304 737 811 686 489 504 537 560 617 716 1238 1481 1513 1289 906 1130 1246 1229 1317 1558 1740 1659 1553 1481 1859 1805 1459 1250 1422 1259 1157 1040 1125 1388 1565 1231 1139 822 1000 873 814 405
234 298 579 669 970 1404 1373 1356 1298 1311 1092 1469 1437 1289 1418 1295 1279 1165 1313 1449 1274 1261 1519 1736 1767 1820 1828 1758 1522 1113 1161 1187 1119 1095 1242 1103 1153 865 1064 793 741 745 815
534 620 789 1024 1490 1093 1308 1425 1494 1532 1597 1551 1669 1550 1423 1266 1549 1706 1625 1323 1319 1440 1582 1648 1622 1487 1507 1678 1637 1349 1181 995 1098 970 983 629 1108 1121 1139 564 558 540 766
839 1030 1425 1403 1017 1251 1374 1635 1625 1672 1630 1492 1216 1365 1500 1448 1495 1418 1283 1204 1316 1454 1529 1494 1431 1467 1492 1558 1489 1356 1299 932 863 731 778 939 814 1338 866 618 449 496 163
954 1355 1502 1455 1720 1738 1718 1873 1504 1357 1142 998 1251 1539 1484 1462 1634 1500 1345 1480 1560 1448 1324 1298 1289 1320 1420 1589 1716 1346 1129 1046 1021 634 594 851 919 967 1022 419 570 442 415
1079 1347 1440 1771 1912 2116 2108 1705 1536 1537 1780 1838 1976 1733 1423 1324 1653 1649 1729 1768 1552 1393 1352 1446 1523 1615 1684 1639 1688 1723 1222 1288 719 679 543 707 754 770 1197 1101 604 996 927
1129 1488 1972 2079 2091 2035 1894 1880 1806 1655 1538 1571 1333 1383 1452 1679 1799 1826 1691 1485 1325 1341 1519 1488 1633 1742 1683 1953 2053 1440 1618 1418 1194 671 617 665 756 936 1176 1194 663 622 781
1412 1493 1637 1959 2111 2090 2072 1867 1561 1279 1189 1035 1409 1488 1579 1836 1789 1545 1414 1444 1428 1520 1611 1647 1872 1855 1900 2105 2035 1419 1605 1409 997 855 774 411 938 1104 959 805 1329 724 724
1212 1556 1547 1988 2084 2153 2265 1873 1545 1285 1099 1128 1388 1466 1558 1600 1501 1464 1302 1517 1727 1958 1932 1775 1622 1529 1577 1746 1659 1402 1519 1237 1076 924 829 821 745 1177 1112 753 1059 1036 680
1240 1536 1544 1625 1904 1877 1878 2045 1992 1642 1345 1218 1558 1707 1899 1307 1509 1229 865 901 953 1545 1677 1159 1217 1006 929 1243 1391 1224 904 936 1022 955 964 832 521 1252 1279 810 859 841 1098
1064 1450 1463 1620 1658 1842 1856 1796 1605 1531 1689 1268 1264 1650 1319 923 911 418 681 534 537 1006 1250 1159 973 1079 989 816 514 460 501 853 1010 800 779 656 746 969 1503 876 686 633 1190
586 1082 1403 1554 1679 1598 1775 1598 1616 1404 1131 968 1008 1157 1035 749 828 861 509 371 496 962 1137 970 1160 985 870 841 735 592 622 611 597 663 622 827 885 880 1659 1252 855 528 560
760 924 1121 1399 1790 1639 1618 1467 1431 1354 1169 1030 754 1061 1070 987 768 609 561 768 921 936 771 671 740 642 774 699 562 545 657 718 691 360 633 925 938 891 1102 1819 1220 914 600
1189 1293 1491 1765 1714 1482 1390 1279 1218 965 1074 1079 1145 1128 1269 1025 815 516 792 675 617 707 716 699 698 625 447 431 464 503 439 424 536 506 268 965 1069 1008 774 1448 1775 1183 938
1296 1317 1599 1773 1677 1621 1652 1454 1179 1340 1301 1256 1259 1433 1371 1237 952 885 712 626 580 506 570 663 581 410 185 183 192 258 236 293 375 359 337 338 1084 839 963 796 1390 1491 1071
1205 1297 1527 1741 1474 1687 1783 1521 1219 1454 1376 1336 1435 1370 1388 1361 1220 1020 882 582 541 387 387 356 280 95 160 121 75 80 74 49 69 223 342 305 537 879 987 1000 808 1001 1390
1121 1334 1548 1972 1911 1702 1907 1696 1443 1504 1305 1206 1216 1143 1140 1098 992 888 628 592 540 439 421 383 240 194 123 53 44 21 41 97 75 76 258 391 514 778 1008 1032 1003 764 974
962 1306 1670 1956 1943 1818 1984 1932 1462 1317 1245 1167 1082 964 1005 911 840 801 508 502 442 487 436 322 231 229 114 35 26 21 54 75 60 95 34 76 147 397 723 990 934 898 889
732 1226 1690 1808 1943 1753 1731 1546 1402 1487 1472 1260 1216 994 850 769 771 718 790 588 586 540 395 341 323 231 182 144 162 31 13 17 18 28 4 57 94 184 292 665 814 754 747
394 740 1200 1404 1658 1675 1622 1588 1571 1461 1384 1268 1225 1196 995 838 853 743 627 371 416 422 361 350 270 287 280 280 124 0 0 0 0 0 0 41 94 330 420 554 690 594 666
347 596 820 1096 1286 1622 1668 1533 1474 1532 1467 1300 998 1006 1246 938 769 632 392 331 534 344 151 137 138 137 230 362 174 19 0 0 0 0 0 6 0 0 93 198 336 421 576
314 441 560 818 932 1301 1703 1523 1460 1391 1409 1260 1394 1585 1137 1046 925 537 189 214 52 22 43 33 158 204 206 294 268 154 2 0 0 0 0 0 0 0 0 0 23 106 262
283 398 586 751 964 1284 1516 1504 1346 910 581 321 460 946 931 606 178 2 0 0 20 34 15 16 284 248 139 52 80 204 140 128 0 0 0 0 0 0 0 0 0 0 0
331 525 694 931 1257 1510 1605 1632 1383 1006 425 78 111 701 582 0 0 0 0 6 29 0 0 7 0 33 43 49 20 1 4 0 0 0 0 0 0 0 0 0 0 0 0
546 771 950 1091 1498 1656 1730 1905 1507 1123 260 0 89 258 0 0 0 0 0 14 0 0 0 0 0 0 0 44 10 0 0 0 0 0 0 0 0 0 0 0 0 0 0

GFSSE_con_mlcape_006.txt.gz
CAPE
77 182 249 743 488 478 606 517 358 520 424 589 572 674 767 805 971 1100 1099 1425 1506 1686 1738 1596 1515 1743 1808 1829 1691 1558 1586 1400 1140 1006 1305 989 928 966 872 828 707 811 1013
122 227 348 755 335 430 471 524 447 463 831 972 1024 1169 811 801 818 1004 1077 1306 1596 1541 1371 1302 1469 1650 1634 1354 1509 1566 1261 1383 1308 1368 1509 1356 1183 775 1019 671 814 390 548
199 293 416 1029 723 613 761 617 601 676 1376 1362 1429 1154 857 856 869 861 1232 1543 1391 1365 1557 1645 1612 1783 1899 1668 1403 1116 1167 1256 1269 1240 1416 620 863 1074 871 578 757 846 904
299 425 481 810 940 822 969 979 784 1007 1240 1030 1142 1237 1109 1197 1198 1420 1660 1469 1367 1482 1560 1601 1648 1590 1621 1626 1508 1344 1143 984 1344 1201 792 709 892 1183 827 408 905 693 787
411 524 789 966 1349 1422 1526 1499 1543 1299 1245 1403 1598 1581 1665 1783 1873 1608 1442 1357 1442 1440 1338 1404 1480 1548 1571 1626 1453 1183 1422 987 862 869 812 699 748 981 835 447 811 355 746
543 798 1193 1384 1457 1590 1633 1685 1724 1808 1663 1625 1882 1707 1658 1806 1608 1526 1353 1471 1468 1277 1287 1306 1312 1435 1578 1652 1619 1349 1307 1179 1103 600 682 894 723 1041 852 175 627 168 235
848 1282 1370 1504 1589 1616 1736 1761 1928 1872 1611 1506 1578 1686 1729 1733 1727 1597 1555 1557 1413 1413 1409 1469 1565 1565 1625 1659 1772 1599 1511 1396 804 593 600 694 792 716 1060 688 657 604 577
1000 1350 1591 1712 1848 1886 1981 1647 1510 1492 1484 1326 1261 1360 1326 1566 1570 1505 1400 1378 1346 1345 1511 1492 1611 1697 1892 1926 1951 1339 1302 1357 1474 702 699 646 806 853 1421 980 578 910 720
1266 1457 1675 1847 2014 1982 1755 1558 1483 1495 1433 1277 977 1315 1375 1332 1707 1610 1489 1471 1463 1462 1612 1754 1687 1811 1905 1933 1604 1230 1372 1555 1341 774 736 515 839 1002 884 1069 662 508 807
1249 1422 1559 1863 1830 1765 1182 1413 1599 1486 1216 1118 1328 1390 1403 1430 1555 1613 1202 1266 1706 1861 2071 1965 984 1184 1173 957 879 1024 924 839 976 974 905 551 619 1020 1206 756 1281 774 595
1041 1302 1554 1648 1634 1446 1513 1504 1329 1468 1421 1482 1530 1443 1132 955 1241 1446 1114 1135 1209 1362 1482 1706 1083 1084 1308 917 879 876 857 943 903 957 855 842 799 771 1426 847 1086 885 736
659 1047 1245 1539 1615 1668 1689 1543 1437 1301 1237 1175 1170 948 960 962 1062 566 666 790 755 665 1131 1317 1029 1055 933 917 800 711 587 608 792 832 812 730 703 669 1069 929 1070 647 1047
710 1182 1223 1284 1629 1515 1500 1396 1348 1235 994 882 974 1063 1063 782 742 927 473 357 239 867 1007 879 811 814 772 742 654 583 636 687 646 657 477 431 796 814 942 1196 573 742 967
840 1077 1380 1476 1474 1401 1273 1119 1010 980 1082 882 861 981 962 803 729 581 495 621 824 826 784 606 682 727 695 519 468 517 534 619 625 641 625 635 1120 924 1275 705 1167 696 546
567 711 1002 1354 1500 1461 1261 1362 1201 1087 1158 1207 882 790 887 849 627 577 555 713 649 631 674 707 735 681 465 274 248 321 388 325 392 483 467 382 880 1103 1140 1217 985 1358 804
620 444 712 900 1184 1499 1321 1235 1142 985 1041 996 839 933 958 914 866 666 662 656 590 559 489 661 656 441 134 147 110 104 120 140 116 170 329 383 403 1004 1035 895 998 1044 1405
887 822 937 1171 1484 1327 1297 1112 898 1068 995 1163 1125 1079 1172 1103 938 859 731 633 553 394 376 316 343 179 195 142 68 7 0 13 100 73 162 377 444 541 765 989 913 838 859
1025 1022 1087 1400 1506 1270 1336 1293 1173 1196 1234 1226 1243 1179 1224 1230 1194 1052 675 428 423 386 365 380 270 218 164 81 46 61 16 2 42 94 96 121 209 490 690 837 1034 847 795
981 957 1010 1410 1530 1413 1214 1313 1400 1407 1273 1113 998 944 971 1003 903 815 586 474 445 431 443 306 217 187 62 62 88 142 30 42 41 49 36 61 74 138 229 392 622 863 734
876 1012 1072 1267 1532 1614 1335 1335 1344 1243 1122 1085 1043 895 804 839 757 644 591 548 509 433 297 184 181 143 123 138 149 58 30 28 4 0 29 141 168 325 361 375 529 681 740
612 876 1072 1280 1545 1585 1469 1386 1466 1281 1237 1219 1127 975 913 695 753 716 620 461 293 260 182 199 144 126 90 103 59 3 5 0 0 0 5 5 0 0 261 582 698 767 738
364 720 905 1247 1501 1571 1510 1381 1416 1358 1345 1337 1165 1076 904 834 783 658 366 217 253 228 89 16 45 62 94 199 57 0 0 6 16 3 4 0 0 0 0 0 27 52 106
275 518 642 876 1271 1436 1406 1342 1354 1252 1264 1085 1138 996 1053 919 739 590 359 98 75 7 2 2 1 48 126 135 97 27 0 0 0 4 3 0 0 0 0 0 0 0 5
254 338 412 600 898 1142 1246 1430 1473 1376 1046 727 672 1066 1151 901 737 344 0 0 0 0 15 1 53 106 88 11 17 78 15 61 0 0 0 0 0 0 0 0 0 0 0
188 268 308 441 553 868 1089 1223 1444 1332 1053 308 158 368 812 430 234 0 0 0 0 10 0 0 0 3 12 4 0 0 0 0 0 0 0 0 0 0 0 0 0 0 0
143 219 286 368 451 781 912 1138 1344 1275 815 378 73 42 455 275 0 0 0 0 0 0 0 0 0 0 0 0 13 0 0 0 0 0 0 0 0 0 0 0 0 0 0

GFSSE_con_mlcape_009.txt.gz
CAPE
72 238 379 346 330 400 420 422 430 491 365 584 643 884 947 1124 1050 1152 1355 1424 1535 1533 1462 1589 1804 1785 1850 1808 1688 1609 1462 1401 1284 1160 1136 1045 1071 907 931 574 755 374 963
194 288 356 489 578 594 500 292 622 437 562 620 712 830 815 891 1081 1180 1413 1596 1770 1697 1503 1766 1771 1644 1417 1308 1425 1565 1413 1487 1176 1504 1374 1081 1066 836 817 726 350 149 885
244 300 443 671 582 656 431 427 676 795 700 866 1019 794 824 899 1091 1310 1576 1712 1657 1700 1749 1676 1680 1735 1640 1593 1486 1269 1239 1100 1233 1079 1148 504 697 902 686 752 853 416 732
397 313 303 513 552 542 744 693 739 1283 1233 1468 1325 968 1131 1218 1332 1614 1570 1381 1446 1746 1678 1629 1565 1483 1457 1448 1539 1220 1220 1079 1155 850 639 577 315 986 503 819 784 991 896
624 487 608 549 819 815 774 804 1116 1482 1480 1396 1188 1119 1368 1626 1754 1686 1416 1389 1551 1486 1518 1504 1431 1350 1393 1420 1547 1420 1356 1127 904 951 1017 1107 460 686 724 521 404 633 650
714 648 1026 1285 1416 1136 1196 1313 1472 1523 1344 1530 1568 1769 1828 1810 1515 1343 1272 1465 1409 1404 1433 1394 1386 1502 1631 1565 1558 1609 1328 1246 967 989 1057 1146 814 738 682 137 608 306 778
763 1021 1227 1382 1499 1489 1473 1694 1641 1565 1641 1754 1746 1717 1785 1706 1636 1561 1691 1607 1478 1463 1453 1494 1527 1608 1633 1722 1851 1370 1611 1315 1205 1128 1017 1195 1199 589 960 406 466 300 484
784 1017 1175 1385 1606 1768 1781 1845 1898 1738 1618 1332 1310 1571 1703 1734 1760 1618 1547 1339 1364 1441 1529 1659 1747 1881 1852 1839 1810 1195 1144 1608 1224 999 1129 1008 1048 733 1255 985 749 872 847
915 1055 1473 1608 1763 1956 1972 1879 1818 1529 1147 901 1315 1257 1236 1629 1574 1550 1443 1376 1474 1591 1786 1985 1499 1444 1521 1507 990 955 1060 1258 1350 1051 1003 1103 840 995 1227 1106 643 740 799
1066 1248 1510 1631 1769 1761 1527 1709 1619 1474 1334 1426 1262 1289 1248 1597 1821 1610 1312 1252 1538 1692 1726 1812 1314 1211 1280 1288 1195 946 1110 987 1239 1510 1162 981 453 946 1210 1347 821 684 662
1256 1574 1635 1536 1836 1888 1609 1598 1524 1506 1476 1330 1435 1061 1024 1465 1509 1470 1247 1059 948 1242 1269 1449 1257 1140 1018 993 838 812 726 1146 1323 1445 1409 981 747 760 1192 1066 852 1242 474
948 1305 1643 1759 1644 1617 1137 1551 1699 1266 1131 1245 1506 1374 1412 1482 1656 1266 702 834 836 888 1239 997 1077 1115 1151 1215 1216 1035 1064 1207 1136 1239 1135 777 820 799 923 1351 951 970 1041
856 1061 1480 1697 1897 1790 1908 1783 2052 1625 1589 1325 1500 1478 1691 1277 1212 1372 1195 902 612 1072 1368 1239 1289 1245 1392 1284 1024 894 989 1079 1208 1182 1084 593 697 931 939 1172 862 1118 770
791 1041 1230 1603 1878 1929 1827 1395 1744 1252 1395 1146 1313 1475 1145 871 1147 1205 1071 1167 1546 1339 1406 1306 1267 1388 1243 1011 827 823 888 813 771 978 1119 774 651 1123 1172 856 1152 743 798
732 1160 1427 1536 1738 1887 1592 1339 1272 1471 1067 1132 1363 1230 1145 862 1160 1215 1080 1257 1357 1231 1258 1310 1330 1272 1083 697 743 697 603 683 718 619 856 802 665 984 1256 1133 1151 1158 953
725 968 1427 1683 1902 1936 1688 1645 1644 1623 1603 1398 1505 1263 1106 1064 909 841 1040 1063 1237 1179 1080 1163 1181 937 696 746 510 478 345 237 457 507 356 886 578 680 1121 1256 1159 1140 1183
861 758 881 1213 1607 1818 1822 1585 1459 1664 1532 1210 1283 1491 1213 1382 1284 858 1054 855 1296 1105 987 952 985 774 613 406 338 207 227 254 130 426 460 482 794 795 797 953 978 943 951
1054 883 837 797 1072 1504 1654 1637 1514 1641 1645 1534 1230 1187 1120 1099 966 997 832 673 872 1059 930 969 910 741 583 352 247 215 300 225 332 323 319 389 287 438 706 833 887 1041 990
1263 1188 1189 1445 1569 1904 1865 1628 1513 1559 1675 1520 1820 1748 1277 1336 1246 1132 933 719 1024 1050 939 950 735 617 243 148 119 182 238 214 293 205 422 600 609 589 368 565 457 646 1006
1334 1412 1456 1519 1814 1987 1247 1300 1247 1384 1266 1521 1706 1553 1376 1075 1047 1151 967 984 1108 1156 916 643 625 548 316 330 203 182 216 204 133 228 408 355 101 752 1051 1175 1178 1230 861
1328 1303 1368 1464 1551 1557 1718 1513 1341 1459 1753 1756 1412 1221 1137 1070 1108 1109 770 923 1008 775 745 768 519 319 180 416 330 18 108 152 115 117 223 66 0 7 170 533 963 1048 1144
1161 1165 1298 1445 1632 1762 1929 2090 1959 1920 1979 1808 1865 1778 1538 1453 1381 1327 1204 887 712 560 585 313 369 169 220 485 216 79 0 80 159 121 33 0 0 0 0 70 96 226 398
910 1034 1130 1345 1538 1834 2108 2152 1939 1863 1767 1751 1813 1791 1634 1531 1426 1372 1012 722 544 171 7 266 225 329 196 334 350 123 0 1 0 81 101 0 0 0 0 0 0 16 0
759 802 859 1185 1419 1786 2082 1916 1809 1617 1667 1771 1666 1561 1630 1610 1377 1207 924 136 160 37 174 196 117 340 292 64 146 302 172 141 1 0 0 0 0 0 0 0 0 0 0
640 632 724 943 1226 1582 1848 1937 1845 1830 1855 1817 1205 1090 1774 1516 1378 971 315 7 16 86 246 44 216 104 183 70 78 76 42 5 0 0 0 0 0 0 0 0 0 0 0
423 471 622 772 908 1083 1407 1771 1766 1748 1832 1468 850 467 858 1153 803 434 0 0 116 222 171 16 78 46 83 160 197 7 0 0 0 0 0 0 0 0 0 0 0 0 0

GFSSE_con_mlcape_012.txt.gz
CAPE
177 256 258 410 529 477 457 391 300 363 906 946 1045 1147 1119 1069 1226 1610 1742 1808 1753 1633 1655 1678 1626 1577 1609 1653 1593 1634 1536 1485 1209 1391 1230 1186 1056 1018 753 479 538 264 999
264 339 381 538 363 508 611 631 544 497 632 870 1055 1096 1159 1113 1406 1686 1817 1907 1656 1488 1648 1665 1760 1694 1586 1445 1316 1436 1444 1337 1223 1548 1253 892 1014 1034 700 584 349 369 793
344 333 443 497 437 488 611 716 692 704 681 919 884 952 981 1318 1488 1827 1915 1723 1650 1701 1686 1612 1456 1448 1491 1471 1492 1380 1271 1118 850 976 276 200 468 975 672 849 379 552 778
235 286 445 592 655 504 673 948 912 759 927 930 796 907 1038 1199 1394 1723 1589 1560 1659 1618 1615 1543 1445 1389 1434 1462 1465 1422 1456 1224 762 608 928 175 232 686 517 843 961 982 905
394 312 415 682 769 740 845 927 1338 1235 1293 1363 953 1055 1139 1382 1850 1677 1516 1581 1561 1532 1437 1301 1227 1319 1522 1556 1545 1535 1422 1216 820 968 1101 572 255 321 464 736 763 737 540
650 629 341 520 746 867 1006 1118 1373 1545 1482 1423 1144 1280 1679 1848 1645 1416 1486 1504 1377 1290 1267 1353 1462 1501 1514 1621 1829 1615 1460 1267 1114 1040 1370 641 413 432 322 761 421 769 931
793 872 570 919 1059 1134 1214 1369 1535 1383 1502 1417 1486 1679 1896 1705 1615 1533 1649 1557 1388 1366 1425 1483 1646 1675 1732 1778 1793 1434 1192 1330 1014 1318 1107 1168 920 800 459 841 223 258 946
938 1041 1210 1529 1486 1427 1580 1773 1563 1625 1745 1804 1769 1749 1752 1754 1745 1639 1480 1409 1461 1455 1530 1881 1733 1686 1614 1673 1449 1178 1309 1181 1311 1395 1511 1338 918 767 1268 760 769 649 912
1003 1120 1272 1427 1758 1848 1876 2117 1677 1831 1718 1525 1632 1654 1488 1759 1594 1572 1459 1169 1580 1629 1918 1758 1371 1368 1339 1183 1033 1081 1186 946 1531 1288 1290 1453 838 950 1472 1157 916 1146 882
1004 1263 1202 1334 1371 1336 1528 1947 2022 1750 1414 1499 1588 1520 1641 1496 1179 1135 756 1459 1274 1524 1557 1669 1339 1349 1221 1157 1100 1032 902 1148 1194 1084 1307 1319 624 1134 1218 1363 746 675 893
1039 1183 1362 1336 1552 1439 875 1111 1525 1685 1807 1538 1186 1326 845 1035 1447 1285 1147 745 1098 1180 1180 1389 1171 1182 917 1004 803 816 933 1323 1111 1047 1174 883 647 916 1375 1324 986 1102 600
1318 1250 1141 1388 1491 1190 977 1272 1312 1049 803 752 827 1056 837 1193 1448 1244 963 749 829 979 1061 958 867 1025 1208 1160 1213 1019 915 1060 1385 1260 1141 613 788 1146 1064 1544 985 1447 1062
1011 1135 1092 1105 1366 1208 1023 1290 1219 1064 1001 1085 1371 1051 1066 1283 1415 1585 1391 1228 952 813 1516 1313 1385 1280 1352 1203 987 877 957 853 897 1189 1271 830 683 1006 1192 1259 1498 1286 900
930 971 1126 1146 1224 1248 1401 1251 1259 1058 998 815 821 1300 1395 1071 1425 1504 1311 1278 1499 1244 1363 1337 1275 1418 1357 1274 944 948 846 720 515 552 1050 881 562 1207 1301 1382 1605 1259 1140
924 1006 1075 1281 1505 1529 1594 1089 1055 967 861 764 887 1033 982 1133 1290 1123 1327 1319 1258 1369 1290 1277 1331 1333 1325 1010 969 798 474 446 560 335 370 955 700 748 1440 1457 1172 1379 1195
712 868 1190 1283 1513 1579 1483 1236 1114 1099 961 1050 865 881 1227 1117 1348 1266 1179 1092 1327 1387 1249 1283 1283 1225 1143 1047 668 414 194 51 44 245 137 348 812 572 1139 1602 1506 1381 1458
712 766 1168 1437 1488 1687 1671 1669 1560 1290 1171 993 921 1338 1599 1457 1472 1174 1040 1076 1130 1284 1519 1419 1353 1179 1007 689 436 239 66 42 21 103 112 60 293 939 674 972 1231 1237 1269
757 762 978 1118 1314 1570 1584 1655 1422 1175 1319 1427 1425 1591 1315 1485 1419 1316 1236 1142 1025 1156 1235 1110 1104 983 468 166 6 0 5 36 141 84 57 161 42 11 811 817 877 1055 1241
965 1028 980 941 876 1239 1635 1701 1586 1538 1646 1713 1437 1616 1375 1426 1357 1399 1244 1109 1291 1199 1042 1150 657 370 9 0 0 0 36 95 123 25 201 450 580 412 146 841 557 653 1077
1104 1317 1257 1112 1223 1563 1823 1871 1726 1518 1346 1295 1400 1571 1888 1525 1353 1292 1161 1121 1265 1149 1126 577 395 129 21 3 0 12 77 88 76 164 255 198 231 600 796 1051 846 1085 918
1274 1445 1622 1604 1658 2058 1240 1131 1300 1216 1146 1348 1294 1662 1754 1701 1473 1603 1241 1166 1265 1044 690 408 86 2 0 16 9 10 46 104 79 68 115 0 0 59 504 1060 949 958 1363
1221 1509 1703 1846 1949 2132 1506 1490 1387 1404 1187 1445 1521 1590 1796 1740 1726 1482 1399 1319 1238 460 498 65 5 0 2 68 10 6 5 42 38 50 12 0 0 0 9 219 619 942 950
1009 1457 1686 1930 2103 2329 1778 1766 2026 1978 1806 1639 1484 1550 1726 1951 1911 1841 1639 1023 931 173 0 32 44 7 7 72 103 2 3 9 4 34 55 0 0 0 0 0 13 0 0
946 1221 1637 1965 2217 2370 2506 2063 1974 1455 846 570 704 647 785 1334 1439 1346 1302 963 148 0 0 74 21 42 82 4 5 14 63 60 13 19 18 0 0 0 0 0 0 0 0
861 1074 1393 1898 2150 2265 2385 2368 2068 2019 913 833 817 898 689 1045 999 768 1119 284 37 0 121 152 69 87 21 4 6 15 2 2 0 0 0 6 0 0 0 0 0 0 0
741 949 1114 1610 2132 2313 2418 2540 2394 1755 1334 811 1034 705 340 481 774 778 1020 141 33 14 172 145 56 49 53 49 22 6 1 3 6 0 1 4 5 3 0 0 0 0 0

GFSSE_con_mlcape_015.txt.gz
CAPE
102 256 344 245 231 272 301 389 715 1175 1371 1420 1449 1183 1232 1739 1669 1722 1829 1676 1580 1718 1623 1543 1442 1391 1371 1416 1455 1587 1341 1287 1521 1221 1132 1023 1019 1029 337 439 308 533 1095
240 230 365 463 294 370 398 390 607 922 1117 1260 1318 1179 1532 1702 1721 1882 1768 1591 1607 1608 1560 1543 1500 1441 1415 1439 1328 1332 1308 1322 1336 1261 1054 1036 944 667 545 579 262 512 671
246 249 336 453 515 644 662 654 718 706 1087 1147 1149 1238 1424 1635 1922 1739 1627 1703 1711 1631 1472 1375 1351 1363 1378 1391 1362 1343 1194 925 781 406 881 867 523 579 836 681 647 876 1000
165 306 284 468 608 921 823 844 785 735 966 962 970 1065 1113 1488 1700 1496 1456 1577 1536 1532 1434 1277 1224 1341 1459 1477 1462 1409 1258 1079 661 715 1281 465 378 410 958 813 920 1047 1093
219 436 375 762 684 906 1100 983 878 1004 1011 967 987 1040 1194 1627 1663 1418 1466 1502 1448 1386 1271 1266 1376 1425 1530 1610 1656 1577 1369 1082 814 1009 983 389 386 263 591 715 649 852 672
237 434 440 883 780 1035 1226 1468 1260 1406 1462 977 936 1213 1722 1775 1453 1348 1543 1376 1265 1279 1355 1394 1470 1529 1622 1725 1843 1437 1364 1064 1060 913 988 290 250 355 657 634 565 1056 837
687 516 388 914 1012 1198 1332 1637 1717 1664 1483 1166 1243 1640 1792 1652 1521 1590 1470 1211 1177 1328 1506 1728 1626 1627 1570 1708 1624 1321 1219 1202 1368 1302 1335 1260 432 543 541 477 450 990 752
917 635 700 1024 1310 1403 1522 1698 1370 1391 1433 1547 1648 1769 1760 1794 1664 1551 1207 1254 1296 1383 1620 1776 1411 1336 1438 1444 1307 1153 1003 850 1544 1417 1169 1381 466 1133 718 787 414 373 1118
837 915 1111 1192 1489 1723 1833 1592 1518 1773 1805 1710 1718 1788 1678 1706 1455 1088 1096 1105 1399 1639 1846 1736 1280 1277 1292 1068 1195 1016 880 1076 1681 1383 1360 986 746 1039 1336 816 1208 922 953
1045 838 1027 1127 1179 1197 1405 1685 1681 1809 1502 1336 1610 1487 1279 1266 1057 700 786 1313 1242 1343 1421 1587 1138 1032 870 964 778 655 863 1307 1751 1227 1464 1222 789 1150 1380 1078 956 1114 1016
934 921 883 865 931 1380 1353 1828 1756 1679 1308 1322 1280 1340 789 1180 1416 1564 1328 655 858 1149 1004 1205 1013 799 980 1228 1008 795 1050 1507 1118 1027 1499 711 838 1345 1477 1420 869 688 1046
950 966 1005 1128 957 879 639 1134 847 669 625 674 715 1206 784 1129 1431 1180 1135 753 723 737 828 893 752 939 1466 1636 1558 1102 1036 807 1296 1322 1328 836 885 1251 1532 1720 1188 1354 739
810 1074 1047 1112 1367 810 1042 847 1023 1011 934 832 1132 1131 882 1210 1227 1422 1310 1500 1490 1040 1378 1389 1319 1600 1390 953 895 881 728 753 417 1237 1027 875 711 973 1516 1597 1714 1351 1477
918 805 780 1142 1098 875 980 898 858 738 686 759 987 1286 1395 1309 1150 1390 1549 1265 1383 1278 1252 1232 1362 1305 1046 1076 965 915 703 548 285 319 1357 940 610 994 1571 1600 1776 1491 1447
753 822 757 958 1270 1161 1430 829 922 716 664 712 839 1219 1185 976 1157 1319 1172 1339 1480 1145 1147 1115 1086 1328 1022 1003 855 747 530 285 261 115 340 929 763 638 1649 1697 1716 1580 1645
727 781 897 1144 1362 1467 1336 1605 1097 1096 927 739 917 893 1308 1201 1326 1688 1402 1106 1126 1322 1311 1243 1348 1428 1361 1091 686 479 103 51 6 12 24 837 719 706 1013 1740 1688 1520 1591
763 861 962 1097 1361 1531 1574 1563 1295 1059 845 974 789 1084 1443 1682 1436 1764 1160 1264 1108 1293 1803 1507 1229 1440 1289 978 90 19 1 8 6 55 51 24 671 819 809 1165 1464 1346 1497
653 797 984 992 1102 1442 1537 1645 1416 1034 1168 1061 978 1251 1542 1659 1899 1759 1288 1108 1176 1248 1273 1291 1169 1029 470 36 2 1 0 9 64 83 30 83 59 150 1007 946 970 1033 1034
662 805 998 1093 1057 1285 1628 1631 1498 1457 1395 1462 1537 1043 1673 1667 1711 1608 1255 1318 1596 1351 1386 1399 1140 477 6 0 0 0 14 46 35 46 19 129 336 292 255 871 919 888 1180
700 922 1085 1110 1164 1345 1772 1774 1594 1444 1601 1424 1135 1492 1902 1729 1698 1779 1268 1492 1527 1252 1304 875 493 104 4 1 0 0 22 75 45 59 93 75 89 384 594 595 1025 869 961
748 1025 1253 1375 1582 1459 1369 1657 1449 1350 1356 1058 897 1512 2104 1894 1822 1632 1641 1260 1576 1154 993 400 167 0 0 35 0 39 31 32 119 48 60 2 0 44 292 561 985 1333 1303
822 1070 1509 1682 1924 1969 1740 1648 1591 1105 911 913 730 1169 1572 1710 1990 1540 1580 1191 1358 830 812 253 4 0 2 106 19 2 19 29 19 40 27 2 0 1 19 260 563 989 949
822 1121 1704 2079 2296 2271 2074 1761 1775 1916 1696 1386 920 1478 1465 1560 1550 1693 1726 1652 1397 634 10 91 32 5 3 15 22 9 17 58 3 18 26 0 0 0 0 0 14 0 58
784 1162 1594 2173 2364 2390 2347 1796 1694 1341 758 399 441 423 954 1043 970 1488 1362 823 801 52 22 27 16 46 2 8 1 0 14 13 10 27 7 0 0 0 0 0 0 0 0
710 992 1538 2257 2512 2580 2649 1823 1603 1479 554 627 434 993 895 1044 765 697 624 846 417 0 20 227 36 76 110 0 3 13 16 4 0 0 3 19 16 0 0 0 0 0 0
587 882 1308 2281 2773 2828 2851 2554 2340 2135 978 728 778 912 415 426 718 598 653 657 54 2 188 95 73 62 51 85 41 5 2 5 15 9 3 9 23 10 11 0 1 0 0

GFSSE_con_mlcape_021.txt.gz
CAPE
6 37 89 152 168 325 571 1285 1321 1395 1410 1353 1451 1469 1483 1375 1305 1512 1608 1556 1380 1559 1536 1455 1362 1327 1368 1446 1286 1172 1492 1013 1075 914 918 546 152 454 654 538 1141 1167 672
14 42 179 221 479 759 1153 1263 1238 1295 1359 1440 1535 1640 1639 1342 1397 1420 1641 1579 1439 1467 1435 1443 1365 1361 1341 1282 1251 1111 1267 1305 1087 1073 979 325 366 616 629 836 764 773 388
27 173 143 360 652 1004 1137 1187 1273 1276 1555 1506 1506 1423 1420 1519 1539 1678 1680 1585 1530 1409 1324 1398 1478 1462 1400 1357 1250 1050 891 805 957 373 474 238 627 591 780 715 1063 767 695
57 87 293 509 698 934 1014 1259 1300 1203 1381 1234 1643 1553 1485 1386 1546 1514 1486 1440 1355 1248 1298 1400 1412 1510 1487 1429 1341 965 877 704 707 791 785 341 543 441 1050 1125 1012 765 475
122 96 372 561 690 770 887 1184 1252 1279 1087 1100 1277 1670 1529 1378 1480 1420 1327 1249 1230 1340 1433 1491 1479 1461 1544 1584 1284 1038 846 863 706 700 643 74 360 788 1042 1038 1038 1035 1154
251 359 826 740 764 840 884 1165 1058 1122 1097 1074 1350 1717 1360 1275 1423 1196 1066 1097 1208 1422 1664 1535 1554 1444 1492 1460 1165 878 925 1044 714 603 61 70 408 1001 808 1047 1067 1126 964
276 599 1026 1242 1161 927 1099 1181 1242 1127 1004 1242 1636 1552 1420 1342 1380 1029 1010 1008 1146 1402 1688 1431 1240 1260 995 1057 907 755 824 1135 778 419 171 65 828 991 1239 1092 952 955 1120
230 615 1011 1297 1385 1295 1214 1446 1526 1209 972 1283 1561 1466 1373 1126 955 800 963 999 1139 1424 1623 1488 1023 1120 783 650 689 755 918 886 722 310 62 148 381 552 716 844 815 1060 1099
291 447 882 1284 1402 1639 1557 1667 1606 1349 1205 1373 1438 1300 1135 1017 985 891 939 915 923 1084 1123 1122 858 896 932 819 819 868 919 562 140 245 479 313 675 539 216 571 973 845 1080
427 555 699 1126 1256 1493 1440 1521 1486 1546 1403 1255 1204 1076 886 1222 1267 1014 895 1121 890 644 660 855 960 827 878 1092 1098 705 1000 370 0 38 349 201 658 979 956 601 704 651 795
704 699 917 993 1106 1277 999 1340 1540 1419 993 844 845 731 550 792 1099 1293 1166 1267 789 796 678 608 760 986 1092 1357 1229 646 1040 100 0 0 205 492 552 1068 842 1220 970 895 888
731 897 916 902 957 1039 1003 1296 1026 695 455 234 378 386 429 872 667 1107 1309 1164 961 593 903 969 857 1061 1670 1170 1350 1336 1074 311 65 4 34 269 800 1604 1189 825 906 1034 1164
704 962 989 1055 1076 913 940 531 599 518 226 257 585 799 873 902 699 637 795 509 932 941 782 1091 1232 1191 1098 1223 759 441 400 267 303 194 87 585 823 1403 1747 1101 1010 732 1105
660 727 858 1019 977 875 1097 651 219 573 414 454 595 1040 1420 1175 508 775 1129 717 912 1187 1004 1176 1148 983 1179 821 713 455 140 745 987 717 281 688 877 1594 1776 1731 1380 1358 879
554 671 634 758 761 1051 885 245 567 692 780 828 891 1298 749 1031 805 578 1232 1053 1129 932 1153 963 1351 924 835 1063 809 284 54 0 148 736 703 691 685 1018 1253 1794 1172 1542 1635
660 704 871 804 615 855 675 771 1046 922 1112 1118 1279 1062 859 1048 949 1196 1256 938 926 1247 1439 1211 970 691 635 1006 1021 727 190 6 7 49 577 616 608 459 1022 1282 1701 1570 1709
732 801 988 679 828 1193 752 1383 1306 933 587 299 1138 1248 1019 1178 1131 1116 1210 882 1458 1255 1451 1378 919 936 1022 713 781 243 7 3 9 10 95 494 640 484 448 991 1113 1055 1446
440 1007 1074 1008 1344 1441 826 1395 1065 991 1158 882 847 1239 1057 1258 1437 1088 1242 1439 1150 1130 975 876 650 600 708 179 0 0 0 0 23 17 9 76 501 576 572 557 848 805 655
849 1124 1100 1202 746 861 1094 1316 1186 692 838 854 1137 1160 1630 1599 1479 1158 926 1221 1349 1192 1115 915 639 397 4 0 0 0 0 27 16 34 18 14 100 467 707 518 414 682 1066
647 1028 958 1113 1070 750 1006 1151 1157 677 1044 1395 1088 932 775 1405 1447 1140 984 1463 1202 1017 842 517 392 121 0 0 0 0 1 8 1 87 21 21 15 362 958 769 598 773 965
685 745 926 872 1330 1137 1251 1323 1352 1338 1201 1197 909 1065 1194 1353 1594 1376 1126 1062 1316 762 744 307 104 0 0 0 0 9 21 36 26 14 1 3 0 497 602 848 956 837 654
672 760 677 881 1683 1460 1285 1302 1408 1380 1376 1436 1315 1698 1501 1574 1531 1051 852 1063 1023 1132 800 149 3 0 0 51 0 0 22 23 37 11 2 2 0 10 268 229 262 417 584
546 792 780 757 1315 1827 1553 1428 1299 1166 1139 1232 1410 1360 1388 1374 1345 1184 1069 972 1230 977 472 49 0 0 0 49 0 0 33 28 48 15 4 0 0 0 0 0 0 118 418
516 855 898 888 1103 1361 1701 1324 1288 847 909 1010 1299 1463 1435 1519 1439 1465 1281 1211 868 198 144 1 18 6 5 1 12 0 0 0 7 41 3 0 1 0 0 0 0 0 64
507 781 1032 1004 1092 1245 1452 1375 1100 864 777 1094 1258 1234 1696 1709 1246 1419 1225 1231 604 98 118 20 0 0 29 3 0 47 0 0 0 0 8 10 10 0 0 0 0 0 0
667 899 1310 1244 1196 1549 1252 1489 1393 1393 1409 1080 898 976 1318 1294 917 1481 1239 1004 433 17 82 50 39 5 3 24 0 0 0 0 0 0 0 0 0 7 1 1 0 0 0

GFSSE_con_mlcape_024.txt.gz
CAPE
19 42 122 208 292 707 979 1261 1525 1719 1488 1144 1123 1044 1179 1405 1402 1316 1350 1509 1605 1567 1447 1438 1448 1498 1514 725 794 1156 1153 1280 950 911 448 227 785 787 948 1253 1213 571 302
12 49 260 301 534 1026 1166 1314 1378 1422 1231 1151 1220 1259 1180 1229 1441 1575 1551 1589 1531 1494 1481 1451 1443 1496 1437 1333 1180 1430 1032 1192 1132 942 379 251 731 743 839 1252 960 344 856
1 66 232 428 844 1230 1319 1255 1230 1410 1191 1432 1581 1332 1396 1542 1676 1664 1577 1563 1510 1391 1406 1530 1635 1523 1507 1398 1249 1196 933 739 730 541 426 378 615 709 1188 920 567 873 1110
26 129 346 452 861 1152 1304 1126 1418 1431 1511 1646 1324 1435 1515 1682 1689 1524 1514 1447 1336 1373 1445 1451 1528 1618 1578 1400 1257 1105 957 733 793 967 378 553 267 965 943 1108 737 655 897
90 305 535 862 1030 1176 1310 1342 1420 1365 1363 1407 1404 1276 1334 1516 1491 1375 1305 1287 1400 1484 1564 1572 1526 1566 1642 1364 1203 917 596 656 847 1056 664 373 454 1189 1109 1022 571 1116 1175
19 322 774 894 956 1084 1310 1351 1236 1178 1093 1453 1554 1398 1395 1528 1307 1159 1162 1243 1422 1657 1687 1551 1519 1457 1448 1392 1040 918 768 599 415 220 93 428 711 981 839 1121 1111 1069 1073
33 463 869 952 1037 1113 1225 1245 1236 1064 1033 1445 1578 1388 1412 1467 1195 1070 1026 1071 1285 1524 1751 1356 1270 1106 1245 1208 1058 544 940 837 137 90 193 424 998 1116 1457 1203 1007 987 451
126 842 1063 1051 1099 1186 1166 1217 1084 921 1238 1521 1505 1548 1270 1419 1037 951 1023 1033 1180 1530 1587 1492 1134 1161 991 990 628 979 1065 709 414 283 269 626 1131 1393 1232 1225 858 923 476
451 872 1171 1161 1008 1222 1293 1384 1149 981 1207 1363 1445 1441 1355 1115 879 811 990 1007 1061 1248 1326 1249 915 939 970 670 591 885 663 10 8 247 482 169 890 882 970 957 1055 1105 710
428 750 1006 1203 1264 1254 1668 1575 1499 1269 1159 1263 1392 1237 1129 851 743 1045 935 1128 1105 1038 955 951 1001 1033 959 930 910 856 543 197 0 181 231 190 808 327 433 1115 1046 1127 907
302 495 854 977 1308 1250 1436 1508 1543 1384 1260 1218 1034 889 435 457 1012 1267 1210 1230 1399 965 871 859 904 1049 1208 1101 527 375 1091 61 0 119 507 301 560 1128 960 553 1095 692 995
297 341 591 842 1039 1162 1167 1228 1097 1125 933 614 362 347 504 722 795 1154 1190 1354 1204 795 1032 1168 1130 1285 1051 982 1058 1027 567 2 0 0 30 441 725 1345 1034 1388 1040 1023 1136
559 521 489 587 864 856 554 902 766 598 228 77 95 257 404 673 715 1033 757 848 980 1023 637 941 1252 971 1055 969 568 289 660 137 67 0 19 374 836 1491 1341 1084 1255 1189 1228
617 657 643 503 410 354 258 487 206 125 29 2 171 485 723 855 528 470 759 746 712 1015 1049 1003 1159 1005 1076 851 682 165 318 199 280 206 117 531 835 1283 1090 1291 1114 1150 1328
711 797 714 697 551 478 401 135 80 107 93 164 255 433 814 942 563 574 878 979 927 785 980 880 1120 966 749 998 513 163 57 325 701 575 170 431 691 883 1033 1072 1156 1305 1160
709 733 827 783 774 600 805 451 66 203 438 397 493 632 813 862 638 583 939 957 1157 1193 1106 1107 904 673 746 879 1147 465 153 31 569 508 433 694 483 449 805 892 1163 1157 1684
612 646 730 743 736 645 715 641 145 463 723 705 811 865 1078 920 902 1157 1013 756 1143 1134 1356 1003 785 554 867 315 74 27 28 1 24 111 369 485 522 475 325 894 990 942 1134
545 565 672 657 666 817 607 538 1347 1003 606 598 940 1008 999 949 897 949 882 1062 992 972 858 689 589 429 26 0 0 0 1 4 23 21 61 124 552 458 478 332 959 856 648
445 563 628 589 503 785 660 763 924 866 843 708 799 1066 996 1001 1222 990 875 931 1065 992 897 781 435 196 3 0 0 0 2 19 23 22 23 20 259 458 473 374 319 596 1013
470 645 687 594 509 759 874 1062 742 588 650 849 982 891 967 1282 1299 1095 699 922 1120 932 867 419 264 124 0 0 0 0 7 5 19 4 22 17 199 476 758 492 512 700 746
330 706 744 786 621 1074 1095 804 725 485 513 662 1024 793 1004 1112 1258 1117 786 1086 998 796 526 228 44 0 0 0 0 0 17 14 18 24 7 23 250 490 725 630 817 877 742
470 719 813 800 644 636 813 733 639 532 759 580 992 953 733 869 1208 1108 948 912 890 895 768 180 0 0 0 0 0 0 3 3 12 3 0 29 85 339 296 210 184 313 251
609 714 746 812 809 658 702 804 951 845 1075 1132 1212 1266 1365 1387 1264 1331 917 752 827 882 550 73 0 0 0 0 0 0 0 0 21 0 0 1 4 10 17 1 0 143 134
462 597 666 879 1028 946 973 1078 1063 958 935 893 1054 1135 1266 1335 1334 1127 882 577 607 773 311 26 0 0 0 0 0 0 0 0 0 0 0 0 0 0 0 0 0 47 4
367 483 531 786 1118 1131 1150 1128 1069 921 840 727 717 1060 1286 1406 1222 1066 1005 796 501 268 137 0 0 4 1 0 0 0 0 0 0 0 0 0 0 0 0 0 0 3 6
279 497 532 582 1048 1213 1197 1188 1093 1019 879 639 603 926 1298 1259 1224 1173 1088 934 454 43 0 0 0 0 22 2 8 25 0 0 0 0 0 0 0 0 0 0 0 0 2

GFSSE_con_mlcape_027.txt.gz
CAPE
21 52 50 105 149 539 1051 1123 1380 1557 1500 1263 1030 1010 1087 1540 1685 1372 1286 1562 1642 1545 1529 1552 1558 1321 1083 1232 1141 1247 1134 1009 791 404 337 983 909 1175 1083 1082 568 450 1031
2 28 32 165 641 1097 1273 1498 1500 1440 1162 1050 1118 1310 1504 1371 1528 1674 1717 1586 1554 1528 1534 1505 1574 1498 1274 989 923 826 1264 831 779 358 201 784 731 562 1170 1135 352 388 600
10 52 360 597 892 1173 1302 1416 1429 1386 1451 1374 1235 1479 1526 1507 1583 1572 1556 1542 1470 1440 1472 1698 1556 1552 1474 1332 799 919 778 610 750 540 496 470 522 1236 1242 643 688 1173 1099
16 42 359 644 950 1204 1303 1451 1374 1595 1655 1320 1482 1619 1605 1658 1593 1510 1501 1376 1410 1507 1521 1487 1601 1587 1521 1450 792 561 757 869 978 694 369 381 723 1153 907 614 673 984 1061
51 206 619 957 1039 1100 1309 1427 1525 1765 1522 1276 1481 1563 1638 1581 1472 1383 1330 1424 1510 1617 1605 1555 1533 1615 1668 1378 638 676 784 1000 1221 1048 344 181 691 1041 1226 566 619 1239 1104
143 401 813 1061 1099 1128 1317 1416 1424 1492 1448 1487 1310 1407 1533 1448 1295 1261 1296 1446 1613 1753 1537 1438 1392 1568 1582 1332 894 696 843 718 900 796 230 502 855 1165 1113 725 1218 1163 1268
208 633 957 1006 1121 1335 1321 1247 1172 1189 1560 1588 1355 1339 1564 1329 1215 1221 1212 1375 1493 1667 1592 1270 1394 1275 1324 1120 878 1010 972 558 159 195 269 447 836 846 1170 1137 1128 997 1229
228 706 897 1070 1174 1396 1358 1282 1213 1187 1404 1476 1376 1375 1499 1378 1199 1181 1208 1250 1414 1661 1464 1237 1152 1139 787 765 1031 1240 1238 835 178 161 264 685 977 1285 1267 1122 899 418 952
436 677 947 965 1067 1202 1262 1334 1208 1133 1390 1363 1493 1489 1316 1434 1017 994 1092 1171 1213 1258 1359 1231 920 876 782 711 759 993 1143 640 190 226 356 587 1294 1443 1285 922 947 637 718
518 674 806 939 978 1199 1292 1336 1173 999 1116 1216 1412 1389 1361 1275 1123 1225 976 1110 1249 1012 956 1048 865 966 964 1048 839 768 442 210 49 289 251 337 860 1021 871 1096 985 1123 459
453 700 814 870 968 1200 1307 1376 1305 1100 1011 1138 1429 1266 1218 1061 1002 1268 1287 1244 1154 1066 826 945 907 1109 1154 1074 563 1020 1002 106 0 148 304 283 888 546 695 1158 1025 1238 977
264 613 873 877 929 1040 1527 1281 1240 1086 952 947 1091 836 963 465 675 1036 1174 997 976 963 1073 1226 1088 1116 944 905 952 1281 1222 68 0 19 162 408 837 1174 876 754 1225 911 1059
230 534 825 804 1014 855 1242 1020 1027 897 675 566 626 489 542 581 737 864 868 901 798 981 662 922 1044 813 1151 794 424 298 620 27 0 0 0 421 903 1622 1260 1381 1145 1117 1313
251 307 577 672 821 888 863 770 678 495 386 222 155 165 296 477 633 649 694 682 614 796 918 907 944 990 825 891 524 167 378 165 69 132 11 361 872 1622 1272 1224 1384 1291 1310
275 279 384 543 507 728 421 215 276 164 204 74 0 105 516 696 748 328 620 794 650 701 1029 849 927 950 525 756 609 95 101 55 173 361 91 556 680 1175 1471 1029 1223 1278 1521
503 425 414 400 287 410 105 0 12 107 70 13 20 202 484 778 908 439 571 960 947 1174 967 1112 971 655 660 726 839 715 139 63 210 535 310 182 275 248 1159 1141 1036 1230 1278
568 509 490 338 268 149 0 0 0 0 76 101 231 377 480 705 825 552 660 796 988 916 1197 1062 734 541 484 19 3 0 7 65 17 590 339 262 387 286 140 1102 988 914 808
547 613 568 515 392 206 205 220 245 170 165 444 567 662 715 812 809 757 722 772 941 1084 1009 690 542 252 0 0 0 0 0 11 18 260 270 403 495 442 313 197 828 674 805
468 548 585 661 569 474 361 488 583 638 764 537 577 759 873 970 860 909 880 966 924 796 860 762 355 134 0 0 0 0 6 9 16 16 57 52 206 444 279 325 240 523 949
416 437 532 606 554 548 343 443 583 963 741 545 643 868 881 999 1034 1010 856 798 983 912 897 510 227 58 0 0 0 0 5 2 17 36 35 25 73 395 508 279 388 423 546
345 423 424 477 478 507 512 528 555 746 665 693 783 817 908 981 1011 1112 918 703 850 868 755 271 123 0 0 0 0 0 8 0 20 16 4 63 337 629 561 369 310 820 722
332 388 384 441 404 446 544 563 716 708 558 586 631 814 758 973 1150 1076 904 836 871 787 417 170 0 0 0 0 0 0 0 0 0 0 11 129 133 303 330 361 432 508 346
205 309 325 392 432 439 502 555 787 758 644 536 549 716 882 793 998 1108 922 819 864 781 631 237 0 0 0 0 0 0 0 0 0 0 5 33 65 84 69 33 7 129 65
231 234 387 415 452 445 537 669 734 589 313 377 621 831 1038 1201 924 997 1025 917 740 762 563 152 4 0 0 0 0 0 0 0 0 0 0 1 0 4 0 0 0 41 9
271 360 473 461 470 508 432 646 642 538 492 463 484 883 1010 1087 1123 1169 1061 818 494 547 521 128 9 0 0 0 0 0 0 0 0 0 0 0 0 0 0 0 0 1 13
320 483 505 420 484 579 501 557 635 691 665 595 596 652 782 998 1230 1181 1120 740 450 362 320 87 10 0 0 0 0 0 0 0 0 0 0 0 0 0 0 0 0 0 14

GFSSE_con_mlcape_030.txt.gz
CAPE
39 90 159 154 280 688 581 1187 1547 1696 1624 1251 1068 1161 1551 1829 1673 1494 1543 1540 1479 1518 1566 1616 1283 1109 1319 1127 1345 970 940 771 431 400 766 787 1263 1016 1216 597 693 1225 1485
11 78 113 250 799 999 1232 1488 1510 1439 1132 1093 1265 1655 1527 1423 1609 1596 1483 1465 1461 1449 1413 1579 1488 1265 1218 1163 1312 1293 1195 1007 415 118 884 899 907 896 1076 385 411 838 1348
0 34 38 568 1089 1256 1368 1378 1426 1269 1269 1330 1551 1444 1403 1513 1494 1450 1554 1447 1398 1402 1676 1568 1553 1509 1339 974 855 811 645 783 618 401 869 336 697 1122 906 436 917 601 891
2 16 48 873 1196 1402 1362 1426 1416 1393 1434 1510 1520 1532 1603 1559 1485 1485 1371 1349 1457 1500 1437 1545 1575 1480 1233 804 765 679 919 948 878 450 411 553 1161 1011 636 1120 1168 1133 1170
24 113 459 1017 1184 1334 1327 1401 1624 1460 1513 1541 1577 1636 1604 1477 1408 1313 1327 1487 1541 1604 1548 1486 1544 1628 1420 1029 694 726 935 1139 1277 370 183 402 905 1178 784 695 957 1124 1190
63 259 930 1155 1200 1276 1317 1601 1747 1438 1404 1404 1565 1554 1501 1359 1264 1277 1405 1560 1713 1693 1487 1404 1403 1487 1351 1043 810 1020 839 713 937 321 176 838 859 1327 466 1180 1254 1302 1322
159 567 1079 1167 1101 1336 1366 1564 1555 1512 1438 1352 1450 1546 1409 1282 1235 1261 1315 1452 1614 1798 1570 1412 1238 1171 1120 903 887 742 664 799 616 339 240 763 1062 1121 1114 1314 1260 1385 1331
257 653 984 1223 1224 1258 1287 1297 1286 1490 1507 1456 1451 1472 1441 1261 1289 1274 1263 1331 1586 1599 1550 1164 1118 948 803 853 925 1144 772 415 213 233 247 690 946 1244 1201 1167 784 1270 1376
469 648 824 1027 1267 1255 1227 1264 1155 1257 1431 1531 1434 1346 1445 1349 1241 1231 1176 1239 1355 1282 1319 937 924 922 770 816 949 1130 952 645 127 262 466 750 1099 1547 1257 756 604 505 1315
472 538 676 778 1039 1187 1310 1294 1109 1167 1344 1577 1561 1494 938 1367 1328 1340 1124 1056 1384 1145 984 1043 925 1021 929 913 922 1197 681 332 66 279 421 778 1391 1420 1389 1046 1158 409 971
468 537 649 690 850 1018 1138 1225 1183 1145 1199 1457 1411 1468 974 1116 1060 1212 1315 1380 1101 1023 990 1008 1021 1171 987 1160 975 1210 1029 116 19 266 180 365 867 1111 940 1420 1253 761 825
231 409 642 688 700 964 1130 1116 1127 957 993 1003 1140 1104 1159 781 520 1062 1270 1442 1110 1003 886 1162 1241 813 978 821 888 1029 888 168 0 99 273 326 793 806 931 1421 1101 1260 1082
181 409 620 604 761 868 997 986 1153 870 749 733 763 791 630 724 714 735 904 840 730 902 807 696 905 812 1042 724 371 304 651 66 9 0 2 480 752 1296 1080 898 1387 1026 1148
141 235 563 590 633 735 854 944 927 674 533 396 394 376 243 222 426 618 780 640 604 674 963 902 953 983 719 915 321 136 247 88 41 47 0 355 808 1155 1190 1448 1195 1212 1278
112 214 457 614 614 633 507 912 712 448 310 215 214 125 135 481 628 526 503 605 645 620 781 977 1070 899 449 594 284 52 123 53 135 159 67 281 445 1158 1221 1335 1622 1390 1305
112 167 381 532 547 651 463 548 357 269 128 142 98 1 73 487 640 630 370 643 907 909 1087 1011 937 688 512 780 755 461 124 78 85 232 340 126 456 319 1043 1264 1148 1334 1344
174 144 230 316 392 411 421 278 116 83 70 3 0 0 94 368 597 764 484 650 807 930 835 990 697 536 173 11 1 0 2 52 48 147 518 162 203 358 366 1158 930 947 1092
303 244 222 266 280 196 173 110 0 0 6 0 20 98 225 366 500 714 587 600 782 800 887 732 549 242 0 0 0 0 0 8 4 26 320 313 404 398 288 209 844 597 787
370 426 462 328 205 133 38 0 0 0 0 7 103 279 523 542 575 709 671 751 739 784 711 702 376 108 0 0 0 0 3 17 18 39 55 163 206 507 292 175 231 426 831
400 473 518 382 299 101 17 0 0 141 379 422 531 446 619 736 800 765 773 836 855 719 723 547 238 27 0 0 0 0 0 1 17 32 37 15 71 462 394 256 356 425 379
367 407 492 469 319 275 92 40 105 396 550 730 444 533 699 787 871 823 733 788 687 739 805 453 105 0 0 0 0 0 0 0 7 11 9 76 209 402 549 364 335 707 737
349 319 390 454 462 428 323 211 248 351 464 786 629 664 699 788 895 907 817 835 632 618 609 285 31 0 0 0 0 0 0 0 0 0 20 105 316 455 359 373 457 478 322
221 275 277 350 440 433 465 350 343 369 464 622 610 603 665 757 864 887 880 832 725 661 581 238 39 5 0 0 0 0 0 0 0 0 10 29 115 141 128 23 4 102 70
205 154 216 238 336 332 401 402 355 329 408 473 582 521 577 698 752 989 1051 862 773 740 629 432 63 0 0 0 0 0 0 0 0 0 0 0 13 25 10 0 2 28 3
162 151 188 233 272 279 326 420 373 354 421 405 486 518 462 688 831 872 833 811 812 771 587 367 78 8 0 0 0 0 0 0 0 0 0 0 0 0 0 0 0 21 25
178 77 141 211 249 245 252 383 381 381 319 352 365 316 473 835 952 1024 979 949 883 658 399 315 102 5 0 0 0 0 0 0 0 0 0 0 0 0 0 0 0 0 33

GFSSE_con_mlcape_033.txt.gz
CAPE
166 212 341 238 332 792 961 1289 1500 1803 1756 1399 1344 1414 1668 1796 1520 1504 1528 1497 1513 1564 1247 1306 1321 1430 1268 1433 1054 1029 798 536 472 683 1065 1186 952 975 672 1136 1221 966 1533
73 143 299 353 649 1055 1400 1633 1744 1781 1522 1336 1407 1688 1528 1426 1525 1509 1447 1560 1463 1244 1022 1251 1293 1340 1286 1398 1136 1241 1026 634 206 867 854 941 1026 1035 510 516 859 1273 1463
45 118 238 664 983 1223 1396 1587 1463 1422 1464 1506 1395 1405 1494 1572 1489 1547 1490 1375 1300 1350 1386 1201 1510 1458 1070 1101 1145 937 879 806 368 778 545 530 558 910 299 403 854 1241 1376
63 106 300 695 1154 1428 1481 1413 1466 1410 1509 1379 1473 1436 1414 1486 1539 1452 1397 1391 1439 1337 1441 1597 1577 1422 1039 1003 893 723 934 1008 481 722 614 608 543 634 905 987 1020 956 837
6 129 774 983 1321 1302 1422 1503 1522 1477 1500 1555 1567 1590 1577 1507 1432 1359 1481 1399 1389 1439 1424 1519 1584 1555 1211 893 745 500 503 906 739 231 565 825 574 670 979 1090 1100 1299 1018
49 207 1010 1370 1287 1313 1484 1605 1489 1481 1591 1634 1639 1580 1465 1382 1315 1402 1528 1562 1593 1476 1359 1347 1484 1455 1122 887 804 938 501 578 1140 216 147 887 911 770 626 1136 1141 1238 1101
123 499 786 1339 1403 1374 1675 1635 1399 1454 1493 1599 1639 1542 1436 1303 1279 1342 1415 1525 1552 1657 1398 1314 1140 1069 974 867 905 812 677 730 761 315 541 876 948 650 1192 1226 1372 1386 1388
183 413 643 1180 1413 1399 1595 1538 1507 1491 1444 1543 1634 1578 1415 1377 1343 1323 1352 1484 1607 1517 1258 1113 986 830 833 992 806 976 561 616 652 313 601 941 763 973 1264 1207 1352 1339 1346
347 510 581 628 1196 1326 1352 1375 1509 1587 1609 1503 1499 1492 1443 1297 1249 1263 1212 1354 1347 1365 1190 986 951 837 804 1055 711 996 774 341 581 421 341 874 1032 1138 1470 736 1038 1388 1066
384 535 765 510 715 833 1001 1284 1309 1508 1665 1592 1500 930 1082 1320 1343 1391 1186 998 1314 1086 1126 1040 967 882 960 988 1010 1100 513 405 625 721 481 973 1095 1527 1063 1082 339 1326 669
474 495 566 567 1009 1205 1072 1058 1188 1367 1542 1559 1362 963 1045 1469 1525 1542 1364 1273 1043 783 948 1075 1045 851 1095 1319 1016 1230 995 414 398 831 471 620 1311 1433 1268 1383 896 1096 438
350 494 563 585 785 953 832 1131 1157 900 712 1023 1146 1221 1447 1412 1211 1370 1531 1057 803 868 1036 1002 1163 948 1108 1366 1307 1171 1449 519 56 678 730 228 587 1214 950 1283 1220 795 843
227 313 555 617 847 776 666 915 1028 780 766 904 1336 1359 1295 1415 1334 1423 1534 1447 1473 1082 1343 1176 1465 1343 1405 1143 395 1015 1362 405 167 188 323 314 642 984 941 1459 1063 1195 1069
275 294 449 548 727 757 695 774 843 811 744 629 740 1067 959 818 992 1292 1439 1435 1348 1361 996 1327 1473 1353 1380 1350 604 417 481 471 359 250 105 351 746 767 961 1039 1421 904 1115
264 264 427 569 718 784 856 674 676 885 608 480 629 666 619 802 1208 1353 1216 1256 1390 962 1064 771 1156 1214 1169 1088 697 411 158 569 594 637 376 183 486 667 697 971 1374 1282 1345
217 239 476 589 672 800 725 865 943 994 754 687 389 369 387 746 1263 1392 1136 1113 1131 1470 1723 1060 1157 816 1001 993 734 721 434 475 583 758 677 372 329 337 675 679 772 1502 1486
177 259 392 605 662 758 770 734 1029 898 661 311 247 279 164 473 1116 1307 1408 1168 1329 1609 1598 1534 1053 976 49 11 32 12 34 192 252 604 892 453 245 219 395 916 783 711 1070
203 290 455 480 610 727 744 767 694 707 443 186 198 131 144 387 883 1157 1329 1269 1377 1480 865 1111 731 909 271 2 1 20 33 42 20 346 600 697 674 522 273 159 695 480 567
405 302 344 519 542 646 720 684 634 482 97 108 137 195 373 432 913 1049 1255 1376 1428 1458 973 1234 1074 606 53 5 23 25 52 41 82 149 350 649 802 822 563 143 222 449 842
547 611 456 502 540 588 547 530 437 302 22 27 62 308 556 980 1160 1205 1348 1486 1442 1431 1287 1238 921 356 0 4 0 33 41 118 122 180 174 125 491 922 890 739 642 545 260
545 598 640 635 651 565 416 172 14 0 6 342 742 1102 1176 1083 1317 1431 1391 1394 1521 1168 1439 1254 763 373 0 0 0 34 31 64 49 54 115 433 794 969 1043 914 809 673 870
634 636 723 712 792 597 519 281 88 57 208 773 1197 1198 1136 1216 1461 1517 1387 1404 1527 1323 1236 1146 482 249 79 0 0 9 15 37 48 37 106 512 802 590 533 619 646 846 810
650 669 736 738 854 781 591 499 432 598 760 859 1121 1246 1209 1335 1468 1465 1554 1411 1528 1376 1312 1127 535 227 18 0 0 1 12 25 65 24 33 401 521 248 230 76 79 481 410
606 645 686 724 829 866 815 640 459 201 239 548 887 1239 1270 1289 1408 1478 1621 1414 1516 1493 1387 1181 666 340 0 0 0 0 8 85 34 5 10 119 261 184 169 23 34 148 68
528 593 634 656 740 820 891 782 703 592 573 676 911 1104 1201 1249 1245 1400 1688 1471 1544 1518 1524 1345 749 344 50 1 0 0 0 0 23 34 12 0 18 14 46 21 12 44 77
524 472 499 645 618 752 756 819 787 739 760 794 854 851 963 1081 1173 1306 1576 1578 1543 1510 1523 1313 862 533 140 7 26 0 0 0 0 31 27 18 13 0 0 0 0 0 48

GFSSE_con_mlcape_036.txt.gz
CAPE
82 132 287 257 550 1171 1375 1450 1233 1749 1479 1343 1605 1522 1858 1614 1533 1569 1499 1485 1081 1294 1393 1399 1274 1390 1412 1168 1134 855 600 527 749 1305 1307 1113 903 1044 1264 978 1224 825 1689
42 45 147 544 1012 1289 1479 1658 1809 1626 1425 1524 1650 1904 1591 1542 1575 1484 1629 1307 1385 1140 1372 1372 1398 1472 1440 1145 1310 1291 933 350 721 945 1114 1064 1238 853 565 1011 1358 1313 1606
2 37 283 781 1239 1551 1778 1986 1881 1448 1426 1684 1807 1468 1636 1608 1587 1495 1314 1313 1510 1446 1392 1519 1461 1184 1246 1313 1439 1005 963 519 728 507 692 502 714 596 331 1087 1451 1607 1641
77 458 528 914 1354 1663 1870 1839 1614 1535 1635 1636 1600 1695 1617 1622 1523 1393 1326 1325 1375 1447 1706 1640 1477 1150 1119 1087 965 1025 1152 736 784 516 636 369 357 528 903 763 1249 1503 1494
207 503 710 1102 1413 1696 1601 1490 1520 1588 1633 1594 1651 1644 1635 1540 1422 1468 1276 1134 1437 1414 1530 1569 1281 1296 1115 869 788 709 836 1032 211 436 665 868 266 794 1011 852 1174 970 854
255 488 531 1245 1582 1506 1523 1549 1577 1652 1679 1741 1683 1570 1471 1353 1415 1513 1727 1610 1594 1431 1443 1513 1267 1022 1041 952 1006 797 809 1033 509 54 437 645 784 836 1031 951 848 1222 632
290 493 820 1285 1329 1507 1624 1583 1624 1638 1724 1714 1556 1523 1405 1311 1366 1428 1556 1805 1731 1489 1428 1321 1277 1103 1027 1026 1144 846 846 801 762 148 836 1146 423 921 1273 1223 1399 1258 1231
230 191 510 1159 1368 1691 1695 1579 1490 1528 1689 1706 1622 1545 1439 1380 1351 1372 1452 1632 1569 1454 1300 1296 1145 948 980 1095 1268 773 664 770 741 126 573 942 636 974 1368 1489 1512 1443 1309
143 107 221 550 1120 1761 1728 1545 1529 1560 1607 1702 1657 1550 1422 1392 1374 1350 1290 1397 1354 1417 1222 1255 1246 1165 1116 1006 1203 981 459 485 981 204 368 602 860 1078 1308 1634 1609 1513 1515
141 87 171 420 603 734 960 1487 1580 1648 1646 1601 1466 1322 1340 1265 1207 1253 877 898 1231 1186 1257 1175 1174 1232 1276 1213 1436 751 556 394 1025 743 151 1014 1158 1169 1107 736 1403 1093 1376
176 123 140 244 492 644 550 821 1244 1529 1680 1476 1076 1053 821 1433 1440 1372 711 940 870 928 1009 1023 1057 1133 1245 1182 1302 1019 1030 340 782 815 704 550 1355 1432 1207 1133 895 801 635
217 123 114 139 323 528 402 639 712 505 452 662 1103 1193 1573 1601 1585 1380 1053 1033 984 931 939 913 754 737 1038 998 711 1191 751 217 326 588 818 321 1069 1306 1238 1401 1082 1237 414
240 137 129 209 445 476 322 627 617 447 531 916 1456 1437 1531 1564 1724 1488 1530 1234 1417 1022 1353 1092 1215 1089 1318 899 165 58 89 177 30 53 231 257 419 1226 1092 1088 730 1076 1037
299 262 287 324 444 436 412 488 497 268 304 355 498 1279 1632 1452 1493 1653 1498 1411 1437 1441 1080 784 616 838 1135 933 101 29 29 53 48 31 144 365 649 667 1008 1170 1356 1279 1262
374 379 431 528 665 607 540 328 282 349 183 172 481 840 1183 1251 1602 1567 1447 1331 1356 1368 869 961 894 729 854 527 197 116 30 27 80 109 247 294 645 774 765 959 1175 1098 1331
318 320 377 518 630 713 661 579 471 559 312 295 238 478 1136 1276 1861 1349 1431 1226 1232 1416 1271 418 822 716 884 836 284 129 28 50 179 129 104 179 230 534 694 862 1104 1466 1501
339 370 354 552 634 756 773 821 785 478 393 217 199 627 1037 1235 1635 1220 1178 1289 1135 1138 1068 1007 1062 1182 533 227 199 28 22 48 75 155 70 194 150 99 452 792 914 937 1415
340 391 451 475 532 778 771 815 575 564 418 172 156 490 852 1051 1623 1502 1488 1377 1586 1061 909 971 1258 793 401 103 10 59 28 40 43 54 41 137 127 416 108 542 603 600 733
287 352 480 546 506 662 861 840 766 605 545 118 127 478 721 1141 1462 1856 1488 1460 1894 1575 1041 1108 1024 646 123 77 49 45 59 56 62 53 82 152 330 322 373 25 274 471 897
351 429 617 641 676 858 888 1008 688 454 319 74 169 409 767 1159 1310 1892 1512 1285 1408 1474 1228 1238 1204 565 32 3 0 6 51 44 102 82 59 73 197 577 463 471 445 400 288
528 579 680 747 850 996 883 676 407 146 60 31 180 488 1191 1460 1817 2224 1687 1533 1480 1266 1387 1380 861 758 33 0 7 27 46 57 105 70 75 96 60 155 148 294 624 353 627
596 751 1022 992 1073 1231 979 678 194 31 0 12 349 831 1755 2029 2046 2294 2010 1764 1838 1601 1877 1613 1317 277 86 0 15 33 27 29 47 72 148 78 76 43 14 14 62 239 270
510 712 969 1352 1392 1460 987 790 545 151 67 100 483 1226 1844 1968 2119 2423 1852 1524 1929 1560 1456 1832 1483 883 94 0 12 41 20 18 32 29 144 50 21 41 2 0 2 157 56
670 805 1025 1385 1670 1743 1485 696 644 150 80 103 526 956 1202 1935 1971 2106 2285 2292 2214 1709 1687 1769 1452 1022 519 0 0 0 53 141 39 24 8 107 27 32 15 9 2 0 0
633 757 1107 1496 1813 1784 1794 986 834 809 166 244 430 982 1535 1630 2001 1828 2186 2337 2286 2055 1911 2149 1807 1528 625 16 0 0 0 0 37 23 34 19 51 15 18 0 21 28 8
502 811 1103 1579 1984 1891 1794 1740 1384 1285 945 520 810 1039 1258 1228 1396 1725 1778 2304 2370 2051 2180 2238 2128 1635 1126 341 0 6 0 0 0 13 11 7 26 18 10 10 2 4 28

GFSSE_con_mlcape_039.txt.gz
CAPE
18 195 417 469 1105 1168 1070 1501 1157 1620 1657 1644 1590 1840 1628 1502 1529 1488 1361 1238 1431 1502 1430 1347 1486 1422 1193 1069 934 765 396 674 1329 1250 1302 995 1166 1426 1240 1443 1581 952 1720
110 342 348 845 1376 1555 1586 1323 1844 1641 1607 1661 1868 1705 1503 1530 1530 1699 1507 1408 1291 1474 1440 1450 1577 1441 1149 1268 1373 1175 473 586 882 964 1112 1279 1023 565 1049 1379 1367 1458 1706
58 156 423 1043 1473 1530 1582 1832 1753 1500 1639 1886 1692 1557 1626 1609 1494 1280 1377 1589 1553 1481 1559 1515 1286 1268 1289 1420 1183 1092 739 562 446 819 1013 817 363 297 877 1094 1358 1688 1630
0 161 509 1059 1440 1768 1910 1865 1595 1562 1723 1671 1742 1609 1640 1541 1400 1375 1532 1459 1456 1760 1625 1476 1275 1155 1148 1094 1025 1245 1016 315 576 729 562 577 42 568 468 1471 1335 1251 1181
38 455 816 1286 1566 1914 1935 1736 1654 1618 1639 1685 1575 1604 1609 1440 1451 1665 1360 1568 1449 1540 1540 1546 1340 1278 1109 987 928 945 1111 177 188 736 350 871 583 836 933 1098 727 936 1214
551 556 719 1477 1747 1746 1660 1584 1611 1633 1650 1678 1605 1543 1406 1480 1584 1762 1689 1694 1412 1449 1424 1385 1222 1162 1131 1062 1109 939 922 609 429 230 881 880 678 916 1019 893 1104 909 947
494 701 868 1513 1664 1566 1526 1548 1626 1621 1731 1609 1517 1410 1413 1464 1487 1604 1849 1797 1513 1425 1388 1339 1292 1272 1286 1334 1148 925 992 635 380 713 898 708 343 1284 1310 1441 1396 909 1186
580 470 923 1560 1576 1539 1499 1594 1649 1702 1693 1584 1570 1471 1457 1445 1462 1514 1677 1644 1567 1336 1329 1258 1124 1217 1295 1357 1137 785 906 1137 168 501 1113 723 915 1481 1494 1522 1418 1313 1300
458 622 650 807 1234 1623 1536 1537 1495 1584 1645 1622 1622 1540 1509 1473 1399 1287 1368 1458 1494 1432 1386 1389 1251 1188 1222 1291 1032 497 237 813 357 179 761 827 919 1368 1645 1642 1565 1562 1547
260 142 72 284 647 792 944 1420 1458 1514 1564 1614 1587 1547 1377 1185 1053 957 812 1041 1204 1357 1447 1346 1280 1315 1351 1262 942 410 283 924 726 78 1152 799 881 1270 923 1579 1385 1529 1554
149 7 2 142 478 705 706 1081 1392 1514 1572 1439 1267 1025 1161 1614 1715 1569 889 765 933 989 1105 1120 1116 992 899 1016 768 876 904 702 813 639 724 993 1338 1269 1330 538 1455 792 1486
153 35 39 115 293 422 243 614 649 530 476 662 1020 941 981 1562 1347 1387 734 757 867 855 893 720 1102 1166 776 622 949 1153 1303 145 384 796 534 947 1528 1485 1260 1176 1259 438 676
211 71 90 196 278 253 255 340 466 311 515 842 1519 1501 1561 1449 1137 886 1149 806 1034 851 690 1018 619 1191 581 711 216 718 221 198 62 256 105 159 1012 1202 1199 1405 1245 1097 468
224 125 85 222 310 250 424 292 320 238 465 589 973 1594 1794 1588 1418 1620 1125 1261 1067 1003 912 853 818 813 699 446 26 8 26 51 51 339 118 283 521 1014 1202 1274 1056 1286 1186
263 133 123 225 502 521 594 264 340 233 205 306 696 1220 1535 1278 1421 1288 1176 1004 1255 991 775 823 973 664 298 424 229 273 25 21 16 410 127 190 554 647 867 1086 1332 1110 1333
196 188 219 329 610 739 670 634 351 356 258 290 364 699 1325 1336 1274 1525 1325 1054 1292 992 662 670 1073 593 885 548 48 86 13 33 11 96 235 211 263 535 746 902 1222 1331 1288
226 250 289 466 689 816 818 888 697 426 361 219 349 776 1178 1401 1452 1748 1095 1029 1044 1218 1412 1178 973 1139 505 184 103 8 19 32 3 18 177 155 116 339 483 869 945 1375 1419
230 304 329 341 530 779 768 843 669 393 273 255 242 666 1125 1382 1716 1494 1250 1267 1499 1229 772 947 620 652 786 99 0 41 22 17 15 7 28 324 408 202 400 542 811 895 1071
315 390 453 447 428 677 893 809 701 455 483 252 180 431 1276 1367 1612 1903 1569 1524 1862 1281 685 694 515 216 10 42 16 31 31 21 19 17 11 85 36 404 114 257 172 352 737
363 515 649 581 759 971 960 1087 706 422 465 351 133 313 1127 1407 1598 1924 1433 1647 1470 1314 978 962 903 34 19 0 9 29 17 35 34 12 12 75 20 107 299 471 331 299 660
339 481 791 841 1028 1025 920 775 562 327 326 206 93 276 829 1277 1504 2069 1849 1722 1458 1215 1393 669 910 239 12 0 9 30 21 44 78 46 75 10 28 199 58 85 201 635 344
349 545 916 1142 1478 1367 1087 966 521 410 128 87 6 545 955 1555 1922 2235 2157 1484 1624 1442 1641 1013 792 431 10 0 82 16 23 44 46 29 64 48 50 26 3 9 0 98 439
404 786 1027 1404 1607 1572 1246 1143 887 483 240 30 36 391 1036 1619 1970 2385 1819 1531 1562 1678 1589 1684 1020 398 228 0 37 90 29 26 22 7 13 31 1 13 0 0 7 31 44
449 724 1246 1722 1914 1910 1729 970 772 283 35 3 31 131 998 1681 1872 2160 1536 1439 1867 1640 1631 1647 1146 1173 182 2 0 1 107 198 151 6 4 33 14 10 3 19 8 1 0
410 565 1090 1968 2168 1931 1994 1324 919 690 21 70 81 289 982 1927 1942 1744 2205 2219 2213 1854 1528 1660 1622 1585 824 136 0 0 0 0 4 96 30 16 0 16 25 0 24 18 1
303 462 877 1755 2244 2421 2381 1834 1810 920 516 278 222 475 890 1083 1847 1978 1905 2333 2069 2038 1608 1734 1887 1923 1453 325 12 0 0 0 0 0 16 32 36 6 4 13 1 1 26

GFSSE_con_mlcape_045.txt.gz
CAPE
11 300 557 948 1271 1068 1253 1281 1187 1380 1638 1347 1399 1364 1432 1398 1277 1431 1574 1480 1483 1583 1439 1439 1030 1117 1351 1235 362 321 1150 1156 1267 1047 1146 1356 1329 1488 1456 1417 1552 1522 1635
7 350 928 1132 1179 1087 1348 934 1051 1312 1673 1172 1327 1525 1815 1641 1519 1388 1513 1565 1447 1642 1566 1603 1008 1382 1360 1192 821 311 872 821 1198 1126 623 972 1288 1439 1312 1265 1679 1607 1680
47 569 1056 1210 1314 1268 1170 995 1214 1776 1134 1358 1483 1431 1332 1362 1587 1574 1518 1531 1592 1465 1326 1393 1319 1348 1356 1036 1014 349 674 858 634 895 791 136 1206 1337 1378 1538 1733 1660 1618
97 894 1041 1258 1258 1443 1319 895 1673 1306 1321 1117 1720 1320 1442 1539 1702 1479 1668 1835 1629 1444 1344 1233 1255 1268 1179 1065 995 563 241 558 660 341 269 176 882 897 1119 1509 1392 1453 1428
272 900 1281 1251 1413 1501 932 1207 1448 1403 1325 1514 1280 1433 1640 1659 1625 1523 1443 1502 1456 1448 1368 1358 1220 1142 1082 999 717 375 249 340 685 641 517 95 412 1087 981 1143 1320 1420 1367
572 871 1397 1588 1711 1321 1079 1254 1338 1399 1382 1663 1375 1541 1778 1831 1634 1569 1478 1518 1446 1395 1346 1311 1267 1190 1177 1073 708 458 493 716 738 729 697 707 794 1206 1572 1519 1424 1340 1647
590 846 1480 1590 1666 1295 1301 1402 1377 1419 1483 1359 1442 1509 1627 1744 1839 1696 1528 1553 1501 1447 1402 1382 1402 1347 1370 934 489 522 857 783 680 582 612 922 1236 1358 1493 1061 980 935 1453
661 856 1424 1560 1552 1298 1372 1381 1457 1449 1404 1418 1408 1412 1460 1543 1759 1742 1570 1450 1445 1405 1280 1165 1199 1200 1253 837 447 535 819 1071 726 609 638 986 1323 1519 1441 1351 1180 1168 1383
688 847 1307 1530 1324 1355 1485 1480 1578 1398 1538 1466 1392 1398 1364 1386 1427 1528 1531 1511 1460 1417 1342 1277 1205 1184 1191 814 498 543 777 909 636 552 873 1138 1564 1535 1505 1430 1496 1465 1411
767 903 1126 1241 1142 1222 1418 1522 1525 1441 1585 1447 1373 1328 1352 1384 1259 1210 1196 1435 1582 1392 1156 1037 1076 928 1003 906 591 562 748 1028 914 582 689 1369 1617 1523 1580 1523 1567 1573 1499
673 777 972 836 848 892 987 1281 1377 1379 1401 1292 1160 1217 1135 1098 1143 1008 1056 969 1281 1193 972 641 804 986 828 692 717 872 871 617 768 565 707 1126 1301 1365 1278 1357 1598 1560 1523
516 623 583 494 487 718 652 935 827 715 491 839 961 89 7 325 978 1150 521 877 1047 1044 1182 778 361 949 627 404 605 1186 888 574 672 331 746 1207 1231 751 1214 890 1399 1534 1489
243 222 180 509 575 511 565 269 664 450 503 883 424 123 5 749 757 977 406 388 12 67 397 395 153 381 563 764 878 854 1041 712 364 403 1051 1271 1518 1325 1180 860 446 1242 1478
59 14 27 369 447 365 308 92 512 537 510 380 420 147 3 0 96 575 326 264 263 148 320 919 787 765 575 467 869 863 912 747 319 377 1168 1247 1632 1382 1403 1410 874 376 563
36 0 4 164 308 277 138 11 374 411 487 540 617 609 552 434 282 658 700 606 432 494 600 998 981 622 180 37 137 82 490 165 36 31 449 1139 1277 1296 1412 1170 1310 1260 1000
51 0 64 71 268 265 306 50 81 635 434 821 1218 1154 773 167 846 781 918 804 832 595 42 1094 728 673 240 188 57 26 139 82 42 43 90 541 1002 1173 1418 1462 1173 1277 1386
46 16 71 60 276 449 275 670 490 622 195 499 951 1068 1042 655 889 1080 1005 828 506 589 473 1049 856 432 164 199 17 8 47 67 82 51 31 164 567 832 1079 1267 1148 1033 1292
78 147 118 105 262 452 250 536 476 472 603 317 743 759 1093 1156 1546 844 667 861 836 1041 1078 761 800 364 147 126 36 41 35 60 56 88 43 37 81 163 683 1049 1070 1187 1062
109 146 160 184 81 367 253 500 416 441 463 580 947 714 712 856 1529 920 470 365 11 1194 921 846 311 401 334 91 31 28 10 24 41 123 101 137 147 78 161 677 695 823 1401
0 108 94 266 188 247 429 457 293 180 394 559 519 799 868 969 1368 1205 805 305 627 733 1102 985 55 22 15 19 23 28 11 33 36 52 108 186 174 144 176 165 286 309 725
0 62 24 281 417 276 544 437 464 12 274 432 292 1178 1007 1124 1414 1332 729 839 839 985 679 618 0 6 0 14 25 27 8 46 21 10 85 208 157 114 116 87 144 122 500
92 32 170 393 608 424 552 448 652 703 307 371 226 793 1076 1257 1421 1518 1193 1219 1090 1001 674 778 466 217 0 10 38 7 0 15 35 41 45 110 85 114 94 176 223 165 209
186 116 185 196 657 576 624 599 434 765 704 454 278 134 1284 1182 1233 1416 1381 1099 996 1213 1030 754 404 397 0 0 26 1 14 31 25 28 25 32 17 0 1 149 260 240 154
321 330 176 299 639 796 841 822 611 405 476 588 332 179 253 1071 988 1191 1566 1158 1065 1126 1276 843 416 269 0 0 0 24 11 22 8 0 3 0 0 0 0 0 72 158 39
310 554 411 358 598 978 929 866 795 636 607 325 501 167 294 489 705 1552 1620 1248 1106 1303 1114 744 1278 1058 2 0 0 0 0 0 20 12 2 1 0 0 0 0 0 0 0
434 642 731 524 648 919 1002 978 686 845 593 523 133 168 192 694 782 1073 1975 1661 1515 1331 1132 1181 1398 459 931 349 8 0 0 0 0 11 18 9 11 3 0 0 0 0 0

GFSSE_con_mlcape_048.txt.gz
CAPE
32 239 772 1312 1035 1202 1442 1221 1555 1250 1278 1219 1497 1538 1497 1630 1729 1720 1740 1887 1905 1409 1420 1078 1417 1580 1118 253 684 1186 1189 1241 1289 1526 1638 1742 1741 1717 1709 1637 1508 1498 1557
0 388 978 1278 1174 1316 1139 1356 1740 1056 1519 1372 1905 1642 1601 1526 1638 1738 1716 1799 1744 1708 1706 1197 1536 1527 1241 531 667 830 1199 1337 1006 990 1341 1688 1685 1477 1826 1618 1601 1502 1540
97 543 953 1105 1305 1231 1228 1257 1650 1192 1440 1830 1469 1443 1607 1666 1617 1607 1703 1554 1600 1486 1571 1385 1519 1549 1229 782 618 929 909 738 1194 482 1104 1178 1388 1521 1386 1768 1616 1610 1457
469 957 1286 1128 998 1152 1090 1693 1176 1545 1544 1494 1399 1583 1807 1615 1575 2027 1692 1689 1547 1427 1389 1466 1475 1146 1296 1076 664 785 854 878 813 622 293 753 813 1174 1692 1630 1598 1434 1404
601 976 1291 1276 1284 1006 1159 1712 1478 1165 1812 1282 1516 1661 1612 1796 1476 1493 1593 1484 1537 1499 1477 1377 1306 1249 1155 985 650 525 841 1032 704 436 146 631 999 1369 1356 1481 1541 1294 1399
594 1090 1313 1508 1276 975 1624 1216 1531 1332 1761 1393 1614 1834 1746 1597 1490 1568 1520 1519 1496 1485 1457 1416 1360 1293 1295 984 739 585 622 843 822 350 287 812 998 1266 1657 1516 1260 1433 1249
801 1176 1375 1607 1152 1110 1296 1467 1268 1438 1465 1468 1637 1764 1907 1786 1735 1663 1705 1654 1626 1569 1547 1562 1519 1455 1120 887 818 678 765 850 596 601 753 990 1579 1572 1521 1393 1274 1460 1341
814 1293 1517 1603 1363 1250 1277 1387 1432 1414 1238 1511 1547 1631 1710 1898 1817 1652 1571 1571 1536 1452 1341 1324 1232 1294 1052 643 490 762 1018 859 642 709 1069 1239 1551 1161 1055 938 1279 1377 1327
967 1256 1467 1438 1389 1285 1299 1607 1358 1379 1423 1504 1523 1480 1494 1530 1563 1636 1564 1547 1539 1517 1470 1331 1204 1035 527 459 643 804 1245 851 426 771 1125 1361 1577 1450 1380 1232 1382 1316 1362
881 1078 1203 1263 1188 1256 1415 1510 1329 1485 1539 1521 1416 1305 1277 1256 1288 1269 1211 1515 1434 1348 1325 1142 1166 1010 719 705 581 773 916 915 469 835 1122 1610 1615 1462 1532 1572 1531 1461 1382
754 931 1126 987 994 1181 1323 1356 1250 1505 1553 1441 1387 1253 1038 913 954 1074 900 1150 1190 1196 1180 839 964 971 594 719 602 1126 642 623 405 724 1251 1515 1617 1452 1428 1452 1655 1483 1449
486 693 878 695 702 809 1060 1121 696 1139 1043 857 481 291 317 570 928 1049 813 1027 1129 1096 834 904 487 852 768 301 526 1131 536 602 485 649 972 1472 1429 1155 1179 1460 1556 1658 1625
529 628 539 365 583 460 240 401 352 475 520 666 231 0 88 735 854 1034 545 458 21 69 189 495 263 224 607 641 575 632 800 528 303 479 955 1084 952 1174 851 1155 1536 1452 1582
540 443 265 226 436 345 29 0 1 135 431 538 257 0 290 210 508 323 152 55 57 2 164 557 830 763 756 474 774 905 723 409 354 372 1151 1477 1362 1277 990 525 796 1238 1402
393 226 138 279 327 248 0 0 102 195 345 347 226 14 125 0 78 129 146 363 278 365 489 706 845 586 177 42 60 475 728 444 301 379 963 1573 1335 1452 1391 1146 540 396 549
168 88 89 275 238 249 88 0 127 291 284 386 326 399 321 357 553 620 638 582 462 507 392 436 822 505 342 128 42 207 488 241 64 99 871 1164 1255 1383 1476 1256 1304 1229 1115
42 16 31 188 219 132 135 0 38 260 294 398 483 623 438 1 554 760 560 599 593 529 321 565 522 300 85 147 19 89 125 51 21 9 217 390 906 1352 1412 1475 1147 1267 1404
34 0 13 117 231 47 269 318 447 321 157 491 794 808 637 394 783 782 763 600 586 742 862 872 663 249 51 73 31 71 75 51 45 21 35 73 327 755 1283 1367 1311 1090 1252
4 0 8 36 239 81 519 392 297 302 377 458 795 706 795 1018 1000 461 386 542 546 606 900 818 442 439 185 97 51 50 56 90 54 47 17 2 46 244 519 891 910 1057 1288
38 0 0 11 231 192 257 206 131 167 166 409 680 610 796 1074 924 456 546 145 0 954 734 645 457 128 74 71 88 17 23 59 74 65 88 49 73 24 77 339 391 427 716
99 59 0 15 125 282 164 125 13 44 44 135 283 661 624 626 905 670 467 474 476 726 804 492 0 0 0 28 34 25 32 46 60 45 38 98 99 69 16 101 79 107 302
103 117 40 11 5 147 57 48 19 0 0 26 137 491 691 771 962 814 417 633 565 928 520 588 6 3 0 16 24 17 13 35 15 9 13 70 60 53 101 29 1 20 141
77 129 69 26 0 56 178 126 66 4 0 7 113 232 729 891 1098 1121 960 644 879 1016 680 629 381 89 0 19 11 0 4 0 9 0 5 25 5 0 11 73 73 111 39
56 87 100 97 92 70 308 146 123 12 4 16 59 89 543 913 1105 1336 1059 951 793 907 1028 815 252 358 0 0 1 20 0 15 0 0 0 3 1 0 0 10 105 147 50
71 87 79 250 224 238 375 270 190 202 145 350 264 188 196 884 1097 1112 1103 1175 745 926 843 723 554 250 0 0 0 0 0 5 9 0 0 0 0 0 0 6 48 51 30
110 34 153 338 328 354 399 362 268 207 148 163 333 316 175 353 793 916 987 1098 907 746 1061 887 915 698 156 0 0 0 0 0 0 11 4 0 0 0 0 0 0 0 0

GFSSE_con_mlcape_051.txt.gz
CAPE
37 245 846 1016 1307 1123 1454 1525 1417 1407 1620 1625 1773 1858 1830 1850 1562 1731 1826 1824 1623 1432 1070 1536 1577 804 349 810 859 1075 1251 1259 1510 1709 1693 1703 1941 1960 1561 1541 1415 1410 1322
89 558 1113 1266 1496 1223 1689 1419 1705 1532 1908 1706 1675 1631 1664 1770 1680 1691 1656 1568 1657 1329 1386 1572 1361 966 390 802 1142 1176 948 954 1428 1466 1629 1633 1822 1803 1652 1552 1493 1469 1525
285 1002 1326 1242 1359 1355 1751 1263 1371 1565 1814 1829 1823 1622 1615 1685 1708 1638 1701 1831 1820 1551 1293 1585 1416 920 771 853 815 1182 1372 761 938 1515 1484 1382 1567 1517 1685 1700 1631 1417 1290
519 1055 1126 1302 1347 1347 1808 1296 1633 1851 1244 1617 1863 1615 1688 1716 1723 1796 1717 1723 1550 1632 1609 1234 1246 1066 929 770 889 753 1086 1243 695 1045 647 968 1377 1683 1839 1732 1577 1526 1313
625 1027 1050 1300 1393 1367 1580 1531 1558 1791 1364 1535 1734 1702 1687 1679 1778 1682 1671 1709 1618 1537 1490 1203 793 1226 949 823 852 898 784 1024 696 364 455 843 1497 1533 1615 1499 1180 1357 1389
901 866 1011 1270 1224 1741 1341 1725 1608 1617 1458 1783 1880 1732 1533 1561 1529 1552 1577 1612 1627 1604 1285 1420 1284 1290 961 608 610 672 885 1053 771 188 706 1096 1244 1517 1665 1351 1384 1370 1442
755 1086 1262 1336 1306 1596 1360 1432 1687 1514 1555 1762 1901 1874 1821 1821 1806 1771 1769 1763 1689 1667 1646 1442 1333 1182 824 680 786 890 1189 939 199 299 679 1149 1607 1683 1692 1519 1611 1375 1469
832 1117 1442 1307 1503 1423 1477 1291 1512 1405 1554 1687 1782 1824 1896 1903 1822 1788 1728 1660 1521 1411 1473 1441 1218 895 704 669 854 985 1213 918 588 665 1014 1308 1414 1479 1298 1268 1403 1452 1398
964 1016 1351 1223 1325 1301 1355 1410 1435 1347 1531 1582 1636 1739 1848 1876 1820 1723 1699 1688 1642 1598 1517 957 592 380 460 621 871 909 1167 883 565 940 1242 1382 1174 1260 1004 1730 1465 1466 1445
957 1040 1145 1270 1175 1180 1469 1349 1503 1484 1532 1588 1550 1543 1458 1518 1616 1519 1368 1612 1543 1494 1473 805 528 225 576 811 945 1063 1115 832 627 942 1180 1480 1405 1332 1506 1344 1394 1515 1476
1003 1099 989 1103 923 1028 1337 1291 1590 1587 1582 1549 1406 1406 1099 803 913 1177 1130 1501 1440 1346 1196 1011 1010 700 738 723 962 1075 1284 473 606 902 1265 1388 1447 1364 1393 1564 1530 1497 1413
713 943 943 961 538 1010 1287 1239 1293 1475 1434 1231 922 696 609 696 789 875 694 1354 1171 1264 1253 1016 553 959 435 339 837 624 540 475 565 1023 1229 1394 1480 1263 1186 1714 1522 1479 1472
538 841 792 657 545 700 789 973 829 1067 1063 807 334 50 311 691 982 911 781 465 33 111 256 391 254 266 473 352 480 695 487 398 463 795 1257 1308 1229 1133 1257 1391 1675 1512 1366
367 547 593 388 224 275 378 533 289 510 558 538 227 0 400 551 671 697 267 40 24 5 92 369 675 734 567 488 619 580 591 354 267 556 830 1095 1212 1130 804 1369 1352 1470 1478
213 288 312 125 33 0 0 187 37 126 338 531 283 1 72 136 303 93 70 240 213 305 390 393 660 399 36 30 379 494 627 402 222 426 994 1196 1111 1279 720 541 943 1207 1316
252 179 130 17 0 0 0 0 0 48 289 345 186 60 11 0 39 181 355 390 487 427 420 347 511 105 33 28 34 315 518 350 277 239 766 1468 1253 1307 1333 990 605 444 484
298 163 38 0 6 0 0 0 0 129 239 289 270 319 195 320 508 625 482 472 538 553 369 380 606 182 84 24 42 134 224 254 72 141 602 1148 1381 1342 1302 1247 1262 1251 1204
211 114 16 46 50 0 52 0 0 139 239 299 320 412 423 133 368 592 532 540 552 504 576 599 538 43 63 13 34 83 143 52 17 21 178 537 890 1192 1491 1113 1033 1219 1313
75 39 0 38 61 44 61 118 0 33 145 267 412 466 577 261 551 640 568 503 510 392 704 550 440 374 79 42 25 42 57 51 42 24 26 66 208 410 681 1069 1041 947 1131
0 0 0 0 30 54 42 97 319 252 325 240 540 646 689 641 804 446 345 428 86 376 611 444 475 167 123 185 33 10 31 62 37 23 16 18 5 38 191 394 560 652 780
0 0 0 0 8 72 57 216 213 142 207 358 498 739 741 974 692 268 488 125 0 695 573 459 0 3 7 38 15 0 19 33 54 52 40 43 66 0 0 96 187 140 196
0 0 0 0 0 35 47 260 96 9 38 103 243 599 622 910 1020 644 357 363 393 671 603 566 0 0 2 21 17 6 22 12 0 0 20 40 63 57 19 0 30 24 79
28 0 0 0 0 13 36 85 70 34 21 42 92 258 497 692 804 927 383 364 627 657 551 343 154 0 2 23 17 5 0 0 0 0 1 15 42 39 40 20 10 68 45
2 3 0 0 0 0 51 92 55 1 0 0 0 76 343 717 807 978 870 732 700 678 778 501 316 83 0 4 3 0 0 0 0 0 0 0 15 33 16 20 71 85 68
22 18 0 0 0 0 58 36 0 0 0 0 0 0 192 570 824 938 1058 933 613 700 826 785 477 158 0 0 0 0 0 0 0 0 0 0 0 0 0 0 27 81 89
59 29 0 0 0 0 17 11 0 14 0 0 0 0 5 311 658 827 1065 1006 889 675 768 715 720 214 0 0 0 0 0 0 0 0 0 0 0 0 0 0 0 68 58

GFSSE_con_mlcape_057.txt.gz
CAPE
180 200 475 996 1155 1132 1227 1524 1492 1411 1368 1467 1664 1580 1395 1358 1472 1755 1838 1982 1524 1208 1583 800 645 1038 1107 1528 1520 1192 1601 1661 1544 2190 2210 1632 1684 1530 1872 1611 1527 1320 1336
160 447 863 1362 1298 1375 1453 1684 1660 1740 1846 1672 1605 1722 1763 1891 2014 1939 1897 1583 1178 1704 1195 863 500 1124 924 1325 1328 1405 1770 1818 1762 2147 2114 1799 1809 1398 1322 1338 1301 1389 1477
130 697 749 1538 1326 1427 1553 1734 1804 1888 1839 1846 1825 1895 1700 1540 1788 1887 1614 1381 1380 1672 1086 1029 1052 822 1098 1346 1067 1270 1613 1908 1627 2027 2023 1574 1610 1666 1693 1525 1488 1541 1131
176 742 613 1509 1283 1531 1594 1746 1787 1837 1674 1835 1810 1887 1818 1634 1541 1710 1684 1522 1445 1620 1525 1209 1183 1095 1131 1249 1416 965 1436 1739 1732 1920 1725 1605 1416 1459 1689 1648 1631 1371 1443
420 820 721 1546 1297 1323 1718 1602 1640 1783 1867 1794 1803 1764 1666 1666 1392 1763 1649 1103 996 1263 1244 1288 1211 1202 1019 974 972 1299 1446 1279 1189 1404 1713 1651 1501 1720 1648 1514 1513 1338 1123
448 650 942 1656 1203 1808 1832 1187 1754 1750 1919 1853 1445 1455 1611 1652 1806 1553 1160 1253 1138 1271 1261 1319 1331 1149 1092 1204 854 1147 1033 1025 842 1399 1385 1475 1354 1541 1332 1387 1333 1592 1602
253 741 811 1660 1257 1622 1788 1227 1662 1758 1740 1797 1633 1477 1346 1581 1583 1475 1358 1394 1018 1284 1245 1537 1026 1029 1094 986 1161 1084 1277 716 924 1243 1339 1552 1428 1487 1717 1595 1514 1624 1504
487 503 703 1644 1347 1541 1726 1290 1776 1780 1778 1756 1645 1482 1616 1735 1700 1536 1629 1584 1508 1419 1182 1180 905 1014 1002 1077 1249 1206 1007 509 654 1065 1483 1439 1321 1681 1636 1560 1605 1498 1496
462 524 678 1403 1278 1335 1747 1326 1660 1748 1717 1612 1556 1406 1723 1791 1806 1686 1683 1492 1164 1011 992 919 1054 1058 1038 1050 1048 1188 1210 690 880 1259 1255 1274 1180 1402 1568 1514 1644 1657 1278
252 501 690 1217 722 681 936 1267 1492 1582 1653 1729 1672 1743 1775 1826 1759 1166 1156 1326 1124 920 810 854 898 1015 1125 732 868 978 1109 1096 1065 1146 925 1031 888 1334 1587 1593 1602 1540 1643
258 419 584 919 990 1080 1020 943 1347 1479 1572 1579 1513 1639 1454 1646 1331 989 892 1041 882 1118 1103 964 928 935 1139 1081 845 924 814 846 870 857 1031 1062 1125 1191 1471 1619 1546 1525 1488
289 331 445 722 731 895 742 1042 1258 1227 1105 1212 1433 1374 1246 1323 1303 1002 971 1027 1089 1165 1217 1224 1055 986 882 1026 902 894 907 904 849 775 780 913 1016 1013 1504 1668 1604 1375 1404
280 202 503 716 820 925 849 1198 1148 1224 1185 1282 1309 829 991 1236 1422 1027 1099 587 526 617 670 575 717 759 890 890 967 1011 1067 943 754 584 822 925 879 1344 1586 1516 1479 1441 1325
228 309 431 695 714 923 978 993 1064 1045 1095 1086 970 513 1035 1247 1192 925 814 301 281 707 1095 1263 1355 1363 1260 1121 1171 1053 1020 931 538 558 779 674 926 1060 908 1599 1412 1287 1251
122 549 427 736 666 901 1009 966 971 1069 947 870 755 53 854 1143 1173 746 618 647 992 1018 1070 1156 1012 666 492 604 1160 1207 1049 941 582 467 603 825 928 726 1145 1265 1379 1491 1336
221 325 494 666 584 771 647 882 796 895 796 801 837 150 339 832 946 589 581 948 1122 1108 998 1036 964 604 286 514 1273 1313 1184 841 581 494 922 659 911 712 527 549 806 993 1015
332 377 460 553 473 404 395 436 487 495 520 765 890 645 139 246 494 642 1030 1050 1238 1247 753 1030 1108 658 106 315 1017 1221 1094 986 406 420 784 971 601 665 1114 564 364 320 363
246 372 503 237 208 195 179 132 213 187 379 713 810 689 374 677 927 1088 1060 1132 1226 1117 1171 469 489 506 207 168 649 784 939 752 353 347 522 792 849 729 603 666 873 974 1047
175 348 334 324 145 61 55 80 46 63 237 567 727 791 843 771 529 1223 1203 1316 1258 1323 1229 1117 831 370 211 104 333 560 487 231 132 115 283 501 721 749 768 819 536 467 621
192 289 248 179 124 0 96 102 50 13 174 462 569 667 903 965 1000 974 1236 1187 1047 874 709 954 886 734 370 96 97 151 238 242 264 103 190 210 267 477 399 725 795 672 602
352 242 178 62 24 0 0 23 72 104 227 340 593 763 924 940 1071 1095 1177 1104 782 675 479 595 451 233 355 41 38 92 81 118 278 175 205 214 255 240 233 400 473 468 354
271 294 160 82 22 0 0 109 305 426 516 813 861 801 1070 1034 1211 1247 941 939 767 882 761 710 196 28 81 75 86 96 67 52 49 110 230 286 365 419 358 273 391 500 419
191 310 230 186 177 0 60 189 216 346 322 446 693 886 969 1202 1325 1355 990 1011 695 705 750 781 173 18 47 86 55 88 58 29 25 12 64 253 463 486 553 581 465 424 526
207 179 186 257 243 129 49 90 72 166 299 450 635 723 1009 1188 1262 1485 1395 1016 1010 918 673 1151 773 277 15 40 27 18 23 38 2 11 31 105 369 485 604 530 339 428 531
77 121 46 127 200 171 95 108 146 215 359 547 412 531 803 1036 1195 1430 1488 1328 1159 1007 774 1133 978 767 117 19 20 26 42 27 4 10 7 71 111 334 473 499 328 330 530
25 68 0 13 61 117 138 81 95 144 245 303 313 315 428 773 1014 1225 1410 1508 1630 1379 1178 1237 1289 1006 519 11 0 12 10 10 48 56 32 60 32 168 337 426 369 337 392

GFSSE_con_mlcape_060.txt.gz
CAPE
486 603 684 864 973 1195 1424 1503 1554 1677 1886 2002 2053 1843 1513 1381 1523 1638 2102 1640 1247 1624 923 726 1196 1285 1758 1573 1524 1734 1889 1895 2158 2121 1719 1669 1696 1685 1581 1081 1125 787 1383
479 453 759 1067 1250 1467 1675 1649 1580 1528 1646 1857 1758 1654 1655 1927 2171 2112 1834 1234 1876 1224 962 588 1237 1029 1478 1467 1389 1799 1417 1824 2121 1974 1906 1706 1604 1441 1426 1381 1380 1350 1409
471 469 891 1272 1439 1695 1748 1829 1923 1941 1910 1856 1862 1867 1856 1982 2101 1904 1633 1285 1746 1137 1182 1120 958 1338 1309 1011 1444 1654 1969 1872 1841 1407 1776 1324 1540 1656 1548 1693 1433 1351 1429
501 357 1000 1253 1458 1744 1995 1929 1963 1981 1992 1996 2031 1888 1713 1903 1903 1877 1553 1546 1624 1363 1330 1293 1129 1142 1396 1277 1383 1669 1869 1992 1609 1456 1513 1266 1335 1644 1619 1651 1422 1488 1356
170 161 1185 1436 1501 1871 1815 1857 1808 1839 1918 2045 1939 1828 1675 1628 1795 1451 1554 1327 1441 1386 1462 1401 1290 1172 1215 1384 1249 1710 1596 1517 1480 1450 1651 1565 1285 1632 1661 1557 1519 1489 1261
159 163 1239 1459 1358 1911 1654 1791 1891 1868 1985 1795 1909 1756 1788 1475 1457 1356 1298 1319 1348 1331 1415 1503 1411 1165 1207 1048 1255 1134 1349 1007 1508 1306 1341 1503 1542 1685 1580 1469 1455 1671 1064
76 236 1267 1389 1631 1623 1293 1631 1766 2014 1992 1649 1743 1738 1578 1553 1556 1293 1270 1136 1349 1335 1528 1208 1159 1250 1278 1257 1272 1427 869 930 991 1021 1547 1491 1389 1694 1801 1348 1693 1678 1177
28 102 1100 1308 1721 1739 1314 1819 1720 1816 1736 1754 1656 1585 1646 1789 1627 1748 1725 1637 1450 1334 1439 1078 1081 1034 1154 1337 1352 1380 763 498 632 1294 1367 1334 1569 1712 1735 1677 1656 1630 667
14 111 901 566 1395 1552 1370 1698 1722 1810 1775 1618 1543 1329 1797 1805 1726 1565 1469 1251 1206 1128 908 1141 993 740 802 1143 1470 1391 720 767 1088 1163 1211 927 1421 1747 1699 1715 1585 1210 1398
21 112 693 445 606 1324 733 1626 1688 1791 1795 1693 1406 1531 1780 1617 1142 1036 553 1082 1003 939 905 1079 849 800 933 992 1074 1004 811 842 543 545 725 599 1165 1678 1664 1634 1631 1398 1401
21 90 544 242 425 664 825 1293 1472 1658 1760 1705 1673 1410 1293 789 743 881 752 1056 1148 1053 895 986 861 808 984 1195 1069 839 1099 531 437 519 633 954 1460 1490 1583 1644 1598 1413 1370
11 42 243 182 404 613 430 853 910 855 855 988 987 1148 973 1014 1049 806 794 1001 1212 1294 1301 1165 1050 745 1086 780 790 943 453 462 400 427 621 1019 1408 1541 1631 1546 1462 1388 1418
2 9 152 230 435 519 501 745 807 867 808 1061 1281 1015 983 965 699 885 614 788 652 999 603 896 1009 933 985 752 852 674 771 530 227 411 602 773 1278 1413 1529 1520 1490 1352 1296
1 1 111 232 421 631 617 664 667 635 590 572 840 1369 1239 1103 1055 866 603 654 904 983 1293 982 820 1294 1231 1220 867 684 670 452 295 219 404 936 1180 1153 1524 1502 1470 1352 1486
0 0 54 205 445 727 664 668 560 599 688 708 1089 898 1062 997 991 808 841 934 937 1037 841 859 703 737 891 1176 1091 978 757 563 505 268 355 860 688 1006 1429 1362 1484 1404 1327
0 0 38 206 414 744 745 875 758 828 950 930 859 580 1478 1200 1236 818 1022 1040 901 952 735 666 577 237 357 648 1093 1037 837 550 504 694 268 590 950 611 600 841 1079 1209 1025
0 32 36 198 311 630 791 991 817 775 601 747 847 915 768 1312 1472 1207 1040 1040 958 1178 1247 1022 899 629 54 185 709 992 884 612 403 632 721 665 573 626 720 510 342 316 384
0 42 93 42 120 399 486 724 468 493 609 681 851 868 752 1194 1524 1536 923 990 1262 1065 668 469 97 102 74 123 290 265 501 366 440 545 507 635 537 937 525 780 930 966 1044
40 111 112 41 34 116 275 356 369 559 764 865 990 995 1268 1337 1495 1462 1024 1244 1096 1053 484 414 277 190 77 118 142 247 369 191 225 249 383 468 608 542 433 426 305 371 398
72 177 138 50 0 100 124 206 191 372 675 921 1034 1109 1468 1337 1484 1653 1433 1355 980 549 612 562 648 294 277 198 93 148 148 210 151 131 225 97 190 508 606 783 777 780 206
0 139 184 55 87 140 68 44 138 249 537 777 863 1234 1576 1465 1653 1823 1259 1423 1265 587 412 1015 1124 847 79 39 94 79 58 224 419 155 95 73 125 54 58 257 362 191 534
12 46 215 181 181 273 0 19 39 291 513 671 983 1370 1603 1611 1742 1615 1539 1359 1071 627 878 1117 811 202 323 75 108 65 31 27 72 44 53 134 224 269 309 291 201 398 330
57 148 215 344 256 305 0 0 455 657 892 1097 1139 1054 1424 1683 1768 1743 1853 1555 1200 745 819 911 589 248 108 243 332 177 32 27 7 4 161 154 419 400 391 476 408 304 339
95 201 313 451 454 392 77 0 440 472 225 228 564 560 968 1665 1681 1857 1902 1806 1401 878 1085 742 599 334 298 76 45 17 204 181 24 7 18 190 390 446 575 509 388 508 443
92 194 437 617 694 491 402 56 209 345 0 179 429 886 1227 1783 1802 1688 2025 2022 1574 960 1201 1085 1063 801 68 63 49 4 43 12 26 98 96 184 192 264 352 509 377 348 532
166 114 363 779 918 887 782 298 215 201 116 144 583 715 733 845 1304 1772 1942 2121 2090 1481 1125 1136 1231 1424 1010 684 103 91 14 18 61 97 120 229 197 255 301 397 427 460 463

GFSSE_con_mlcape_063.txt.gz
CAPE
375 612 950 1005 1157 1268 1700 1569 1386 1473 1513 1571 1717 1733 1558 1336 1516 1903 1740 1450 1641 1033 799 1318 1399 1886 1652 1751 1773 1988 2257 2297 2232 1766 1628 1929 1856 1555 1304 1326 928 1079 1441
571 780 875 1163 1350 1602 1679 1725 1661 1469 1452 2028 1835 1575 1523 1950 1831 1372 1366 1898 1322 927 682 1328 1109 1507 1541 1459 1695 1484 1857 1701 2017 2095 2043 1785 1681 1669 1455 1000 1268 1322 1335
616 586 897 1259 1520 1711 1754 1713 1672 1656 1809 1905 1876 1910 2105 1900 2022 1739 1291 1768 1202 1374 1105 1108 1416 1239 1145 1677 1761 1674 2013 1553 1713 1376 1520 1487 1575 1850 1732 1376 1675 1558 1545
481 529 587 1134 1704 1756 1806 1990 1990 2023 2039 2044 1925 1803 1884 1964 1878 1667 1554 1501 1351 1444 1339 1119 1287 1098 1206 1527 1719 1988 1820 1259 1482 1291 1354 1342 1154 1789 1665 1676 1496 1264 922
201 159 761 1191 1723 2030 1950 1997 1988 1947 1894 1880 1929 1832 1786 1575 1516 1532 1453 1470 1437 1594 1298 1346 1216 1306 1531 1179 1714 1561 998 1065 1193 1595 1381 1612 1083 1492 1564 1602 1473 1329 1298
271 208 1036 1390 1805 1808 1878 1861 1868 1911 1823 1956 1888 1782 1637 1555 1532 1451 1488 1436 1372 1503 1459 1383 1330 1236 1175 1287 1180 1147 1051 1237 1532 1584 1529 1441 1495 1710 1727 1638 1628 718 1634
244 256 1048 1534 1731 1728 1864 1865 1831 1850 1577 1783 1699 1724 1609 1597 1367 1366 1346 1462 1407 1426 1198 1256 1344 1439 1265 1372 1397 581 880 1180 1561 1521 1399 1495 1488 1795 1597 1765 1636 1395 1428
39 193 418 1562 1543 1505 1561 1697 1845 1753 1741 1675 1687 1582 1523 1635 1901 1805 1622 1416 1358 1477 1190 1142 1158 1300 1382 1371 1390 362 640 935 1157 1409 1403 1271 1503 1838 1800 1625 1440 875 809
47 190 472 1135 1403 1480 1652 1664 1758 1765 1800 1833 1602 1735 1693 1631 1623 1536 1346 1330 1180 910 1152 870 886 1201 1354 1551 1017 487 580 943 1127 1107 956 869 1636 1822 1774 1557 1037 1367 1497
90 108 189 570 1092 561 1405 1586 1690 1791 1697 1495 1372 1641 1576 1246 765 664 1061 1148 1062 920 1128 916 956 1086 1262 1331 539 437 724 885 636 1044 648 1001 1778 1745 1651 1691 1485 1473 1324
57 120 51 296 796 495 1192 1500 1634 1802 1733 1430 1394 1338 878 749 1020 1056 621 1232 1053 903 940 816 848 1126 1027 856 497 734 1104 533 568 680 811 1378 1670 1663 1679 1608 1482 1395 1489
36 72 88 179 299 402 442 1040 1142 1096 802 948 663 1288 1257 1042 1136 498 618 1129 1212 1076 888 735 795 298 1010 938 937 963 1057 399 350 644 853 1402 1588 1706 1648 1600 1463 1372 970
20 80 60 118 177 168 484 848 546 956 591 872 780 779 521 469 573 391 801 794 908 1095 704 712 758 945 1230 765 774 947 222 143 393 387 681 1255 1343 1668 1550 1474 1323 1246 1357
12 42 47 99 276 298 182 488 527 486 295 459 797 1062 1074 1048 1001 859 933 845 916 773 685 703 775 788 861 512 494 336 372 170 161 315 795 1304 1352 1491 1499 1555 1409 1439 1380
6 21 36 97 317 613 659 750 459 212 211 644 870 1047 1005 1157 701 866 665 538 955 697 427 293 334 670 882 769 804 504 306 221 254 242 303 622 927 1314 1411 1399 1418 1293 1178
3 10 27 138 400 554 548 664 376 207 1022 526 803 772 1445 1195 965 777 856 644 673 448 732 715 621 411 579 609 654 762 412 434 655 645 329 569 360 419 721 975 1347 1210 920
0 2 11 132 355 564 882 681 332 432 609 631 1054 1306 1253 1488 1435 1272 976 390 717 867 1097 625 108 36 125 369 231 609 221 379 537 757 600 759 658 402 290 277 280 301 383
1 0 3 9 277 498 753 691 557 390 544 558 658 1102 1082 1421 1459 1138 821 743 617 547 458 414 92 282 66 154 232 297 167 187 439 434 643 802 975 1058 753 585 557 552 700
0 0 1 9 167 419 686 606 692 668 698 651 863 1000 1319 1589 1586 1471 969 1308 944 1024 268 179 7 140 72 27 62 83 300 42 325 274 248 482 533 718 1072 331 254 378 358
0 0 0 35 161 422 631 607 466 574 611 703 855 1494 1518 1471 1548 1621 1168 1119 976 375 219 539 150 415 421 42 162 97 120 61 50 108 59 91 183 301 662 1082 793 515 273
0 0 25 62 394 275 364 251 208 406 496 736 782 1243 1306 1452 1548 1755 1407 1288 1180 762 696 295 356 156 26 16 58 48 47 38 60 73 45 58 2 41 23 288 286 583 721
8 55 141 194 503 359 215 209 180 334 432 470 444 1145 1364 1248 1608 1459 1514 1377 1179 764 840 913 860 223 22 31 20 66 37 44 146 71 7 16 124 171 259 255 213 208 151
33 85 302 421 539 503 159 160 200 342 597 459 851 984 1322 1482 1656 1683 1745 1027 1185 1184 832 995 944 674 164 52 289 44 94 22 14 0 0 78 383 385 384 413 392 314 364
31 69 337 529 661 635 334 0 198 279 250 269 572 460 935 1406 1505 1748 1936 1878 1350 1155 1011 1055 702 701 380 66 11 67 73 90 310 2 31 133 331 384 529 575 670 610 499
38 101 123 701 836 560 505 154 116 484 134 186 255 1065 1007 1578 1516 1417 1872 1685 1770 1170 1185 1020 1307 1048 177 480 14 0 0 0 112 264 361 252 256 334 512 674 435 445 859
124 93 288 764 1076 1064 851 160 518 321 432 24 89 892 519 1161 1290 1378 1548 1782 1597 1443 1544 1425 1336 1228 1310 391 421 33 0 11 15 100 118 150 325 342 317 340 401 418 479

GFSSE_con_mlcape_066.txt.gz
CAPE
345 414 867 1095 1321 1232 1571 1416 1243 1407 1529 1502 1610 1478 1184 1225 1671 1675 1533 1543 942 834 1283 1382 1868 1648 1788 1855 2056 2363 2327 1775 1664 1799 1716 1533 1528 1229 1206 1036 963 1173 1302
378 620 1065 1349 1357 1557 1547 1509 1343 1548 1528 1417 1696 1483 1468 1888 1528 1384 1639 1270 809 784 1339 1108 1502 1586 1563 1631 1669 1967 2031 1927 2160 2007 1794 1816 1641 1219 1143 1311 1173 1326 1331
641 954 1014 1121 1437 1557 1781 1596 1617 1925 1961 1870 1793 1889 2110 1792 1463 1318 1590 1278 1498 930 1202 1437 1222 1435 1747 1827 1713 1956 1717 1329 1293 1042 1454 1544 1606 1576 1706 1599 1611 1448 1296
703 892 988 993 1347 1593 1663 1755 1681 1676 1792 1854 1819 1945 1625 1525 1533 1532 1468 1282 1562 1282 1152 1448 1303 1278 1663 1712 1907 1550 1317 1404 1184 1422 1338 1017 1267 1596 1498 1248 985 1215 1260
316 515 840 1328 1476 1655 1785 1817 1969 1985 1903 1968 1813 1734 1474 1523 1572 1386 1382 1496 1474 1415 1386 1319 1546 1612 1273 1720 1515 1347 1292 1042 1271 1332 1383 1051 777 1578 1289 1402 1536 1366 1086
34 416 916 1448 1706 1869 1550 1860 1968 1933 1990 1646 1758 1677 1649 1655 1589 1610 1515 1387 1580 1483 1365 1421 1322 1311 1361 1208 1199 1203 1191 1275 1373 1451 1137 1406 1611 1536 1433 954 1096 1513 1523
190 537 888 1621 1627 1695 1769 1756 1918 1771 1868 1800 1712 1656 1587 1506 1479 1497 1509 1405 1379 1309 1355 1469 1462 1331 1396 1268 747 900 1209 1619 1324 1402 1300 1367 1497 1421 1590 1170 1576 1463 730
132 298 971 1489 1597 1710 1719 2019 1759 1728 1779 1526 1704 1683 1656 1789 1601 1388 1345 1386 1512 1255 1196 1309 1317 1315 1298 947 491 675 981 1266 1464 1331 1323 1488 1405 1686 1652 892 1412 503 246
19 153 803 1004 1482 1611 1717 1796 1641 1745 1695 1766 1634 1783 1790 1686 1644 1579 1482 1111 1022 1126 913 1023 1298 1338 1367 747 181 521 827 1214 1280 1103 1096 1480 1431 1700 1508 887 1241 1441 1262
18 186 772 663 756 1260 1496 1700 1779 1762 1676 1664 1846 1743 1186 1072 1015 1156 1095 1105 885 1152 919 1067 1241 1115 863 478 465 822 1054 1490 625 822 1259 1481 1434 1544 1527 1268 1447 1435 1451
5 36 179 440 417 1115 1312 1633 1718 1655 1347 1301 1577 1091 731 1102 1238 1028 1117 1003 933 1069 1017 1143 1217 1239 985 643 581 763 1092 1343 788 954 1280 1505 1625 1684 1576 1484 1370 1448 1198
15 0 41 554 482 1141 752 1303 1366 1208 1153 1094 1234 1005 1079 682 737 680 975 1103 839 1004 1083 538 0 764 1164 1067 865 864 1313 827 979 1013 1220 1627 1675 1610 1567 1407 1223 867 786
24 27 71 476 325 317 445 1320 1322 1043 1244 1028 953 900 1086 977 634 357 557 797 847 950 768 600 600 434 820 908 1267 1281 387 570 713 890 1016 1540 1711 1458 1383 1304 1270 1278 1086
28 38 93 51 200 365 468 879 617 957 1100 757 848 1038 1117 363 106 697 644 1125 643 800 1025 573 840 332 215 580 783 653 471 560 493 603 1075 1366 1499 1343 1474 1298 1372 1320 1106
7 19 58 0 612 163 347 184 463 396 331 891 613 845 675 1074 641 828 325 473 380 914 586 352 1086 803 512 747 633 491 213 740 393 613 661 753 1093 1327 1351 1276 1068 1157 1111
2 28 8 0 415 439 512 776 365 336 701 952 768 1128 434 1183 963 1138 301 580 181 502 308 786 282 867 269 453 565 294 559 717 806 303 150 263 772 1003 1027 1352 1359 1096 951
1 27 0 11 351 540 389 821 217 673 817 360 1113 1245 1214 658 1234 970 445 389 137 1021 108 311 711 485 461 513 472 493 373 708 460 529 440 268 164 196 284 354 699 472 328
1 81 0 0 201 426 589 702 458 500 638 865 1142 1146 1286 910 1558 597 584 202 667 488 615 56 453 547 356 118 392 44 261 292 727 479 848 881 593 576 274 202 67 88 297
0 16 0 50 265 288 475 284 519 657 811 541 973 1252 1233 1295 1486 1105 390 791 142 820 970 239 5 279 241 240 166 205 293 349 330 386 736 866 1107 1114 882 389 399 316 646
4 0 0 288 426 366 1012 725 571 592 417 862 818 1316 1518 1480 1448 634 921 1019 1062 115 168 676 44 496 87 59 70 213 88 277 120 291 99 762 796 948 1270 604 530 401 366
5 0 0 195 645 516 714 730 511 401 572 372 553 1194 1531 1497 1503 528 906 882 1185 196 66 695 760 314 28 59 57 148 192 19 53 298 226 194 15 541 784 1416 1017 837 231
6 0 151 122 680 406 935 692 373 572 534 526 743 1444 1139 1475 1663 1419 1158 1188 702 1074 895 939 18 122 20 40 51 213 36 79 310 78 55 94 149 130 141 255 440 478 897
0 46 199 161 731 448 582 429 519 705 968 570 1458 1349 1433 1323 1601 1482 1371 1249 963 786 874 1123 1143 179 60 148 64 211 164 8 225 2 0 233 121 368 620 516 437 436 332
46 238 230 510 1007 372 563 203 298 301 379 371 1203 1277 1183 1637 1651 1658 1674 1678 1143 993 522 893 799 855 35 364 356 309 155 116 505 4 55 406 271 503 499 760 662 579 556
118 245 396 518 940 551 366 582 361 302 387 907 350 1169 1442 1487 1763 1868 2060 1730 1124 1195 866 1255 985 904 1057 455 69 17 28 52 172 175 338 343 343 529 758 523 864 943 798
98 180 536 551 702 728 267 475 446 166 750 414 267 1011 1612 1591 1598 1782 1935 1423 1667 1347 1196 1417 1444 970 1287 1067 834 221 0 2 20 192 525 486 417 415 704 844 528 453 1031

GFSSE_con_mlcape_069.txt.gz
CAPE
119 9 673 973 1268 1327 1397 1319 1236 1705 1634 1843 1456 1118 1383 1896 1639 1805 1443 782 1037 1401 1375 1892 1705 1799 1976 1911 1711 1946 1996 2042 1951 1845 1764 1441 1291 1299 1407 1245 1055 936 1254
158 179 958 1328 1251 1611 1451 1197 1578 1661 1606 1781 1485 1425 1933 1648 1612 1814 1192 816 1156 1283 1089 1587 1617 1733 1696 1912 2114 1958 2181 2207 2128 2006 1778 1487 1287 1288 1343 1292 1292 1144 1135
298 457 1115 1314 1344 1415 1317 1562 1845 1822 1848 1667 1542 1849 1802 1584 1670 1631 1419 1531 929 1542 1347 1348 1685 1843 1764 1863 1874 1882 1546 1181 1409 1833 1379 1373 1476 1476 1475 1293 1129 1487 964
603 672 852 993 1371 1579 1483 1522 1753 1909 1851 1672 1862 1679 1739 1478 1654 1560 1550 1630 1192 1280 1348 1351 1420 1633 1830 1629 1923 1549 1383 1134 1273 1499 1161 959 1248 1258 965 1222 995 1333 1318
556 767 788 1035 1280 1422 1678 1842 1797 1875 1669 1740 1710 1711 1540 1471 1559 1308 1722 1381 1508 1287 1417 1440 1415 1519 1693 1657 1387 1219 1008 1249 1297 1058 634 1069 1291 1382 1769 1534 1385 767 1279
625 631 1359 1107 1637 1589 1730 1701 1701 1870 1841 1784 1802 1644 1699 1612 1607 1545 1485 1582 1363 1348 1395 1311 1247 1430 1181 1332 1428 1270 1246 1040 1281 1229 1404 1303 1375 1521 1142 1365 1447 1415 1581
307 860 1356 1588 1653 1660 1710 1750 1872 1905 1820 1703 1728 1640 1568 1530 1565 1477 1295 1506 1293 1510 1565 1333 1256 1247 1146 1023 1174 1247 1219 1278 1107 1086 1169 1158 1275 1278 1179 1531 1440 514 120
179 946 1280 1482 1629 1741 1659 1643 1700 1719 1747 1689 1714 1527 1556 1348 1369 1330 1265 1557 1338 1304 1365 1306 1274 1116 827 869 815 1072 1177 1346 1257 1099 1015 1172 1325 1393 1362 1392 250 573 1402
312 868 1101 1433 1399 1659 1656 1614 1730 1744 1654 1759 1673 1871 1876 1820 1584 1360 1173 1253 1158 1039 1175 1322 1310 1011 575 664 602 760 1261 1296 985 1028 1134 1298 1445 1124 713 879 881 1156 1089
469 715 456 1277 1161 1392 1561 1540 1598 1678 1784 1679 1748 1389 1136 1285 1216 1245 1065 1112 1067 987 1094 1197 1139 916 586 651 654 1001 1186 1089 1172 1208 1112 1398 1365 1248 1307 1498 1588 1519 1603
232 574 150 897 974 1143 1226 1602 1740 1613 1674 1757 1504 841 932 942 978 1120 938 1101 1080 999 1142 1089 883 1083 773 672 862 970 995 920 922 1063 1392 1425 1546 1461 1473 1403 1385 1139 893
206 283 56 413 892 714 1289 1194 1163 1103 974 544 514 463 795 859 475 713 1026 1018 1032 968 913 246 440 727 1071 900 860 878 1109 806 658 982 1355 1445 1692 1578 1377 1254 1397 687 1117
5 5 81 428 564 666 302 916 713 703 867 944 844 723 881 556 305 393 736 838 825 901 546 165 182 432 621 780 952 881 962 695 780 1193 1503 1470 1537 1302 1344 1394 1291 1313 1148
0 36 115 156 559 412 395 920 830 753 1029 863 374 779 424 69 293 606 540 645 311 431 463 164 131 259 351 533 598 361 508 540 532 895 1536 1362 1329 1232 1153 1121 1241 1160 954
2 34 30 98 243 170 442 877 690 662 891 709 593 463 529 543 263 620 526 83 206 552 516 377 415 264 465 429 633 473 392 242 223 623 1008 1104 1088 1457 1310 1342 1235 1165 1050
17 13 2 205 156 161 232 248 133 461 677 537 366 0 300 587 860 361 237 210 193 507 568 495 482 380 291 475 329 502 336 338 179 108 277 709 1023 1282 1303 1261 1189 1033 861
16 4 1 179 75 379 193 317 273 264 571 687 692 252 377 519 765 656 533 376 80 610 192 489 866 732 388 349 493 278 592 339 152 65 0 270 715 675 1016 1280 1266 753 583
1 0 0 116 508 149 121 944 490 285 206 834 946 947 841 836 578 623 265 201 868 974 486 111 371 378 328 498 180 368 476 487 432 364 307 114 79 49 161 237 368 132 133
0 0 0 0 279 143 220 428 266 162 629 934 939 1114 958 1320 989 554 285 470 253 598 438 298 71 235 300 351 74 219 484 470 523 553 685 709 416 416 49 120 66 102 337
4 0 0 0 153 73 191 47 398 455 503 855 1039 797 1267 1164 832 736 538 744 203 285 251 341 100 127 72 127 286 205 395 254 369 334 631 890 745 795 630 478 214 248 302
12 0 0 10 136 111 125 11 378 467 289 675 1156 1107 1260 1267 545 0 664 967 758 45 116 239 659 55 49 112 152 88 119 187 86 203 479 605 746 951 907 894 483 468 396
3 0 0 25 141 333 339 215 319 320 415 321 358 854 1162 1400 891 648 743 998 609 421 528 491 79 35 16 12 125 161 86 3 167 228 227 358 141 594 744 853 779 685 657
0 0 0 219 178 279 328 184 346 639 491 511 472 716 1092 1518 1343 1244 883 1011 660 719 660 739 173 33 17 24 102 80 52 5 200 3 13 72 55 284 363 545 534 523 728
0 0 0 265 191 264 216 47 176 181 468 328 560 1138 1098 1071 1363 1213 1022 910 855 702 826 814 821 375 108 120 441 224 157 47 247 0 0 62 125 498 403 428 402 432 344
0 0 0 224 292 109 493 43 49 110 196 475 654 945 1188 1185 1273 1466 1325 1352 759 757 592 538 880 1080 720 294 552 39 131 3 10 157 46 209 279 256 488 380 599 563 467
9 0 37 117 240 105 55 325 0 22 41 488 641 854 835 1379 1489 1435 1744 1404 778 887 1048 895 1377 868 830 813 868 645 11 0 12 67 496 309 238 262 492 585 463 704 601

GFSSE_con_mlcape_072.txt.gz
CAPE
4 254 859 1112 1283 1258 1260 1263 1719 1906 1647 1489 1187 1687 2017 1593 1860 1176 845 1368 1390 1759 1787 1958 1983 2138 2164 2137 1964 2006 1963 2040 2019 1649 1470 1440 1599 1462 1245 1058 1245 1149 1023
0 400 1037 1364 1451 1468 1282 1476 1510 1574 1638 1452 1463 1836 1661 1736 1803 1065 791 1030 1144 1321 1787 1617 1812 1905 1764 2055 2351 2308 2198 2253 2102 1801 1681 1777 1653 1342 1212 1024 971 1215 971
0 526 1199 1390 1617 1466 1535 1735 1671 1717 1749 1480 1947 1788 1623 1814 1667 1544 1202 1546 1398 1567 1519 1582 1739 1760 1647 1860 2051 1836 1879 1826 1992 1702 1633 1281 1414 1295 1061 1412 1058 823 1252
64 823 1250 1458 1537 1424 1679 1960 1869 1889 1719 1914 1863 1727 1520 1821 1586 1643 1374 1060 1499 1510 1205 1706 1741 1715 1755 1644 1706 1573 1360 1502 1937 1382 1066 1105 869 1520 944 1090 1179 1471 1170
368 812 1079 1349 1549 1562 1558 1612 1754 1793 1823 1642 1806 1843 1502 1702 1497 1480 1598 1519 1443 1472 1459 1484 1606 1698 1750 1536 1540 1349 1417 1539 1467 834 993 1123 1390 1368 1585 984 1294 939 1340
508 606 1243 1439 1440 1586 1884 1782 1744 1714 1729 1730 1742 1762 1596 1489 1536 1552 1547 1508 1381 1400 1526 1268 1613 1590 1496 1421 1317 1455 1410 1529 1099 1120 1054 1234 1419 1603 1537 1330 1388 1104 285
488 965 1320 1609 1682 1764 1521 1659 1784 1810 1771 1798 1795 1817 1656 1506 1534 1513 1550 1466 1613 1510 1311 1362 1271 1239 1620 1501 1279 1275 1581 1572 1193 1094 1108 1339 921 1308 1531 1324 534 60 348
733 1241 1504 1572 1724 1744 1807 1866 1828 1779 1746 1760 1685 1620 1512 1439 1414 1298 1492 1418 1480 1494 1463 1359 1211 1314 1352 1333 1486 1273 1588 1470 979 808 934 1189 1200 1657 1413 283 784 1016 831
691 1031 1298 1442 1585 1708 1593 1704 1686 1751 1820 1765 1620 1579 1435 1267 1366 1459 1533 1431 1331 1302 1256 1275 1203 1061 1174 1032 1089 1374 1650 1288 820 1018 1149 1199 1006 1245 534 409 1249 825 678
423 795 1055 1216 1385 1478 1504 1736 1724 1819 1792 1726 1772 1348 1584 1468 1349 1114 1293 1261 1170 1191 1224 1221 1256 1142 798 833 1231 1424 1664 1222 912 1072 1324 1348 961 1413 1554 1518 1416 1479 1403
492 653 844 924 1201 1208 1295 1642 1828 1755 1569 1485 1404 1341 1181 967 960 778 1129 1210 1148 1208 1246 1221 854 803 785 883 1068 1256 1142 1121 853 1091 1313 1334 1311 1402 1515 1263 1646 1390 1073
141 153 529 650 799 1031 1381 1589 1395 1443 752 760 903 911 779 810 658 674 1130 1170 1127 1146 799 804 897 555 894 613 630 1011 943 860 901 1167 1274 1586 1452 1399 1382 1433 1020 747 1268
0 0 361 470 621 694 1028 1119 839 597 412 272 296 517 615 446 546 627 773 812 894 527 66 127 208 424 630 719 752 820 761 568 851 1221 1507 1702 1568 1413 1259 1001 864 1367 1203
30 0 197 477 309 415 408 652 516 551 591 619 492 546 328 150 78 279 249 109 252 325 226 77 204 332 450 636 562 673 747 583 763 1054 1378 1509 1333 1292 1393 1279 1327 1052 1242
0 0 110 341 295 172 140 362 521 593 765 607 561 351 34 9 176 416 336 131 154 407 392 270 291 373 403 514 580 564 560 444 602 1030 1229 1199 1290 1174 1183 1232 1336 1165 1025
21 37 115 183 297 145 304 459 517 529 741 384 196 285 273 465 243 328 201 11 116 318 304 325 341 392 410 464 346 412 257 63 239 576 839 897 1077 1249 1126 1183 1154 1095 1027
47 64 0 157 195 102 391 314 489 475 594 367 51 68 276 492 379 28 106 2 112 110 360 350 404 525 436 335 289 246 115 10 46 53 173 355 839 787 1082 1176 1156 875 811
77 33 56 158 217 154 244 220 284 304 465 352 77 145 284 664 526 245 216 49 192 109 109 400 480 479 298 375 230 308 221 88 0 8 39 255 442 407 728 734 925 761 506
0 52 99 194 150 99 528 326 161 263 438 569 499 556 400 704 455 328 98 431 247 380 211 11 315 212 160 320 170 285 296 192 120 163 112 78 155 102 136 301 399 312 251
0 59 184 165 81 72 317 188 176 171 526 677 807 829 785 758 407 253 174 289 168 214 352 58 128 94 123 152 99 130 305 320 358 315 412 462 341 322 146 59 148 179 231
0 0 105 136 103 20 189 136 264 410 591 882 713 651 929 847 352 398 474 614 477 44 131 64 66 32 78 80 100 91 131 211 143 214 383 656 771 650 649 525 437 265 309
0 0 0 33 39 28 127 63 186 323 447 594 742 842 964 789 36 132 344 440 173 14 354 282 48 9 21 23 112 19 52 14 93 77 159 373 519 757 855 806 819 549 491
0 0 0 0 0 89 91 40 206 264 283 591 586 647 981 1075 483 542 542 456 539 102 302 157 40 3 0 0 53 75 15 1 91 18 54 270 379 239 578 769 866 720 586
0 0 0 57 46 59 78 43 156 371 290 271 311 356 798 1256 898 859 672 854 494 427 353 406 309 15 4 3 146 96 53 8 182 0 0 54 100 90 335 379 540 659 616
3 0 53 81 105 166 109 36 139 178 396 249 330 523 666 1025 1212 962 786 817 673 481 537 611 820 585 120 61 293 5 79 26 3 64 120 8 95 132 317 224 331 311 372
0 0 92 95 108 180 147 47 28 156 136 372 372 669 807 804 1028 1025 950 877 620 534 407 278 659 775 828 543 686 619 15 0 17 66 268 249 137 184 158 283 318 371 369

GFSSE_con_mlcape_075.txt.gz
CAPE
0 300 936 1200 1393 1516 1667 1833 1513 1384 1124 1085 1685 1779 1616 1682 1253 1121 1398 1429 1875 1836 2025 2104 2140 2208 2018 2017 1876 1964 2059 1936 1827 1798 1781 1576 1460 1310 1379 1311 830 1073 1002
0 461 1090 1319 1427 1538 1596 1904 1919 1432 1254 1319 1939 1828 1920 1809 968 789 976 1277 1722 1733 1746 1951 1988 1920 2148 2354 2075 2233 2023 1830 1920 1998 1864 1476 1161 759 905 1007 1064 723 791
9 637 1194 1397 1576 1602 1795 1867 1873 1777 1499 1741 2049 1750 1894 1658 1476 1269 1793 1348 1306 1741 1593 1788 1917 2017 2131 2149 2245 2115 2110 2117 2015 1795 1493 1111 1296 1156 1248 998 1245 436 503
157 831 1170 1444 1535 1696 1830 1807 1884 1817 1678 1922 1880 1676 1704 1696 1583 1137 1414 1737 1519 1525 1871 1855 1789 1795 1979 1938 1792 1703 1831 1915 1666 1471 1047 1273 1223 1199 1032 1345 1126 1232 250
379 998 1415 1363 1521 1753 2034 1927 2027 1885 1959 1896 1804 1557 1904 1630 1578 1597 1433 1518 1636 1601 1679 1873 1658 1843 1764 1616 1604 1672 1792 1805 1519 1010 870 778 948 1487 1204 1251 989 1174 562
605 1039 1489 1617 1634 1622 1570 1791 1940 1814 1797 1835 1710 1508 1623 1509 1548 1502 1490 1395 1422 1344 1448 1642 1685 1736 1782 1747 1805 1775 1874 1521 1182 1027 1270 1560 1239 1442 1115 1147 496 614 982
570 1070 1508 1602 1475 1750 1944 1884 1802 1732 1754 1767 1751 1638 1544 1551 1612 1523 1415 1561 1375 1230 1366 1451 1498 1618 1518 1634 1697 1706 1587 1520 984 1049 1213 867 1155 1702 1701 787 128 1067 605
594 1136 1303 1663 1853 1651 1681 1854 1714 1758 1640 1752 1728 1606 1517 1550 1539 1558 1474 1430 1502 1205 1154 1191 1348 1418 1347 1404 1471 2051 2007 1563 1054 1085 849 887 1581 1486 589 492 510 442 853
927 859 1423 1515 1587 1861 1720 1786 1674 1756 1752 1754 1694 1548 1449 1469 1329 1574 1586 1457 1321 1213 1132 1159 1322 1263 1387 1405 1500 1790 1756 1068 791 1021 1090 1089 1656 570 394 1677 1374 1321 1382
675 1109 1060 1422 1587 1451 1707 1697 1702 1872 1752 1674 1569 1458 1296 1358 1414 1356 1349 1354 1248 1183 1110 1157 1256 1223 1007 1453 1432 1882 1663 1179 925 1066 1101 695 897 988 981 1463 1367 1241 541
745 803 1052 1142 1278 1231 1490 1396 1779 1738 1623 1598 1365 1564 1464 1215 945 988 1306 1294 1329 1222 1130 1189 840 814 1007 1360 1602 1843 1292 816 889 1052 1183 1054 1605 1625 1596 1629 1593 1344 690
410 702 844 953 956 1106 1470 1591 1448 1344 1248 1290 1223 1047 818 795 659 982 1328 1269 1359 1480 975 789 548 743 686 661 1388 1318 981 764 835 1004 1176 1388 1600 1492 1283 1400 694 917 1073
295 556 549 725 812 977 1317 1238 1072 824 808 857 864 671 675 597 818 984 1119 979 1022 426 466 517 497 432 592 483 726 782 844 698 815 1021 1289 1326 1350 1296 1208 1299 765 1309 1142
64 237 369 508 560 799 1103 879 749 607 448 378 479 510 403 222 351 374 414 478 426 177 88 143 321 352 440 576 661 656 570 508 689 968 1403 1485 1335 1279 1008 1260 1307 1048 1191
0 115 196 325 309 441 622 664 644 489 485 483 412 470 172 57 77 129 90 29 105 318 380 256 319 305 513 541 517 651 614 452 581 692 1113 1325 1262 1300 1237 1200 1332 884 1073
0 0 193 273 181 351 269 250 316 446 660 645 557 206 58 131 270 357 223 96 161 342 397 365 365 428 425 334 402 498 538 321 443 689 808 1163 1268 1095 1174 1336 1212 1177 990
0 0 120 181 181 129 112 210 386 589 624 517 359 169 265 183 276 343 238 1 71 234 263 386 397 453 446 301 324 435 263 44 218 522 628 676 1125 1219 1186 1131 1168 933 829
49 29 92 248 215 117 150 362 421 518 592 460 191 148 387 559 285 139 105 77 127 110 306 363 414 390 313 336 214 183 28 0 51 75 94 168 467 689 952 1121 1060 1014 687
88 57 52 189 235 158 239 403 235 420 512 505 188 114 325 546 453 137 204 163 261 131 134 167 407 267 201 319 193 220 174 74 0 18 11 47 181 312 219 502 881 996 802
81 106 58 173 229 189 317 234 195 260 399 472 288 254 380 650 467 263 98 355 318 154 134 12 272 181 76 245 243 249 243 172 124 79 102 66 81 155 61 48 80 345 415
22 92 22 148 141 337 244 260 226 253 420 608 680 705 579 742 459 260 222 312 239 94 185 45 115 63 60 40 55 52 30 205 227 321 333 414 496 456 380 390 196 179 177
9 30 91 165 92 264 203 282 261 297 414 565 695 828 820 755 400 442 437 511 437 0 120 127 81 25 15 16 73 7 20 3 111 145 176 287 402 631 690 638 673 630 596
0 0 66 40 39 87 163 189 230 333 421 583 660 715 899 891 152 95 446 425 204 19 181 186 27 13 13 9 36 11 2 0 8 50 38 85 211 309 452 598 681 722 720
0 0 0 68 47 39 83 115 148 308 338 488 450 667 939 1091 712 413 469 522 513 109 325 165 33 9 0 0 58 47 14 0 114 0 0 0 28 192 218 243 339 615 678
0 0 0 12 15 0 0 67 59 166 241 253 492 507 518 940 1128 829 731 704 542 459 340 403 474 28 11 8 89 3 40 38 0 0 119 1 7 88 34 222 326 324 342
0 0 0 0 0 0 0 11 28 47 159 287 273 363 452 718 1176 1087 906 738 826 555 490 488 678 596 543 82 292 428 83 3 0 122 99 256 82 59 100 134 217 280 270

GFSSE_con_mlcape_078.txt.gz
CAPE
7 450 1113 1405 1566 1769 1900 1546 1499 1366 1553 1826 1612 1670 1577 1268 1383 1415 1653 2126 2058 2031 2041 2131 2151 2109 1958 1601 1673 2035 1922 1803 1789 1796 1621 1607 1484 1273 925 1148 1085 764 615
28 605 1219 1412 1581 1694 1939 1627 1488 1332 1263 2118 1807 2021 1850 862 842 1310 1440 1873 1852 1892 2008 1947 2246 2157 1721 1942 2018 2098 1949 1860 1710 1662 1139 841 942 1027 1089 928 853 914 706
115 841 1272 1455 1629 1661 1936 2039 1657 1398 1210 1850 1691 1861 1613 1386 1311 1654 1257 1487 1944 1692 1964 1888 2112 2262 2090 2247 2139 2147 1876 1873 1847 1506 1556 1162 1366 1194 1256 823 365 1259 1171
306 926 1156 1507 1684 1808 1888 1876 1782 1442 1742 1835 1729 1867 1811 1874 1393 1940 1734 1772 1760 1848 1962 1874 1961 2098 2076 2155 2048 2075 1934 1685 1742 1368 1070 1219 1113 1145 1336 1259 595 206 317
348 850 1242 1587 1682 1799 1785 1749 1779 1542 1905 1922 1767 1757 1800 1808 1640 1358 1755 1581 1616 1924 1949 1764 1864 1958 1699 1821 1671 2047 1846 1689 1267 862 837 929 1476 1408 1212 1262 730 1103 1073
458 964 1584 1557 1689 1921 1852 1909 1816 1744 1806 1545 1662 1769 1721 1760 1770 1802 1690 1601 1627 1654 1852 1765 1836 1890 1763 1711 1471 1581 1706 1552 1174 1331 1357 1284 847 1212 871 605 715 647 559
559 1151 1405 1561 1671 1566 1615 1811 1788 1771 1721 1376 1664 1669 1691 1740 1693 1586 1566 1613 1454 1431 1698 1642 1605 1642 1462 1376 1365 1657 1831 1393 1020 1154 1089 1341 1409 1486 732 162 1534 412 1034
522 1137 1405 1519 1517 1726 1799 1783 1744 1799 1425 1532 1462 1528 1625 1530 1619 1629 1530 1350 1138 1249 1342 1458 1722 1417 1179 1726 1863 1922 1820 1431 1188 806 931 1464 1412 705 316 344 454 1073 1266
821 979 1139 1439 1523 1635 1646 1776 1730 1677 1805 1695 1710 1596 1471 1525 1468 1325 1224 1417 1139 844 1273 1580 1531 1681 1725 1820 2014 2081 1663 1193 959 923 1217 1582 558 478 1531 1589 1580 1297 820
723 927 1167 1402 1425 1391 1561 1704 1710 1765 1713 1679 1494 1516 1569 1414 1173 1179 1216 1321 1113 1051 1334 1477 1580 1381 1637 1688 1811 1816 1461 1160 1023 1083 915 1218 664 668 1311 1241 1106 442 1109
467 836 1002 1248 1298 1308 1367 1599 1722 1758 1575 1568 1411 1560 1465 913 1028 1202 1389 1368 1164 1139 1407 1292 1155 1164 1711 1745 1955 1865 1033 859 970 1061 703 1090 1567 1544 1401 1631 1531 668 1336
348 591 866 863 944 1116 1088 1450 1389 1417 1405 1203 1203 965 967 741 840 1263 1451 1527 1328 1250 1211 1115 1074 1366 1109 1398 1722 1846 858 762 917 987 1020 1115 1534 1425 1649 1137 675 700 945
244 495 794 685 789 1077 1207 1096 997 1036 1086 1004 861 702 623 470 905 1023 1155 1173 941 919 835 810 640 576 548 612 1010 901 891 667 792 948 1288 1400 1298 1006 1418 667 1101 1228 911
119 355 532 579 605 913 1097 727 698 648 723 729 659 544 370 302 557 810 839 740 153 128 125 218 377 463 577 632 767 727 800 574 738 959 1272 1311 1323 1201 1096 897 1415 1132 1155
33 131 245 460 369 678 736 514 566 463 388 349 359 460 227 122 118 316 347 278 342 412 254 351 416 444 593 636 676 677 638 523 621 861 1179 1526 1256 1374 1234 1305 1182 891 1101
9 6 186 310 238 445 449 312 306 294 363 473 497 425 152 58 129 232 170 79 179 461 488 464 473 605 552 444 564 697 677 522 506 644 777 1254 1310 1248 1244 1239 1270 1140 992
0 0 63 157 170 155 211 209 238 290 437 540 488 282 108 140 256 422 359 186 169 289 347 440 503 558 422 477 451 571 603 356 375 611 725 889 1331 1490 1488 1338 1246 1133 940
0 0 0 187 104 74 2 45 97 275 459 453 384 232 125 338 221 264 247 63 181 259 387 412 474 502 313 380 372 420 216 47 139 232 448 504 579 746 892 1347 1364 1261 1107
0 0 0 103 0 25 1 77 161 320 350 412 261 175 223 467 491 146 251 186 271 249 241 291 503 349 311 372 297 291 181 106 24 64 42 94 204 387 299 307 676 1034 1180
4 3 15 0 36 0 12 98 189 167 310 379 338 132 280 500 390 209 245 273 368 176 180 78 409 154 168 283 299 389 338 319 233 149 151 143 127 207 299 156 100 125 419
16 15 7 4 49 70 71 131 151 186 267 358 389 120 322 494 358 314 169 248 367 242 212 63 136 157 142 22 229 207 130 239 373 382 395 397 385 413 413 377 417 345 321
0 12 0 24 12 99 114 163 171 177 251 359 406 506 618 620 469 338 230 379 166 143 279 170 148 63 66 78 164 80 57 3 7 204 203 210 342 469 621 686 670 641 670
0 0 10 0 28 110 107 149 137 151 228 379 387 453 732 685 547 336 360 422 355 107 151 190 58 32 34 15 54 95 57 0 0 39 52 58 123 220 361 425 589 632 663
27 7 1 11 20 88 115 145 166 170 246 377 150 400 659 831 534 50 363 490 361 121 246 175 60 17 2 20 70 128 22 23 61 82 0 0 5 90 201 284 332 356 422
0 0 33 3 14 6 75 130 140 154 233 287 307 371 590 863 906 532 493 535 410 391 264 360 183 64 10 0 8 54 78 47 14 0 71 217 37 66 128 147 196 337 368
0 0 0 36 18 12 58 58 83 93 143 168 201 318 442 456 808 904 676 644 595 313 407 350 568 218 199 38 198 430 213 10 249 285 134 232 228 172 170 220 214 233 250

GFSSE_con_mlcape_081.txt.gz
CAPE
243 852 1081 1575 1815 1548 1537 1410 1533 1729 1656 1582 1533 1461 1422 1576 1613 2036 2221 2201 2006 2059 2483 2143 2412 2144 1990 2144 2146 1885 1561 1624 1700 1794 1690 1575 1100 1222 1240 1012 386 826 1127
418 1022 1205 1597 1810 1938 1614 1598 1371 1603 2220 1736 2121 1795 943 1031 1541 1585 2105 1931 2017 2020 2212 2335 2150 1687 2170 2176 2125 1978 1876 1528 1332 976 880 1003 1208 1069 964 1003 649 937 1292
439 1020 1190 1612 1730 1966 1776 1599 1402 1490 2022 1848 1988 1626 1428 1331 1496 1329 1718 2011 1870 2021 1931 2385 2391 2310 2281 2257 2216 1969 1764 1851 1770 1335 1313 1196 1272 1203 365 1165 1344 1039 1047
446 787 993 1571 1754 1889 1936 1831 1555 1793 1985 1786 1925 1847 1956 1489 1953 1684 1702 1889 1749 2008 2013 2186 2181 2132 2319 2165 2191 2038 1855 1774 1605 1045 1289 423 1114 1356 985 149 591 180 213
549 778 1206 1549 1759 1796 1792 1781 1610 1852 1764 1672 1708 1747 1583 1551 1443 1681 1591 1678 2016 2008 1850 2084 2145 2027 1508 1276 2120 1858 1764 1621 1480 509 1057 991 1153 1261 1309 767 1350 1300 761
539 763 1380 1573 1707 1747 1786 1823 1640 1692 1511 1698 1661 1666 1676 1650 1609 1646 1636 1724 1869 1843 1903 1939 1915 1478 1117 1285 1642 1801 1698 1417 1166 1430 1007 856 1015 880 898 905 446 632 756
463 947 1132 1568 1794 1720 1965 1542 1797 1607 1195 1406 1526 1500 1746 1669 1581 1643 1606 1520 1566 1617 1761 1792 1530 1273 1029 1179 1120 1796 1695 1588 1273 1479 1461 1460 1445 477 781 1117 654 1292 1302
566 849 1111 1513 1447 1368 1514 1777 1547 1665 1350 1581 1536 1522 1719 1552 1357 1290 1337 1167 1503 1449 1641 1712 1625 1235 1426 1693 1535 1997 1678 1469 944 857 1441 1189 524 367 452 586 1367 1368 1193
717 994 1325 1018 1504 1612 1582 1652 1574 1476 1689 1634 1639 1460 1634 1253 1423 1300 1261 1159 936 1199 1667 1643 1613 1670 1884 1572 1501 1899 1623 1332 935 1052 1412 480 679 1647 1648 1605 1348 1054 1360
784 861 852 1345 1463 1389 1509 1619 1486 1695 1397 1418 1372 1541 1447 1190 1269 1337 1150 1127 1066 1457 1580 1340 1623 1759 1610 1347 1617 1496 1348 1177 1130 929 1000 170 981 1254 1102 1094 487 1246 1189
670 856 955 1051 1384 1514 1523 1543 1699 1398 1532 1386 1438 1392 1317 1161 1203 1137 1275 1273 1258 1550 1604 1401 1256 1884 1453 1306 1761 1476 1060 972 1063 682 443 1269 1414 1499 1661 1759 739 1335 1212
374 701 975 1260 1111 1174 1157 1509 1431 1440 1337 1301 1336 1534 1210 1221 1245 1246 1448 1224 1348 1481 1390 1356 1458 1268 1582 1707 1741 1315 1132 954 961 979 820 1514 1588 1632 1574 1056 755 1131 1103
271 442 841 1102 973 974 1159 1027 1082 1247 1027 1203 1194 1015 1014 1045 1362 1591 1512 1158 1125 1294 1067 1122 1140 1233 1208 1259 1686 1535 1378 812 864 1128 1029 1403 1155 976 1399 709 1536 1103 957
318 409 677 794 866 1231 1013 767 1060 1025 954 781 951 1011 835 767 1282 1320 1138 747 751 671 704 957 1023 1170 1350 1376 1456 1487 1369 656 738 903 1114 1097 1390 1156 1074 1115 1345 1154 1105
127 446 641 726 802 1246 1172 925 1015 963 871 905 938 860 611 665 889 954 1001 834 930 811 871 1069 1129 1270 1359 1292 1426 1410 1264 860 774 736 1009 1300 1314 1409 1309 1291 1139 821 1006
89 214 417 543 657 997 793 775 859 809 746 771 812 860 553 518 678 637 667 630 923 1263 1129 1177 1225 1374 1161 1241 1432 1394 1348 904 922 870 693 950 1135 1085 1195 1169 1157 1154 1085
89 164 302 488 498 768 710 573 658 660 839 992 961 782 485 560 773 930 891 720 779 1014 1051 1082 1237 1370 1075 1127 1225 1369 1243 796 613 829 836 802 987 1196 1380 1243 1259 1175 1047
0 54 282 244 315 480 514 590 584 716 866 995 947 789 512 628 597 940 1022 621 738 921 1133 1173 1196 1157 1078 1076 1125 1121 865 456 636 652 800 900 849 782 790 862 1305 1267 1234
0 0 96 268 271 224 320 512 444 639 883 1043 871 728 601 770 1028 659 813 691 909 947 836 1146 1102 1061 998 993 925 1030 917 855 643 504 703 678 696 814 818 589 329 665 977
0 0 109 247 218 191 220 234 326 556 840 907 854 612 628 1020 966 589 868 840 966 901 770 726 1024 612 908 893 790 910 1001 1067 1094 932 907 799 823 879 933 1058 926 746 321
0 0 0 163 63 117 132 158 426 641 716 907 1003 791 581 928 900 840 796 714 898 852 781 505 795 774 711 577 943 798 794 771 1087 1072 1091 1031 1074 1065 1078 1144 1207 1088 1061
0 1 6 91 159 146 254 300 591 710 766 1017 1029 887 586 1004 1062 878 761 759 724 805 839 680 567 440 616 644 712 523 173 349 420 593 866 855 849 942 1011 1224 1372 1418 1422
10 0 15 12 219 255 421 408 434 602 732 740 817 992 1098 1151 1174 1032 767 1041 704 623 768 775 467 422 496 470 543 615 446 272 513 534 440 375 456 731 901 975 1032 1234 1410
39 8 70 87 220 304 445 406 444 499 498 688 844 1107 1107 1317 1167 634 908 999 905 724 732 691 334 164 264 420 542 572 374 531 406 370 548 297 329 544 717 909 856 933 1070
34 69 107 179 174 306 372 494 600 597 644 813 853 730 1134 1376 1431 869 754 1054 939 1026 813 780 626 424 174 153 342 439 651 545 434 619 553 845 907 652 825 863 903 920 1027
30 55 122 178 213 215 338 469 573 604 618 676 815 755 1008 1323 1555 1414 1218 1226 1296 1049 819 977 1099 722 501 465 811 951 870 405 1125 948 800 809 791 861 858 964 984 1018 1032

GFSSE_con_mlcape_084.txt.gz
CAPE
666 518 1289 1487 1419 1391 1470 1693 1668 1555 1563 1540 1544 1514 1674 1781 2062 2257 2150 2059 2373 2601 2462 2519 2208 2314 2193 2060 1811 1707 1859 1763 1680 1766 1156 1518 1454 1369 821 723 1053 786 813
709 753 1099 1731 1463 1490 1437 1463 1699 1787 1561 2021 1560 930 1151 1541 1698 2256 1876 2232 2068 2458 2240 2032 1849 2297 2068 2065 1861 1752 1528 1328 1106 1043 1255 1003 1017 1296 890 1336 1150 1135 322
724 798 1101 1627 1756 1485 1600 1356 1606 2166 1770 2125 1532 1359 1161 1304 1314 1889 1917 1988 2070 2092 2342 2391 2144 2291 1985 2106 1886 1809 1969 1624 1331 1241 1136 906 115 1117 1512 1430 970 807 440
771 645 850 1341 1917 1662 1597 1502 1529 2016 1817 2046 1992 2033 1585 1993 1664 1440 2012 1839 1801 2135 2167 2283 2300 2102 1657 2123 2071 1910 1895 1313 1314 1268 471 397 694 390 725 238 276 286 955
616 688 1136 1572 1828 1973 1854 1636 1922 1950 1842 1913 1922 1758 1530 1714 1718 1622 1776 1690 1694 1967 2133 2111 1742 1517 1329 1748 1808 1854 1861 1111 565 621 921 340 1184 832 1242 1085 1087 653 1260
574 748 1122 1782 1825 1764 1797 1770 1941 1907 1811 1814 1692 1769 1682 1635 1731 1641 1443 1857 1964 1925 1914 1729 1605 996 1268 1672 1814 1578 1186 1185 1350 478 747 531 270 910 759 582 594 1248 1410
473 738 1085 1686 1773 1813 1865 1894 1805 1592 1595 1639 1611 1568 1522 1610 1512 1414 1483 1547 1688 1819 1764 1635 1517 912 1411 1617 1921 1835 1763 1092 772 1089 1099 903 41 1340 617 1469 1395 1143 1340
420 563 926 1503 1763 1810 1860 1668 1752 1378 1537 1664 1389 1451 1480 1466 1424 1271 1429 1601 1543 1706 1714 1534 1025 1396 1651 1875 1971 1706 1661 882 517 1042 524 8 354 580 1094 1480 1339 1335 1447
474 554 938 1062 1079 1549 1753 1618 1581 1552 1603 1345 1358 1435 1490 1443 1421 1327 1132 1146 1418 1705 1571 1327 1601 1881 1540 1718 1925 1665 1422 869 763 939 179 293 1149 1630 1517 1091 1262 1081 1051
436 687 693 745 1225 1116 1112 1298 1594 1383 1128 1422 1438 1535 1269 1370 1340 1256 1079 1208 1556 1600 1311 1342 1271 1513 1502 1428 1410 1315 961 1071 637 541 64 612 1356 1144 1159 554 1357 1267 1392
519 472 450 1102 1223 1258 1124 1217 1476 1510 1338 1062 1334 1123 1165 818 899 1044 1109 1407 1554 1651 1350 1221 1164 959 1133 1655 1405 1028 1254 650 559 350 859 1148 1506 1463 1686 780 1186 1069 1390
299 267 621 821 1010 1076 797 1195 1121 1128 924 675 665 930 942 937 1133 809 1014 1517 1542 1526 1428 1547 1165 1206 1624 1350 1397 1083 368 650 546 460 1054 1362 1592 1497 830 878 1287 1480 869
188 293 652 756 830 735 564 712 951 539 672 880 884 881 828 825 1030 532 791 1028 1078 1388 1074 1372 1428 1328 1417 979 678 466 487 316 383 488 1051 1251 1110 1636 614 1347 1139 1044 1071
100 282 515 619 693 474 477 533 456 356 280 335 735 904 939 716 618 445 621 1094 1056 923 1153 1227 1233 1649 1725 1602 1123 509 240 301 274 377 689 1263 1170 1079 1033 1257 819 1057 890
84 199 308 625 842 510 694 508 576 378 249 330 441 782 584 518 618 487 591 693 782 900 1057 1298 1439 1680 1551 1397 1440 1060 255 245 364 389 536 734 1118 1445 1249 1256 1182 798 920
84 182 372 534 732 598 779 922 1032 659 489 346 312 646 982 592 755 832 980 1002 1145 1176 1303 1378 1681 1453 1254 1316 1489 1283 924 791 633 539 284 552 501 786 960 1143 1084 1054 1079
73 144 365 442 440 578 924 1126 983 632 582 660 571 908 938 981 1280 1000 964 1003 1083 1439 1638 1603 1572 1320 977 986 1428 1347 948 896 951 1081 939 869 1017 511 661 914 1022 1104 1073
20 141 304 194 220 376 484 958 886 652 636 763 751 893 1088 1294 1439 1502 1075 838 1132 1305 1215 1188 1154 950 942 1020 1113 958 810 667 863 924 909 963 797 797 777 544 748 1011 1106
0 172 269 278 137 535 875 805 907 1112 1050 1105 936 844 1173 1248 1459 1128 944 1068 1318 1146 1088 994 1118 982 938 831 812 906 873 771 815 657 931 987 814 832 789 775 442 398 676
0 20 248 325 196 587 804 948 807 990 1190 1247 1052 926 1347 1118 1112 1311 1206 1385 1125 950 986 1049 1065 1016 1009 962 650 656 704 775 878 792 794 745 879 1132 1001 1207 1190 877 735
0 0 135 272 366 530 614 548 778 880 1095 1118 1197 1264 1211 1306 1352 1575 1002 881 1117 922 1303 1331 1302 1104 687 969 716 492 282 410 616 579 627 613 866 985 1065 1247 1392 1008 894
0 0 0 259 468 429 378 566 768 1017 1046 972 894 1443 1205 1290 1124 1314 1029 655 890 957 1453 1577 1399 644 657 756 370 136 108 268 249 246 329 432 535 663 768 1003 1206 1452 1445
0 0 65 305 447 611 584 884 1322 1349 1472 1346 1275 1266 1263 1515 1411 1393 1014 1264 1431 1257 787 1608 1283 1019 478 797 1207 757 352 244 532 390 568 290 585 501 639 825 964 1155 1563
53 1 120 356 486 637 869 840 950 662 619 733 977 1018 1432 1549 1496 1592 1687 1602 1868 1000 1006 1413 1036 833 873 108 604 625 1028 899 505 407 495 407 414 403 560 584 540 749 1214
230 117 57 397 613 602 902 957 933 839 594 749 714 1206 1350 1566 1519 1264 1464 1674 1677 1363 1524 1244 1477 1241 383 356 273 385 948 689 1371 861 405 421 292 382 573 740 745 710 1107
226 288 286 404 779 963 1086 1284 1155 875 848 786 863 1033 1026 1134 1384 1735 1682 1822 1725 1370 1570 1518 1725 1696 1228 1014 532 603 569 446 695 821 616 513 505 498 742 842 851 990 1239

GFSSE_con_mlcape_087.txt.gz
CAPE
717 967 1330 1577 1780 1939 1905 1782 1655 1631 1585 1598 1664 1747 1927 2220 2411 2092 2107 2695 2484 2584 2371 2235 2098 1938 1885 1801 1806 1773 1656 1575 1308 1401 1473 1410 1322 1031 648 724 338 468 1013
525 845 1397 1378 1370 1478 1673 1635 1458 1568 1949 1418 1038 1323 1555 1829 2209 1854 2166 2217 2336 2286 1982 2141 2052 2180 1986 1610 1651 1411 1155 1263 1301 1172 936 1226 964 1193 1240 1117 329 649 1237
554 691 1194 1418 1427 1369 1343 1875 2031 1583 2144 1389 1291 1082 1259 1299 1973 1808 2123 2080 2276 2229 2292 2202 2034 1926 2014 1751 1939 1856 1278 1240 1149 1077 75 255 1185 1255 873 846 437 1409 1047
503 610 1075 1627 1455 1552 1370 1428 1934 1634 1735 1967 1817 1767 1915 1584 1569 1526 1976 1875 2096 2203 2212 2132 1746 2043 2165 2013 1902 1553 1228 1071 934 936 747 32 26 442 485 633 945 1055 1000
393 657 1020 1605 1549 1434 1467 1715 1637 1728 1936 1885 1813 1516 1873 1791 1679 1840 1570 1625 2082 2116 2101 1729 1535 1538 1770 1721 1824 1082 759 604 638 398 482 254 424 1239 1194 733 1171 1045 1314
540 748 1026 1582 1390 1639 1633 1614 1774 1767 1872 1645 1501 1772 1738 1784 1703 1646 1868 1859 1928 1858 1615 1808 1500 1692 1762 1627 970 1096 1282 1253 985 721 127 43 714 571 753 1244 1333 1444 1369
669 647 1112 1517 1542 1600 1625 1657 1774 1674 1751 1747 1802 1690 1777 1647 1499 1698 1655 1687 1914 1858 1870 1523 1431 1681 1931 1790 1285 988 1038 927 713 691 119 114 1100 956 1503 1281 1272 1406 1290
375 759 976 1355 1586 1771 1637 1792 1497 1412 1704 1532 1577 1614 1524 1556 1379 1746 1605 1731 1773 1685 1272 1606 1559 1813 1895 1774 1457 1281 1024 1108 407 230 44 52 596 1461 1491 1369 1467 1310 1108
286 477 888 1004 1184 1664 1535 1715 1569 1622 1459 1435 1409 1548 1477 1553 1400 1567 1500 1650 1635 1547 1663 1601 1775 1547 1682 1765 1345 860 742 898 557 166 856 945 1376 1330 826 1335 813 1089 1219
290 378 701 413 847 1030 1278 1508 1587 1549 1502 1443 1473 1508 1376 1281 1452 1162 1218 1680 1643 1377 1224 1517 1635 1602 1387 1160 726 728 929 902 510 79 362 846 1208 1167 612 1221 1348 1454 778
353 455 680 789 940 1119 862 1217 1033 910 1225 1252 1105 1109 1119 1353 943 1133 1334 1641 1381 1198 1283 1075 1313 1502 1462 978 705 947 1288 1064 261 756 791 1402 1424 1499 689 863 1022 1385 878
238 237 542 829 680 914 461 1132 1199 567 1046 814 637 970 1199 990 581 543 1340 1638 1442 1452 1255 1072 1314 1086 1318 1369 1097 1099 820 373 548 671 948 1680 1514 638 1065 1320 1535 992 681
132 432 560 488 725 584 462 675 1150 669 260 197 832 1096 502 567 419 334 1068 1162 1248 1265 947 1351 1393 1574 1126 605 322 48 186 253 662 800 872 1248 1632 743 1084 1418 962 1463 687
159 241 401 363 388 207 353 421 333 226 136 588 715 705 820 518 419 773 1009 742 881 1011 1232 836 1020 1361 972 746 245 138 200 229 351 381 1016 1293 1036 994 1033 810 763 870 801
130 180 267 413 484 293 685 496 340 179 403 420 697 797 809 524 453 520 753 919 799 987 973 1171 1220 1146 879 1073 573 193 195 364 490 564 298 754 1219 1226 1119 1299 1028 757 807
84 111 293 455 339 440 824 990 595 346 177 290 420 703 819 808 774 790 849 889 943 1207 1197 1296 1411 1013 703 823 991 605 502 460 562 557 605 146 208 494 646 1000 877 835 838
37 128 170 366 244 666 718 1179 1208 229 342 321 766 1003 1036 965 1357 927 901 1169 1105 1362 1601 1369 1297 1057 550 994 881 675 536 834 768 843 901 1192 587 267 326 582 742 834 901
12 147 167 139 131 534 1018 1100 1108 415 617 634 512 926 1244 1402 1415 1585 1032 925 1017 1246 1260 1139 1187 765 1046 1039 989 823 572 713 846 881 719 1013 770 1272 770 527 567 711 859
27 215 165 158 109 368 607 802 735 811 991 811 713 1010 1188 1314 1340 1557 776 1202 1411 995 984 867 1084 874 953 866 597 508 577 459 824 446 572 679 437 688 1051 818 609 471 623
44 230 286 199 191 436 465 797 800 859 965 1031 772 1032 1203 1128 1034 1746 1364 926 1534 843 1117 1169 1317 1277 825 930 588 409 425 394 361 441 516 629 697 906 861 966 1288 1182 722
3 154 305 289 345 515 521 485 899 950 1054 1080 1165 1397 1312 1404 1259 1734 1260 1225 1197 954 1420 1199 1109 1225 644 575 622 689 156 304 565 356 424 478 629 818 723 1027 1173 1003 1083
0 0 225 364 548 747 648 637 593 820 996 948 1192 1301 1398 1228 1321 1473 1384 802 1026 1257 1391 1543 1467 1233 428 436 889 525 195 245 225 303 245 270 443 588 650 868 734 1048 1129
4 0 146 360 585 555 449 753 886 1227 1214 812 1053 1031 1094 1293 1258 1395 1341 826 1148 1539 1054 1644 1357 1054 699 160 383 969 965 375 428 452 394 291 344 505 474 572 593 820 1221
0 0 87 455 505 565 769 716 1036 589 582 834 935 1021 1383 1255 1491 1384 1218 1395 1728 1197 1337 1405 1009 1490 1012 134 82 468 1042 1208 1405 517 352 148 227 437 423 552 554 803 1051
15 0 184 520 653 618 829 1204 1007 1024 622 605 1003 1449 1442 1663 1438 1377 1588 1687 1239 1501 1015 1562 1661 1347 629 643 352 323 593 265 606 837 474 308 269 387 574 800 655 768 1194
58 29 155 611 900 852 1022 1242 1451 1037 803 909 880 780 861 995 1265 1388 1504 1861 1920 1688 1724 1484 1526 1654 1568 1391 1052 581 590 679 1001 929 541 619 572 537 761 752 824 963 1251

GFSSE_con_mlcape_090.txt.gz
CAPE
807 1021 1394 1558 1109 1573 1831 1779 1697 1571 1542 1575 1559 1818 2226 2105 1859 2340 2325 2453 2286 2210 2147 2030 1988 1911 1836 1771 1680 1605 1295 1486 1478 1440 1439 1153 833 893 792 654 560 822 1079
782 1177 1512 1582 1663 1675 1520 1471 1414 1672 1236 1108 1347 1377 1843 1938 2022 2051 2242 2226 2168 2122 1993 2153 2110 1888 1732 1557 1158 1530 1312 1162 1517 1263 1142 1178 1071 819 387 1107 1197 1143 1213
679 896 1100 1317 1307 1415 1819 1552 1964 2057 1406 1172 1109 1185 1271 1934 1709 2103 2025 2233 2250 2136 2111 1960 1970 1776 1918 1805 1311 1318 1248 684 1000 797 996 825 234 375 479 1328 1124 919 1168
383 338 713 1393 1272 1180 1820 2049 1742 1820 1886 1797 1960 1880 1496 1694 1489 2032 2049 2095 2159 2216 2021 2048 2142 2119 1821 1611 1298 1235 993 577 625 576 0 49 370 979 960 1039 1134 425 780
472 710 1092 1337 1471 1278 1641 1553 1639 1847 1846 1725 1660 1904 1753 1704 1642 1617 1679 2093 2115 2035 1764 1805 1781 1590 1816 1458 1027 1084 948 1016 961 323 661 1035 962 1110 1146 1118 1175 673 611
924 1139 1556 1564 1540 1486 1607 1519 1305 1672 1716 1739 1794 1824 1782 1685 1771 1821 1939 1994 1822 1784 1803 1859 1895 1710 1031 940 1103 1144 1126 945 146 26 830 501 590 1130 1275 1195 1254 918 1032
614 857 1233 1471 1448 1354 1442 1673 1647 1758 1784 1620 1739 1770 1636 1653 1743 1881 1876 1834 1808 1821 1475 1836 1664 1870 1490 955 910 909 1148 883 303 23 931 437 1184 1297 1117 1345 966 1224 486
500 641 911 1399 1530 1690 1636 1559 1569 1649 1684 1705 1700 1472 1596 1719 1616 1649 1757 1747 1777 1831 1776 1646 1966 2038 1588 780 668 783 960 1042 94 147 209 983 1140 1340 1462 1333 1074 1010 421
480 685 979 1219 1640 1587 1746 1509 1546 1531 1462 1515 1615 1565 1609 1481 1583 1602 1742 1627 1640 1486 1561 1830 1887 1886 1093 541 468 653 764 964 259 948 1105 1228 894 817 1181 766 1416 626 470
320 554 641 746 1024 946 1260 1537 1556 1392 1417 1351 1521 1449 1267 1314 1271 1432 1476 1487 1186 1613 1675 1796 1738 905 254 315 515 702 952 1045 491 577 584 1049 865 708 1351 1404 1505 576 609
457 478 650 916 921 1038 1186 1293 1336 1458 1184 1155 1238 754 806 1220 1050 1393 1359 1417 1273 1405 1613 1507 286 1301 1089 769 734 883 1230 1295 641 958 1044 1301 1466 646 803 1117 1198 719 519
392 589 802 859 933 831 643 1048 750 797 988 962 947 675 830 973 665 920 1302 1217 1196 1139 1260 392 0 10 1043 1115 1064 1082 1386 973 854 991 1165 1464 693 917 1291 1633 939 593 752
423 599 589 872 824 684 705 1272 580 1100 705 597 575 1298 934 177 377 1001 1259 1296 1064 1189 1028 846 36 39 355 934 1279 334 247 714 812 797 1130 1347 760 998 1629 884 1310 788 583
199 361 578 631 566 665 474 777 427 750 466 301 791 136 652 1081 1047 0 981 711 126 404 425 975 1168 846 1278 438 310 359 399 625 884 833 1259 1139 837 779 1089 547 779 747 692
321 86 207 562 374 850 669 573 484 353 582 361 612 604 512 724 854 405 681 200 651 695 440 711 741 1281 492 815 214 132 347 546 549 631 650 579 757 979 1151 1140 660 588 675
213 35 299 391 244 657 625 691 293 284 340 575 633 726 965 640 931 958 1084 262 295 349 764 182 776 610 1132 641 628 367 380 508 839 188 51 339 362 264 339 657 629 613 650
89 158 299 92 173 929 1114 1046 1057 222 602 616 379 1052 785 1091 506 401 1056 892 742 1023 1213 299 929 1207 930 1037 610 500 739 638 623 923 352 196 191 323 436 548 603 546 630
66 59 187 5 71 627 1045 1447 1070 570 385 711 866 707 1191 1317 1366 1294 850 859 1426 1356 1455 658 1185 973 620 850 675 871 921 767 905 888 985 1062 660 564 541 488 384 542 684
184 49 114 29 0 979 534 1148 795 892 328 486 749 898 977 1010 1346 874 881 999 1652 1202 273 1121 379 999 1325 842 936 921 665 582 870 781 572 785 226 1118 1035 687 543 449 487
94 164 229 20 64 624 356 742 570 885 786 1046 978 914 1275 1146 1268 621 994 985 540 1206 933 1368 1484 469 950 513 515 675 660 350 695 550 624 786 622 703 1278 1131 1034 901 621
71 184 273 255 216 627 462 518 645 602 1044 960 486 597 1171 1148 1220 643 1012 1233 646 581 752 1255 1126 1261 1371 745 680 829 116 229 382 654 739 731 737 1066 899 1097 1332 1545 797
15 159 301 558 316 828 294 1034 846 1005 848 925 1102 1400 1247 1134 1231 1129 408 1055 958 1052 1407 1442 1435 1006 1177 130 822 1409 760 401 604 379 385 435 548 801 871 888 1066 1010 1132
7 128 309 756 347 640 824 718 345 204 67 609 1267 1399 1151 1104 1173 1389 1229 193 944 490 1207 1608 1487 515 470 468 368 1045 903 1114 939 322 225 408 304 672 611 469 785 881 1196
3 6 350 856 525 302 867 622 600 397 376 915 1010 1060 1152 1163 1096 1291 1429 618 939 627 823 1325 1266 639 600 1038 466 404 871 864 1489 766 388 165 473 425 476 831 646 997 1077
9 0 355 602 1024 272 666 936 663 532 330 251 779 828 1270 1236 1401 1408 1332 1307 1000 946 775 886 1284 1007 1421 1284 406 962 389 1124 873 1039 539 366 370 622 510 758 791 951 1153
1 0 236 708 929 1132 590 795 546 607 123 420 706 1018 1051 1292 1366 1289 1159 1518 1646 239 938 1228 1486 1209 1368 1369 928 1027 806 530 724 1225 1013 694 495 546 929 896 908 1132 1418

GFSSE_con_mlcape_093.txt.gz
CAPE
421 1124 1273 1270 1527 1768 1856 1736 1539 1438 1421 1452 1951 2109 2061 2071 2349 2347 2263 2369 2297 2118 2143 2052 1945 1835 1801 1445 1511 1317 1230 1595 1371 1007 909 930 710 856 992 938 942 962 1075
657 1256 1366 1618 1713 1550 1493 1216 1367 983 997 1232 1298 1871 1862 2088 2132 2171 2249 2190 2207 2186 2247 2058 1891 1648 1359 1498 1280 1327 1420 1487 1462 1213 1099 904 425 1198 1037 966 1072 1042 1176
902 1363 1434 1535 1290 1007 1029 2024 1475 1252 1023 1109 1004 1438 1780 1920 1937 2190 2241 2305 2200 2077 2140 1942 1934 1786 1330 1474 1259 931 1044 982 927 454 72 110 542 1216 1025 550 1085 1134 1096
784 922 898 932 1366 1858 1592 1720 1802 1856 1733 2024 1696 1348 1684 1682 1998 2106 2139 2118 2151 2073 2116 2101 1867 1783 1793 1418 1005 622 690 357 401 73 268 482 636 1050 1111 714 508 1000 956
327 723 1064 1076 1283 1557 1615 1696 1795 1686 1513 1757 1764 1643 1721 1600 1576 2034 2021 1963 1868 2055 2067 1727 1581 1590 1408 1427 975 851 655 620 808 772 625 630 1049 1058 1286 819 674 1039 1276
312 679 1360 1253 1414 1605 1540 1333 1656 1704 1727 1780 1763 1686 1672 1527 1678 1939 1964 1976 1925 1733 1874 1695 1497 1136 1171 1020 734 795 1074 821 640 180 436 978 989 1089 1291 1077 634 494 578
661 710 1219 1460 1462 1438 1386 1569 1663 1671 1603 1640 1777 1736 1659 1715 1851 1862 1716 1763 1752 1783 1746 1893 1616 1144 1202 1120 880 1068 337 671 494 116 640 735 1100 1371 1105 915 913 370 385
612 990 1219 1314 1377 1586 1538 1477 1605 1644 1577 1745 1457 1563 1599 1568 1669 1814 1559 1675 1427 1414 1929 1764 1672 963 818 861 821 764 908 353 175 218 709 1074 1257 1368 1152 1173 457 444 482
573 649 1035 1308 1453 1513 1313 1471 1421 1434 1488 1535 1530 1389 1745 1497 1659 1663 1469 1474 1501 1716 1814 1875 1461 822 880 733 858 824 640 520 426 651 1010 547 1085 874 959 1501 468 488 550
435 571 810 1103 1143 1186 1332 1442 1332 1356 1453 1518 1447 1432 1540 1517 1640 1483 1207 1707 1484 1521 1555 1722 1617 1327 717 493 571 861 1249 818 559 269 376 387 1114 1388 1478 1249 521 783 1110
444 510 698 814 858 884 1015 1355 1203 1367 1064 918 859 791 990 917 1243 1089 1112 1311 1560 1710 1745 1335 786 517 623 609 760 952 1220 683 537 784 1019 1146 729 766 1303 1401 672 521 477
339 324 529 664 676 625 889 804 802 983 669 619 489 612 920 916 1091 812 1158 1338 1472 1753 798 132 62 230 646 705 708 1292 1091 809 718 675 1183 715 726 1216 1621 914 551 745 657
254 502 512 509 592 586 554 679 641 728 682 576 610 719 717 854 696 611 873 722 912 1078 229 28 158 84 418 653 871 1100 1258 743 494 793 626 292 1102 1615 867 960 1038 540 554
326 525 700 546 595 610 716 878 560 728 504 497 900 1003 222 461 234 494 209 117 191 251 85 339 565 887 293 415 826 610 711 661 308 486 1103 552 248 1379 812 665 726 579 597
96 398 384 342 743 471 486 431 515 730 258 531 326 470 812 560 26 218 177 8 89 82 133 260 564 798 1460 451 23 486 709 497 36 257 259 212 281 559 645 504 453 564 629
37 259 0 489 364 546 733 296 288 328 274 441 398 514 1010 495 138 283 148 75 517 24 0 113 535 730 780 400 184 229 427 470 293 19 51 235 515 535 742 889 650 531 524
39 128 10 179 223 615 699 891 460 223 378 492 850 508 753 481 598 730 356 376 508 417 453 463 540 1104 793 328 741 418 268 291 280 71 45 141 485 340 398 603 480 321 335
50 0 0 332 447 459 905 771 415 559 293 378 702 834 1206 759 1206 1187 738 638 574 747 1067 715 969 972 752 458 545 421 529 692 631 361 211 181 175 285 437 622 616 435 531
0 2 0 0 354 585 821 712 227 224 474 602 457 888 882 1170 879 883 639 786 1149 733 503 827 462 711 860 772 760 794 626 451 624 744 690 525 431 583 424 380 563 472 527
0 10 2 0 285 292 721 652 771 420 787 565 804 971 963 1186 621 545 716 1053 962 702 866 985 832 602 564 345 635 751 508 392 568 568 288 690 661 752 870 721 752 891 554
0 0 4 0 427 20 638 291 550 456 562 503 522 694 1118 857 446 296 770 746 825 606 567 1223 1460 940 1122 475 599 742 322 281 529 456 477 587 531 710 1011 911 957 994 920
0 0 182 0 73 0 351 513 591 614 758 697 478 624 982 959 836 807 616 813 980 1016 1283 1487 1143 984 848 237 748 1215 482 184 267 387 495 598 584 732 905 996 1174 965 1030
0 0 279 70 142 382 206 446 358 319 147 504 715 920 1191 1117 1051 811 899 721 487 620 285 1326 718 450 346 446 412 897 786 824 513 77 182 424 97 586 609 768 913 801 763
0 18 326 184 41 233 805 339 195 23 104 107 567 894 774 937 1191 1145 571 160 791 516 645 1175 1181 1163 886 940 669 750 684 889 1017 315 227 74 214 376 360 347 435 705 800
0 54 229 269 134 0 472 525 203 45 221 315 633 932 926 907 1196 1224 1066 907 571 347 546 944 1266 924 946 1261 923 1182 784 926 1061 975 229 78 51 235 271 243 497 608 832
0 63 194 445 277 81 153 733 467 361 87 289 511 677 915 921 1072 1402 1286 960 623 614 537 770 1233 1156 742 1019 1376 1176 942 633 538 1020 852 524 246 257 332 563 540 716 826

GFSSE_con_mlcape_096.txt.gz
CAPE
356 1008 1269 1608 1675 1760 1867 1645 1543 1543 1984 2120 1950 1887 2373 2343 2326 2321 2221 2221 2167 2145 2071 1940 1746 1498 1303 691 1326 1613 1481 1198 1163 995 860 947 1080 1094 1076 981 993 1027 1113
676 1216 1425 1744 1906 1754 1356 1330 1297 1418 1476 1919 1930 2071 1980 2069 2170 2227 2386 2209 2137 2227 2048 1688 1486 1559 1367 1335 1307 1430 1390 1445 1410 972 663 802 1098 1028 1093 1064 1193 1083 1121
883 1365 1618 1623 1458 1091 1839 1408 1139 1029 1135 1346 1942 1826 1977 2161 2136 2184 2141 2254 2159 2002 2055 1530 1514 1706 1176 1160 1338 1175 1148 1058 853 421 778 1009 1010 623 1166 1100 1054 861 526
1023 1314 1448 1067 1113 1504 2052 1678 1721 2084 1998 1354 1593 1671 2100 2137 2166 2200 2245 2144 2234 2120 2039 1863 1865 1555 1233 1111 1062 1175 1270 665 261 510 553 810 1022 979 451 933 976 1245 1249
786 828 867 1680 1773 1741 1782 1897 1789 1685 1921 1740 1594 1731 1840 1962 2044 2141 2196 2136 2438 2333 2061 1688 1764 1573 1077 1136 947 862 813 1015 1078 596 768 862 1110 1204 659 1209 1156 1315 1303
285 507 1019 1369 1557 1659 1680 1780 1937 1744 1922 1821 1767 1674 1526 1721 1910 1989 2038 2016 1866 1839 1667 1627 1619 1486 1182 1043 972 1330 1372 1045 539 630 907 1094 1210 1196 731 517 564 870 726
318 969 1128 1508 1619 1488 1527 1673 1696 1750 1813 1860 1766 1762 1750 1601 1721 1841 1944 1865 1993 1916 1769 1239 1161 1431 1054 718 1111 1320 1326 504 280 527 785 994 1281 838 1404 448 453 439 526
167 929 1399 1400 1482 1505 1678 1664 1671 1699 1790 1642 1587 1697 1427 1620 1915 1829 1756 1701 1581 1744 1872 1758 1437 1210 1063 686 1148 1117 1087 278 446 708 988 1296 1355 1105 787 435 435 533 789
779 947 1025 1283 1587 1569 1502 1647 1677 1649 1540 1453 1636 1520 1563 1548 1659 1695 1622 1391 1744 1819 1978 1581 943 554 648 694 846 959 562 356 428 718 722 1106 562 1360 840 447 482 579 683
556 569 898 1238 1261 1190 1453 1464 1440 1508 1465 1552 1390 1555 1452 1574 1625 1657 1451 1499 1690 1752 1526 1603 1236 782 851 913 944 916 1259 847 578 94 354 1036 1133 1673 839 443 816 988 597
354 433 749 810 993 1051 1266 1361 1315 1358 1016 1301 1294 1416 1321 1207 1122 1315 1619 1640 1732 1723 1808 1240 736 599 752 744 885 1424 865 423 308 500 335 1072 949 1572 1608 550 441 655 473
169 510 495 628 731 918 1322 1135 775 852 453 473 671 753 755 930 782 1160 1413 1646 1768 1952 885 237 315 502 401 583 671 1374 623 471 611 856 715 431 1024 1239 752 455 688 608 394
296 440 516 536 523 679 812 684 599 603 526 365 446 668 708 819 938 942 848 917 1243 680 5 6 231 287 136 150 445 926 737 587 457 848 294 506 1136 1072 967 915 449 413 466
232 323 430 376 435 371 171 417 604 610 425 469 517 589 564 440 488 359 201 353 364 77 0 230 366 657 932 930 526 792 811 423 264 328 182 232 1162 1471 667 947 845 445 485
302 334 334 383 452 377 417 538 508 511 333 459 443 256 282 104 307 110 183 0 91 0 10 217 412 652 838 762 380 686 619 192 18 362 504 172 342 1162 467 417 534 593 598
282 363 434 524 501 478 228 307 439 486 272 191 259 294 617 49 6 0 16 0 173 0 0 105 326 459 761 224 439 584 432 61 0 102 134 191 235 471 711 761 554 397 499
242 274 318 424 662 602 293 228 279 294 339 377 489 570 487 111 317 70 186 209 458 340 204 194 400 891 846 238 220 352 313 246 63 23 35 71 342 486 542 789 772 515 390
95 124 257 248 639 357 372 260 190 230 260 576 662 529 422 336 488 509 312 302 356 483 555 602 733 866 592 325 336 167 196 254 266 77 43 127 297 336 347 529 704 739 595
3 34 188 235 323 718 498 397 189 281 488 556 579 707 776 706 818 572 567 490 560 528 697 659 516 606 593 514 567 561 596 424 361 280 207 153 239 320 211 231 774 642 457
0 0 85 84 295 610 441 308 269 286 271 412 810 797 888 739 558 648 616 825 895 586 534 606 665 795 588 354 458 659 594 422 376 521 364 428 340 355 429 374 472 862 668
0 0 0 60 288 555 441 431 328 327 428 584 734 822 989 745 238 431 685 721 872 612 671 767 1018 774 877 595 555 622 439 364 356 503 355 461 447 550 654 677 707 736 894
26 0 0 96 163 327 407 387 499 425 510 453 488 479 939 492 130 523 565 491 683 798 988 938 884 685 527 308 697 768 320 181 143 418 400 393 431 587 730 857 913 866 804
0 5 49 148 128 55 461 344 411 320 254 530 518 536 898 839 852 365 621 690 732 613 677 1055 644 319 327 566 802 795 757 411 442 85 318 429 465 479 591 738 844 903 818
98 93 0 48 50 134 230 377 288 267 311 306 524 634 818 1136 995 606 784 628 726 372 376 784 776 1052 669 624 522 1020 712 799 759 139 132 272 213 162 436 534 673 668 648
77 187 132 56 71 407 351 362 215 79 104 119 525 738 929 822 1141 1103 502 69 545 413 464 772 1363 1077 1079 904 974 873 708 1028 670 870 187 129 20 101 157 259 353 280 547
138 215 171 94 47 269 545 511 214 135 224 345 488 546 709 825 1076 1205 918 736 476 383 474 758 697 1188 933 983 1158 1002 1084 1276 980 791 618 597 156 132 144 158 239 416 431

GFSSE_con_mlcape_102.txt.gz
CAPE
377 870 1149 1538 1954 1950 2039 2040 1545 1626 1992 2177 2109 2144 2097 1932 1967 2014 1900 1721 1692 1572 1638 1172 843 722 702 801 811 968 1085 1180 1384 1176 1254 1234 1008 806 1061 1020 919 881 1055
436 1006 1479 1808 1840 1745 1599 1852 2180 2062 1593 2024 1966 2125 2114 2140 2109 2002 1941 1783 1762 1822 1189 923 1480 1576 1411 1076 1120 1261 1344 1271 1038 1305 1271 1266 1262 1281 1240 1193 1229 1202 1226
565 1019 1121 1370 1792 1457 1426 1430 1632 1918 1880 1966 2029 1931 1892 1836 2030 2000 1955 1808 1666 1849 1555 1351 1493 1442 1530 1430 1437 1392 1054 1124 1368 906 965 1028 932 1201 929 545 911 1314 1285
754 1096 1060 1462 1384 1394 1122 1048 1137 1567 1727 1883 1784 1674 2033 2101 1877 1904 2035 1798 1747 1931 1610 1556 1724 1471 1525 1095 575 676 703 1248 1264 1104 759 457 1010 1119 1387 1436 876 1333 1338
922 1111 1334 1039 1878 1306 1537 1827 1682 1131 1659 1672 1355 1943 2063 1830 2030 2019 1840 1974 2049 1844 1676 1532 1491 1311 1632 1681 1402 891 1005 1252 1242 1020 799 553 1190 1171 1325 1490 1347 1344 1356
973 730 872 1696 1694 1753 1807 1763 1686 1635 1453 1611 1392 1938 1961 2024 1868 1929 1917 2063 1973 1760 1498 1458 1440 1311 1404 1417 1216 1552 1328 1394 1098 1023 971 782 545 753 1232 1109 724 996 929
455 1107 1530 1626 1712 1857 1683 1759 1586 1547 1728 1646 1670 1819 1953 2157 2160 1876 1729 1735 1889 1906 1630 1508 1358 1366 1449 1693 1733 1564 1295 1176 668 1017 1028 964 562 555 618 676 1475 1512 1389
370 1211 1463 1478 1513 1712 1729 1763 1723 1420 1207 1341 1592 1556 2015 1744 1862 2299 1978 1686 1587 1641 1625 1521 1355 1318 1519 1843 1826 1175 1120 1048 767 1010 718 1220 671 548 553 624 1061 1185 1198
663 1060 1357 1468 1462 1640 1465 1516 1589 1387 1374 1531 1634 1770 1865 1395 1403 1909 2105 2047 1807 1741 1460 1343 1235 1405 1468 1565 1332 1000 1127 1001 826 1036 835 1160 566 605 643 735 646 645 600
632 1045 1067 1203 1153 1233 1037 1496 1395 1484 1323 1533 1662 1766 1754 1171 1502 1870 1776 1683 1695 1635 1588 1394 1297 1225 1298 1425 1350 951 1172 974 491 708 336 1306 846 683 815 895 638 619 730
710 771 930 1224 1039 1163 1228 1327 1316 1258 1312 1337 1528 1503 980 864 1192 1615 1951 1734 1774 1639 1521 1278 1192 1210 1323 1479 1409 1682 1027 260 0 453 846 1396 1637 951 595 980 1160 494 621
355 535 837 838 827 985 1208 948 1005 1066 1076 1174 1029 854 796 1087 1355 1865 1998 1972 1498 674 993 1252 1019 753 480 703 1128 1772 587 118 115 186 888 820 1737 1131 631 602 364 252 214
165 523 700 549 688 864 892 575 617 586 596 666 708 691 696 1011 1119 1013 1314 1137 367 100 558 335 366 447 332 302 388 746 606 344 514 425 351 767 1403 1120 709 505 492 495 457
126 309 416 458 466 624 446 455 362 286 428 505 638 674 685 688 689 496 700 407 47 0 102 360 602 700 797 782 630 773 622 581 256 479 128 661 1335 1048 876 1096 768 542 542
100 201 226 323 297 364 437 459 443 473 326 391 500 504 514 414 275 185 237 139 190 0 78 410 470 560 560 409 880 494 752 574 132 288 43 432 1043 1471 1081 736 800 728 743
106 148 269 228 215 142 205 376 445 445 375 455 558 417 250 305 200 176 19 0 86 0 11 324 691 641 382 193 413 623 576 430 59 112 244 353 539 503 901 780 772 682 661
129 188 245 273 268 81 166 326 362 443 336 243 351 303 128 217 32 11 2 256 269 454 602 594 869 498 207 308 389 495 478 336 0 55 216 216 219 467 763 857 940 936 842
133 207 259 369 289 192 198 246 280 354 254 179 112 295 344 117 72 8 173 215 278 411 634 767 690 562 272 338 227 261 368 311 200 140 94 95 163 256 278 401 773 854 843
155 172 211 385 447 284 204 185 206 233 302 391 426 401 352 96 462 404 302 372 472 460 602 695 592 642 667 533 461 454 359 310 338 346 306 175 139 224 308 290 293 378 764
191 207 282 395 420 301 233 151 133 156 410 366 358 328 308 465 681 496 480 718 822 558 550 687 726 504 570 355 453 556 581 534 437 368 386 324 243 253 254 313 400 510 574
202 253 262 248 245 207 218 143 111 169 488 527 622 521 455 633 582 422 630 676 697 584 609 839 945 807 619 302 472 724 422 302 451 440 358 418 423 388 467 479 518 625 719
178 214 201 182 258 192 178 155 125 159 294 396 480 652 662 569 294 411 582 607 686 706 801 888 799 501 324 493 648 450 380 156 179 161 226 360 420 359 446 507 596 707 758
139 156 144 220 296 167 187 176 156 173 228 311 385 430 631 468 157 259 437 395 614 621 676 784 457 566 609 557 616 648 628 503 458 49 187 218 342 420 435 398 384 492 604
100 101 117 131 266 158 178 195 164 128 123 321 353 350 409 644 666 450 384 498 441 419 304 769 765 768 814 840 634 706 565 688 876 337 97 164 174 265 288 218 195 292 412
69 0 59 35 141 180 207 235 193 176 133 97 298 415 512 698 870 751 508 421 531 367 377 573 908 884 1001 996 934 1016 600 630 686 597 338 235 153 59 44 59 102 139 218
31 0 0 0 100 169 155 142 173 197 182 197 190 385 398 624 648 802 759 307 356 402 258 533 751 776 775 716 906 852 982 772 924 737 396 473 384 324 496 608 426 521 657

GFSSE_con_mlcape_105.txt.gz
CAPE
502 856 949 1477 1648 2120 1620 1496 1842 2193 2055 2235 2084 1875 1950 1983 1826 1866 1882 1642 1894 1492 1156 1032 934 881 753 684 649 1168 1130 1216 1173 1219 1091 1000 1130 1242 1226 1193 915 880 1156
554 1102 1244 1602 1497 1899 2059 2270 2064 1705 2134 2186 2155 2119 2094 1979 2011 1909 1747 1886 1362 1164 1067 1624 1706 1459 1135 1208 1205 1191 1321 1121 1235 1231 1137 1228 1284 1286 1309 1363 1190 964 1271
564 1141 1195 1300 1662 1439 1431 1798 1931 1950 2018 2115 2024 2109 2077 2094 2066 1995 1983 1846 1773 1284 1670 1597 1649 1505 1473 1481 1383 1127 1353 1221 1007 1142 1117 1021 1082 853 712 1473 1428 1372 1319
783 1114 1194 1438 1391 1217 1140 1266 1641 1771 1513 1954 1993 2071 2016 2032 2038 1884 1687 1914 1731 1762 1668 1751 1437 1191 847 719 744 1086 1300 1346 1219 339 756 825 1013 1266 1383 1070 1439 1426 1392
1001 1101 1472 1473 1418 1221 1382 1482 1022 1485 1780 1649 1773 2050 2094 1574 1333 1730 1841 1933 1829 1801 1769 1562 1450 1632 1671 1290 1119 1024 1341 1409 1269 364 947 1101 1068 1444 1495 1419 1291 1452 1440
964 1011 898 1825 1819 1953 1550 1255 1557 1112 1617 1020 1775 1802 1837 1801 1426 1860 2047 2014 1796 1641 1626 1573 1457 1596 1456 1437 1647 1258 1445 1368 1127 1004 473 334 600 1302 882 963 1016 835 854
638 265 1295 1866 1878 1783 1701 1589 1610 1411 1214 1368 1898 1767 1461 1641 1608 1719 1982 1931 1737 1768 1682 1542 1537 1587 1809 1840 1582 1279 1419 1028 1084 799 1191 290 400 768 870 1564 1489 1318 884
484 1142 1295 1696 1766 1283 1623 1354 1447 1319 1564 1721 1745 1573 1457 1980 1923 1869 1804 1899 1748 1621 1576 1545 1572 1774 1936 1892 1365 1130 1199 925 1064 789 1502 328 517 641 807 1012 1150 979 847
1120 1151 1345 1132 1431 1565 1523 1522 1339 1329 1572 1678 1073 1567 1524 1569 1629 1973 1911 1814 1671 1516 1502 1482 1578 1540 1660 1491 1130 1267 1152 1057 1259 858 1152 429 646 708 786 842 727 632 700
631 1134 1362 1387 1354 1191 1374 1371 1500 1447 1681 1540 1195 1399 1432 1523 1341 1577 1569 1757 1793 1590 1540 1472 1384 1330 1521 1482 1002 1153 1291 521 732 263 1232 1118 740 855 1154 796 700 800 1111
831 984 1221 1212 1231 1154 1229 1281 1447 1369 1576 1699 1565 1202 1271 1605 1559 1596 1514 1842 1863 1814 1522 1422 1423 1402 1537 1590 1501 1627 780 62 51 673 1140 1473 1252 609 686 1145 577 528 402
667 716 1065 1092 999 1054 1074 1284 1405 1393 1427 1522 1441 1442 1384 1428 1703 1656 1726 1653 1167 1509 1565 1314 1019 755 854 1418 1809 1746 951 321 193 281 437 985 1632 653 654 648 524 383 286
592 713 940 893 1096 1092 1126 1153 1011 1023 1200 1218 1195 1237 1640 1616 1748 1960 1625 572 631 1334 799 729 862 1077 1037 896 1064 1213 1045 599 419 110 178 658 1402 1192 814 623 487 392 465
311 677 778 741 972 1088 838 789 695 649 733 861 1098 1168 1283 1151 1258 1430 922 670 378 613 855 1143 1320 1300 1458 1492 1231 1249 1030 636 265 225 84 471 1145 1207 854 988 1107 649 645
199 407 560 734 808 667 727 662 675 775 718 853 1011 1029 983 887 816 838 676 603 569 474 880 1135 1186 1296 1232 1019 1473 1151 1252 964 373 400 194 65 830 1216 1476 782 701 716 738
172 277 426 568 694 685 685 827 972 900 823 918 1013 885 797 827 771 619 146 480 263 587 781 1189 1408 1258 781 1058 1223 1271 1192 910 502 556 585 612 299 434 563 891 1109 1148 1073
187 298 357 431 540 457 550 822 853 898 731 774 819 714 630 700 382 651 726 841 958 1156 1276 1403 1508 972 914 931 994 1114 1103 1025 648 534 759 734 618 308 393 749 870 852 927
236 376 496 311 398 263 507 731 827 885 707 527 661 744 511 458 382 329 804 911 966 1185 1437 1416 1290 915 990 1011 860 835 941 996 979 894 835 785 776 764 733 341 331 553 841
351 449 486 625 561 438 619 645 651 711 839 778 728 753 883 646 982 871 886 1011 1135 1219 1348 1320 1305 1399 1386 1153 954 984 1028 972 1036 875 1099 1017 861 844 965 805 517 584 735
292 430 521 672 836 702 583 576 554 598 926 966 975 916 723 639 1273 1066 1081 1409 1454 1140 1387 1534 1302 1275 1261 1047 853 1005 1148 1237 1188 1110 1091 1067 1068 1012 1062 1127 1277 1270 774
307 374 397 601 808 667 528 500 533 524 870 795 887 860 826 1302 1090 984 1435 1628 1387 1394 1355 1526 1419 1285 1068 1100 1408 1389 949 794 963 1144 1148 1091 1169 1172 1177 1379 1466 1467 1505
277 410 514 573 697 573 616 491 508 643 662 800 1059 928 1203 1170 999 1034 1335 1353 1419 1484 1460 1466 1187 915 1055 1187 1260 1117 927 639 928 746 742 939 1153 1175 1140 1201 1356 1488 1584
245 350 447 485 536 518 549 488 405 528 706 610 674 938 1207 1163 724 898 985 1100 1344 1470 1306 1264 1371 1163 1331 1236 1389 1395 1100 803 1200 524 656 774 882 1125 1211 1182 1019 1013 1349
229 317 447 478 514 522 492 521 274 381 170 202 370 685 935 1072 917 868 1029 1065 1181 1114 1040 1568 1556 1490 1745 1596 1589 1342 1411 1537 1569 678 615 580 565 691 622 663 694 856 1028
283 262 346 417 551 491 445 566 460 374 232 279 738 487 752 797 964 1066 1042 1210 1006 967 1103 1408 1579 1653 1619 1761 1785 1748 1483 1578 1435 1285 837 1013 874 981 1330 1230 879 967 1502
291 240 240 304 340 533 414 489 431 319 318 402 551 598 517 835 845 1103 1316 1114 1236 1167 881 1277 1677 1601 1447 1353 1628 1681 1538 1483 1608 1361 1089 1172 1050 1224 1619 1949 1945 1832 1882

GFSSE_con_mlcape_108.txt.gz
CAPE
547 691 998 1741 1796 1347 1573 1791 1792 1578 2079 2129 2001 2064 1987 2019 2035 1652 1803 1652 1432 1346 1091 947 978 868 671 1255 1350 1347 1273 1230 1241 1158 1185 1230 1222 1272 1076 795 801 928 1059
641 822 1225 1770 1895 2059 2190 1736 1660 1938 2173 2179 2209 2115 2042 2039 1967 1795 1779 1359 1173 1182 1445 1424 1393 1384 1422 1374 1391 1238 1306 1355 1301 1283 1326 1261 1040 1202 1012 875 1099 981 1252
684 872 1131 1487 1634 1695 2021 2044 1852 1974 1977 2091 2141 2102 2098 2089 2010 1958 1731 1411 1696 1512 1635 1640 1540 1509 1516 1339 1645 1401 1096 1221 972 763 838 569 620 1116 1303 1352 1364 1323 1343
742 821 1073 1378 1218 1228 1357 1784 1828 1703 2038 2133 2000 2070 2057 1799 1867 1836 1899 1830 1734 1678 1637 1419 1007 840 821 850 1317 1372 1381 820 150 586 882 898 1039 1139 1423 1441 1425 1470 1401
817 1103 1333 1342 1052 1016 1090 1096 1597 1763 1851 1782 2045 2163 1465 1542 1802 1898 1918 1864 1976 1856 1727 1484 1544 1598 1274 1296 1125 1453 1485 1259 440 583 864 1010 1172 1124 1254 1172 1422 1422 1423
973 1188 1346 1457 1607 1666 1375 1302 1361 1555 1170 2025 1891 1876 1589 1445 1623 2090 2019 1281 1578 1540 1593 1601 1668 1534 1850 1478 1243 1521 1439 1076 597 139 32 416 1057 1083 1205 1137 709 765 1447
465 310 1275 1765 1445 1733 1673 1772 1363 1244 1291 1836 1889 1586 1689 1652 1538 2026 1928 1606 1849 1809 1753 1700 1788 1953 1871 1484 1239 1367 1058 1114 591 476 55 81 552 1212 1347 1409 1461 911 1204
3 434 894 1185 1610 1341 1489 1457 1550 1750 1730 1630 1767 1570 1749 1933 1899 2080 1966 1889 1761 1715 1673 1784 1874 1911 1796 1292 1125 1252 1019 1024 443 294 87 51 658 856 991 1074 895 781 667
554 799 832 1081 1316 1562 1522 1411 1467 1681 1351 1375 1277 1517 1360 1688 1894 1945 1967 1759 1688 1666 1693 1703 1635 1491 1464 1105 1202 1171 769 836 408 707 149 19 720 673 644 621 705 831 985
449 883 940 976 1158 964 1130 1607 1604 1534 1487 1392 1478 1491 1395 1292 1507 1892 1567 1862 1742 1722 1553 1555 1436 1590 1572 1085 1217 1020 225 277 281 689 485 556 765 1364 1507 709 771 851 693
622 719 683 869 1112 1201 1189 1323 1436 1599 1477 1343 1205 1434 1254 1217 1303 1592 1945 2017 1979 1658 1601 1668 1537 1583 1505 1404 1620 1057 661 0 77 325 663 1310 842 473 477 377 345 306 191
464 513 787 838 975 912 681 1048 1009 1024 1053 1011 1081 1374 1218 1324 1433 1546 1571 1580 1727 1693 1569 1148 780 648 1045 731 975 946 23 74 0 74 207 1296 822 563 571 577 547 482 436
289 464 679 733 706 545 695 624 593 733 980 1330 1375 1328 1201 931 937 816 591 569 1056 1548 1048 1139 1202 1080 1126 678 440 104 209 49 1 0 1 795 1565 1134 839 780 500 444 596
202 389 312 475 593 721 527 271 364 603 692 890 1202 1183 1080 1048 1055 782 642 657 880 1067 1397 1580 1303 1680 1486 1382 895 912 706 273 94 1 1 303 909 1439 921 866 980 786 761
133 234 267 364 648 842 726 323 375 479 734 681 769 946 793 965 977 891 1056 990 989 1148 1330 1466 1445 1583 1337 1169 1100 1086 964 900 627 193 17 2 248 622 1303 1057 768 803 840
121 164 196 462 780 787 598 596 505 591 757 763 636 1036 1207 951 964 837 642 810 891 1176 1307 1585 1738 1020 809 824 1020 948 995 868 927 681 347 329 68 163 302 567 829 1093 1154
129 118 197 530 705 737 732 831 532 530 691 687 695 1101 1175 863 1329 979 988 819 1195 1725 1854 1804 1235 1228 702 559 948 927 908 1047 811 907 703 538 683 343 329 554 770 784 740
143 64 223 240 385 657 784 1012 884 724 569 572 601 776 1153 1119 1152 1113 828 1077 1437 1555 1500 1118 844 739 820 891 1030 850 885 851 954 1006 862 867 874 745 884 641 536 610 766
218 160 222 299 309 526 965 835 944 1049 772 722 857 1038 1438 1374 1539 1046 1065 1383 1817 1484 1289 996 1005 1009 996 863 797 806 809 764 892 667 996 1137 985 1104 1141 933 759 773 903
352 422 543 518 580 639 824 976 773 766 933 997 841 1003 1438 1414 1841 1385 1366 1671 1651 1357 1201 1195 1600 1318 1157 1035 617 664 756 918 1029 1044 950 899 1155 1342 1133 1465 1523 1429 962
442 548 631 656 763 797 743 506 498 535 680 923 957 1275 1462 1775 1757 1905 1382 1832 1610 1353 1788 1981 1414 1405 753 1220 1115 538 553 910 1071 972 973 1044 1126 1065 1049 1109 1800 1896 1963
297 413 522 617 860 973 673 572 523 662 666 679 1018 962 1149 1589 1817 1488 1490 1310 1637 1223 1029 1841 1956 654 929 1708 1174 902 433 364 595 636 839 877 1097 1164 1299 1454 1701 1846 2055
305 492 625 590 579 489 659 880 837 995 1129 1159 905 699 918 1245 1467 1435 1139 1473 1229 1406 1180 1614 1713 1811 916 1616 2226 1623 588 623 507 408 748 704 1151 1235 1367 1394 1287 1325 1874
306 537 774 756 660 565 813 709 584 472 385 407 518 791 1111 1416 1179 1253 1635 1463 1528 1410 1753 1681 1641 1722 2264 1332 1753 1918 2285 2365 886 452 419 582 731 747 1125 1089 1002 1320 1872
320 424 705 943 884 591 788 737 472 317 314 474 522 1026 1226 1115 1117 1144 1581 1822 1826 1374 1721 1860 2043 2259 1648 1686 1713 1929 2134 1918 1931 858 592 622 464 1096 1481 1394 1375 1507 2024
311 387 524 899 895 853 937 651 550 589 546 532 625 747 687 808 997 1297 1517 1704 1857 1634 1599 1465 2166 2106 2112 2051 1886 1888 1664 1623 1464 1138 854 1032 936 1310 1429 1661 1765 1859 1879

GFSSE_con_mlcape_111.txt.gz
CAPE
603 660 1468 1267 1226 1696 1816 1807 1809 2181 2085 2020 1954 1924 1964 1841 1864 1788 1811 1702 1383 1188 1108 1085 918 1303 1480 1499 1429 1442 1394 1312 1207 1299 1323 1300 779 768 765 660 775 822 1033
585 784 1606 1888 2071 1761 1416 1899 2071 2171 2206 2081 2000 1964 2013 1820 1936 1633 1519 1211 1460 1720 1616 1509 1571 1462 1524 1439 1397 1502 1410 1182 1316 915 1016 1315 1217 1053 1045 984 1095 1152 1223
640 843 1261 1817 1920 2030 1993 1619 1943 1985 2092 2174 2092 2095 2006 1980 1925 1276 1771 1619 1775 1642 1617 1593 1525 1502 1572 1471 1269 1206 983 764 749 746 1001 218 1167 1417 1377 1382 1379 1338 1243
544 747 1138 1241 1246 1539 1943 1761 1779 2005 2153 2033 2095 1983 1908 1977 1992 1711 1674 1785 1796 1733 1129 1077 919 745 1258 1315 1409 1064 441 275 341 965 985 334 737 1288 1276 1348 1302 1122 1301
869 1193 1099 1104 913 908 1248 1659 1760 1808 1767 2058 1935 1513 1390 1882 1618 1868 1816 1813 1842 1548 1650 1625 1438 1455 1062 1372 1430 1275 1104 790 438 1037 1044 989 993 1059 1177 1086 1289 1429 1202
941 893 941 1152 1793 1672 1194 1509 1693 1498 1973 1906 1821 1495 1396 1977 2018 1617 1462 1263 1251 1536 1771 1644 1659 1731 1251 1322 1246 1169 1129 1083 419 149 812 701 1248 1561 1415 762 1093 1579 1497
572 664 1041 1673 1595 1534 1754 1190 1419 1274 2005 1867 1801 1810 1768 2087 2016 1513 960 1579 1900 1822 1792 1999 1909 1736 1260 1212 1113 974 974 806 212 34 124 355 1183 1315 1364 1456 866 1301 1494
173 581 787 1323 1476 1559 1581 1616 1486 1579 1876 1811 1678 1800 1492 1507 2075 1805 1561 1806 1775 1878 1841 1861 1671 1405 1149 1239 1021 840 991 1262 162 32 47 243 789 833 832 740 700 707 769
513 450 706 1049 1403 1579 1526 1620 1768 1667 1723 1605 1631 1702 1915 2020 2038 1973 1792 1840 1758 1796 1728 1704 1574 1403 1172 1208 613 337 370 507 512 73 7 128 863 611 650 826 1115 1367 1623
596 793 872 1062 1243 1061 1281 1627 1516 1402 1509 1368 1364 1536 1832 1999 1970 1636 1639 1914 1816 1684 1603 1544 1660 1549 1133 1115 464 250 381 604 672 312 160 225 941 1590 671 587 454 352 396
331 530 662 993 925 984 968 1167 1280 1305 1501 1294 1202 1046 1299 1104 1302 1830 1798 1988 1770 1709 1820 1612 1490 1499 1503 857 701 678 811 132 223 496 890 873 538 437 353 372 336 297 309
310 561 690 504 765 814 756 1179 864 826 979 398 698 876 1237 1210 1499 1175 1661 1936 1760 1552 1224 856 781 1345 1737 1626 1148 979 98 2 68 54 758 824 615 603 527 484 471 456 476
385 225 652 663 702 523 468 706 971 977 706 770 1156 1076 923 958 993 284 658 1209 1514 1745 1312 1102 1239 1098 571 213 3 37 100 20 0 0 72 1083 1542 876 822 772 577 602 710
143 309 224 313 625 324 243 427 563 627 718 1024 1165 970 766 665 739 549 575 1215 1328 1289 1235 652 530 901 562 665 449 380 235 87 2 1 0 348 636 1085 797 744 721 760 842
117 119 253 336 822 522 222 263 553 556 748 842 811 711 909 991 740 1050 1093 1056 1205 1220 1038 1034 944 943 767 744 566 622 388 452 176 0 0 11 120 392 849 897 772 909 1039
121 151 156 590 824 656 298 409 414 542 559 708 623 918 1236 731 1149 950 1100 929 1023 1155 1334 1260 1569 772 619 352 743 717 549 434 638 305 89 74 0 28 149 361 571 760 860
145 96 385 656 270 338 342 400 587 372 659 559 981 1311 1304 1079 1426 929 838 882 1077 1218 1617 981 872 757 290 240 670 765 626 646 578 827 497 364 313 245 375 461 524 677 800
136 95 250 125 193 194 438 849 681 544 620 564 771 1045 1271 1379 1352 1514 938 1007 1180 1377 1026 691 769 371 375 412 648 752 575 509 662 901 728 812 901 789 680 654 637 675 803
137 110 294 160 254 449 631 837 691 784 568 740 674 899 1459 1463 1648 1255 873 1419 1640 835 729 552 561 958 355 394 575 674 627 412 820 723 835 992 844 1204 1101 698 691 717 769
134 218 198 225 473 557 711 440 461 788 594 566 1010 1415 1462 1416 1551 1693 1349 1314 2050 1110 549 1522 1932 657 842 647 694 629 717 761 783 806 756 852 940 1254 1102 1394 1774 1819 1120
207 277 320 461 674 773 637 519 396 523 604 784 1271 1263 1487 1561 1611 1891 1552 1555 2022 1154 1453 1077 1060 969 883 524 1078 471 645 880 1009 843 901 935 785 995 812 950 1970 2005 1966
206 335 513 636 771 849 573 606 587 462 567 782 1017 1174 1473 1520 1773 1588 1843 1589 1676 1109 1345 1808 1763 744 601 1065 1695 571 451 515 612 685 801 778 1005 950 1149 1426 1706 2000 2101
132 295 385 707 772 1046 1020 746 973 1242 1141 981 1074 944 1236 1445 1585 1745 1584 1907 1732 2086 1082 1749 1131 1505 1251 960 1861 2103 955 751 538 552 720 814 1025 1169 1256 1366 1304 1346 1774
172 222 567 549 902 631 1334 872 725 298 476 683 790 731 1340 1281 1203 1331 1551 1579 1751 1038 1590 1343 1246 1961 2072 1019 974 1397 2148 2154 2030 429 428 558 741 875 983 1030 920 1467 1847
232 220 363 501 714 765 895 988 915 741 578 650 678 1181 1140 1350 1406 1248 1502 1567 1673 1697 1793 2143 1826 2441 1714 1950 1480 1297 1466 923 689 1167 774 667 401 855 1247 1281 1129 1367 1982
139 143 312 476 746 970 980 1010 868 428 784 653 848 1043 876 1095 1011 1325 1347 1682 1845 1847 1703 1622 2055 2020 2511 2207 2311 1868 1412 1417 1253 1311 879 526 1036 1136 1072 1267 1364 1417 1525

GFSSE_con_mlcape_114.txt.gz
CAPE
681 826 1196 1397 1549 1722 1736 1794 1778 1865 1888 1822 1842 1760 1777 1769 1776 1645 1430 1102 1155 1183 1193 1347 1426 1425 1340 1493 1498 1425 1364 1256 1081 1151 1168 933 662 859 789 504 735 765 773
629 816 1710 1601 1158 1511 1969 1995 1758 1873 1908 1921 1793 1714 1817 1622 1594 1408 1538 1828 1587 1476 1746 1628 1542 1636 1466 1543 1450 1236 957 551 461 795 1018 1107 1020 1094 1128 1105 1074 1179 1169
437 1006 1598 1754 1861 1893 1542 1906 1909 2023 2069 1805 1739 1775 1883 1319 1720 1716 1817 1727 1713 1665 1616 1555 1583 1522 1416 941 959 515 514 653 568 663 883 988 1271 1355 1293 1236 1259 1303 1329
502 984 1032 1457 1794 1864 1610 1821 1988 1978 1929 1959 1896 1706 1988 1528 1728 1807 1743 1720 1356 1271 962 754 969 1134 1437 1072 822 918 420 574 603 752 929 757 787 1102 1046 1175 1236 1385 1407
909 835 737 930 990 1540 1562 1717 1692 1747 2063 1708 1663 1717 1809 1884 1794 1721 1891 1885 1659 1727 1703 1448 1361 1114 1448 951 961 984 525 743 677 610 598 646 1063 1204 1369 1583 1268 1362 1454
880 387 695 1406 1523 982 1612 1685 1598 1883 1887 1707 1668 1880 1950 1956 1786 1502 1370 1327 1595 1749 1631 1726 1456 1096 1294 819 859 909 1070 991 818 572 977 1210 1222 1144 793 1492 1525 1454 1326
641 247 1408 1522 1565 1522 1147 1370 1399 1922 1854 1867 1528 1897 2101 1724 994 1519 1616 1915 1722 1821 1781 1684 1281 1138 1026 638 771 886 1051 517 162 233 787 1210 1299 1574 1071 952 1515 1596 1665
423 669 1047 1559 1688 1476 1447 1471 1605 1794 1712 1612 1840 1669 2033 1872 1396 1690 1846 1923 1791 1697 1612 1476 1102 1108 891 405 469 499 653 663 41 146 264 560 752 708 703 683 772 746 786
343 555 835 1142 1505 1571 1660 1767 1691 1802 1715 1684 1821 1757 2066 1834 1692 1947 1916 1797 1723 1712 1708 1557 1172 889 373 56 214 299 727 1015 160 134 221 853 644 713 877 1171 1259 1445 1228
636 168 837 997 1036 1061 1397 1445 1581 1480 1626 1542 1677 1782 2104 2036 1813 1792 1912 1861 1680 1550 1603 1567 1539 1047 121 105 177 233 394 684 190 9 133 841 1428 552 449 358 274 197 231
756 477 872 1038 981 1179 1289 1346 1486 1401 1495 1164 1274 1236 1526 1367 1390 1840 1551 1747 1672 1579 1384 1417 1330 860 891 757 268 209 579 875 599 535 242 394 402 358 352 317 341 377 464
517 348 739 763 928 869 715 1228 1035 1118 953 834 344 362 906 1321 1641 1472 1827 1724 1490 1252 1248 1320 1584 1399 1285 1068 957 846 716 83 196 720 477 369 480 448 427 409 376 409 500
416 601 661 285 632 594 681 1267 549 824 574 32 0 48 467 782 759 1086 1086 1226 1294 1535 956 1045 1512 1571 1910 1890 685 124 8 25 0 8 293 1080 758 706 697 675 594 603 672
182 358 377 429 390 511 702 955 997 1048 102 0 0 0 252 983 770 484 1105 1445 1888 189 77 173 645 739 601 328 417 292 130 22 0 0 43 302 384 699 534 512 496 602 714
125 165 483 352 468 661 706 627 470 953 1064 661 37 0 487 788 1027 869 957 871 565 661 324 870 635 519 685 681 682 290 366 321 25 0 0 2 167 246 413 445 480 718 941
91 402 522 407 496 734 477 827 356 607 910 742 746 321 577 1008 1001 870 1049 1024 634 543 1108 609 1122 844 857 445 740 724 462 547 728 0 0 0 0 0 8 194 388 534 639
113 539 293 200 690 309 518 419 384 606 865 1048 957 1399 1085 1247 1516 1229 944 959 821 862 1146 804 940 694 633 686 550 805 581 543 668 666 94 2 0 4 47 241 417 573 787
84 252 359 244 128 146 155 683 841 742 519 864 1188 1070 1512 1345 1448 1538 865 1021 834 852 1509 1387 994 953 529 864 796 861 721 565 785 915 821 696 576 410 451 574 660 696 744
81 286 376 99 162 468 1053 343 436 517 557 759 1040 1165 1442 1334 1395 1689 1727 777 594 1204 1300 1472 806 833 446 595 628 695 739 449 790 813 929 1077 1025 1291 917 473 779 650 781
85 220 230 127 264 265 789 743 906 554 748 454 1006 1467 1546 1388 1541 1709 1494 915 1610 1177 182 1005 558 676 1369 543 708 540 736 873 754 670 908 1050 857 991 1315 1432 1254 1360 964
62 351 282 265 666 532 699 91 339 670 595 948 1481 1426 1504 1465 1294 1936 1780 1113 0 516 1500 1394 632 1466 1091 258 1856 601 855 937 1018 1000 858 931 534 1135 736 979 1697 2196 1579
156 161 357 674 717 453 437 534 612 556 392 912 1294 1250 1263 1429 1405 1766 1510 1380 793 870 1382 1280 1364 1711 1373 1002 1270 1950 662 904 906 857 896 691 686 704 785 1024 1782 1813 1811
226 277 568 572 519 782 930 542 108 577 583 867 913 1131 1187 1442 1502 1689 1419 1290 830 844 1218 1535 2041 1817 1933 705 1616 1950 1542 943 660 541 453 955 432 1039 1073 1049 1216 1420 1698
443 268 446 703 603 688 915 647 327 489 666 640 968 965 1152 1200 1181 1284 1458 1341 49 0 853 1819 1637 1758 2426 2180 1690 1312 34 384 1308 812 710 605 658 835 756 577 1142 1423 1760
29 542 472 549 698 743 1190 593 545 466 394 700 1044 983 1410 1178 1260 1174 1410 1427 848 626 1032 2166 1718 1972 2316 1255 1631 2557 1040 1672 430 1151 609 345 431 778 1060 1036 633 1757 2064
63 314 429 528 411 541 709 662 821 323 330 706 663 662 995 1151 1113 952 1320 1425 979 1089 1453 1567 1851 2076 1915 572 919 2387 792 739 323 1001 433 38 620 910 1216 1372 1305 923 945

GFSSE_con_mlcape_117.txt.gz
CAPE
536 1084 1116 1266 1532 1707 1600 1721 1735 1943 1713 1711 1581 1565 1626 1541 1286 1106 1135 1185 1216 1457 1528 1506 1420 1535 1559 1436 1408 1092 692 802 1101 1082 936 987 1032 977 691 799 693 705 723
696 1370 1428 1727 1714 1839 1729 1834 1960 1888 1864 1641 1802 1779 1679 1349 1396 1637 1399 1554 1632 1505 1645 1625 1577 1585 1347 1165 985 826 657 757 800 1124 1194 1179 1089 1085 1230 1168 1128 1180 1277
1005 1679 1628 1440 1705 1890 1868 1923 1866 1958 1945 1906 1899 1374 1455 1790 1644 1487 1507 1615 1494 1650 1722 1538 1470 936 1084 883 897 908 865 752 764 1130 1172 1077 1215 1300 1212 1278 1319 1245 1207
1317 1485 1823 1889 1683 1689 1822 1785 1885 1975 1995 1895 2016 1643 1901 1753 1723 1538 1107 1339 1154 918 931 1209 1482 861 860 1038 794 943 264 498 1300 1060 679 748 978 1315 1265 1318 1302 1498 1428
875 815 1229 1639 1837 1601 1811 1854 2067 2001 1851 1874 2102 1812 1908 1788 1776 1893 1697 1595 1764 1433 1614 986 1504 1232 1251 1358 1251 755 896 1102 863 626 747 872 1091 1462 1567 1468 1510 1476 1411
264 567 812 940 1462 1688 1755 1699 1867 1863 1747 1799 1974 1944 2018 1665 1876 1559 1417 1664 1643 1687 1662 1090 1287 970 1019 960 1063 1186 699 965 798 971 1011 949 661 1337 1383 1306 1154 1152 1492
283 1372 1562 1481 1152 1612 1489 1634 1879 1860 1750 1925 2119 2017 1788 1464 1332 1651 1675 1679 1659 1683 1679 1066 981 583 613 649 698 1129 1104 963 715 796 954 1164 1223 894 1413 1641 1653 1604 1287
887 1140 1431 1637 1359 1400 1508 1750 1853 1871 1740 1686 2131 1997 1186 1594 1898 1887 1701 1711 1680 1251 1053 897 452 273 327 350 410 852 1064 391 230 355 513 598 737 654 602 597 673 706 623
732 919 1257 1415 1527 1653 1523 1882 1769 1724 1621 1673 1896 1990 1614 1485 1984 1862 1768 1493 1474 1510 1292 639 115 0 78 178 302 690 794 67 0 58 263 465 745 882 1141 1187 1290 971 1109
598 857 909 1117 1227 1543 1574 1742 1733 1707 1631 1642 1810 2054 1999 1969 1875 1783 1842 1728 1645 1649 1536 1191 428 143 125 119 182 389 948 189 104 609 1044 724 506 451 305 247 137 115 150
507 674 762 901 1119 922 1165 1408 1502 1368 1314 1279 1225 1530 1745 1561 1663 1693 1501 1707 1669 1611 1575 1339 656 284 263 307 229 229 600 129 6 0 112 296 273 270 264 222 207 214 275
69 538 514 686 787 746 944 1155 1050 932 591 180 422 383 437 1208 1584 1170 1444 1631 1627 1459 1549 1540 1331 936 950 630 337 724 934 516 384 0 21 269 393 357 246 161 165 234 370
175 400 421 640 710 506 664 537 680 553 201 2 13 0 54 675 1268 1054 1076 1180 1221 1420 1207 1034 1272 1081 1286 1511 1407 613 257 65 16 0 28 232 378 420 272 266 296 335 362
223 298 338 331 356 598 706 347 343 90 0 0 8 19 240 650 758 401 852 1124 1282 638 1 0 685 217 306 659 1157 629 0 0 0 0 148 390 189 287 248 174 144 222 388
152 241 255 256 412 300 773 543 378 0 0 1 25 0 284 582 811 509 625 273 176 640 660 482 533 837 701 548 122 98 31 0 0 0 0 0 2 173 163 108 137 328 553
169 213 133 257 490 752 557 569 420 161 54 0 0 73 251 620 1001 1165 364 679 269 389 554 675 616 650 363 407 294 85 204 23 0 0 0 0 0 0 13 110 215 323 468
217 119 75 247 398 440 271 278 360 572 545 70 199 423 947 1198 673 613 828 796 703 455 949 943 855 1069 529 332 464 283 215 295 17 0 0 0 0 0 3 67 236 389 598
96 9 5 259 46 270 262 203 327 675 862 931 1129 1360 1070 965 1142 1410 429 619 1072 1360 1345 1300 1195 949 610 258 423 396 330 297 516 157 2 1 0 0 107 327 488 619 766
45 11 99 0 0 237 325 487 645 450 683 1111 883 852 811 847 1187 1564 1571 1123 662 957 584 606 549 593 677 500 522 605 343 311 541 783 423 526 277 341 75 375 631 584 707
156 191 180 0 366 94 293 646 487 437 770 930 1207 1060 1118 1026 1447 1271 809 80 185 477 658 1315 653 1162 1095 389 704 536 384 339 600 644 597 934 721 828 630 533 654 945 1048
109 129 15 7 190 404 537 405 427 234 602 812 1125 1219 1233 1142 1354 1476 629 0 17 374 618 816 825 1316 1402 1096 1448 876 693 619 587 470 642 757 524 759 1033 732 1157 1360 1497
107 94 81 147 99 166 396 500 566 457 688 981 1309 1186 1129 1358 1057 1298 722 22 9 573 1242 1431 1330 1639 1353 435 1024 1775 457 535 748 769 696 686 601 581 797 656 824 1482 1555
196 145 204 200 355 386 372 278 406 581 541 767 1042 978 948 1121 1529 1339 943 223 182 589 601 1369 1946 1637 1446 1210 573 1236 1115 910 885 625 459 570 452 643 515 626 1012 1386 1280
0 76 226 137 322 568 440 123 138 274 282 466 601 826 853 1212 1174 1220 1272 763 514 0 584 1069 1798 1846 1536 1300 165 732 138 245 765 825 564 376 153 559 263 523 827 1200 1451
15 157 185 217 96 255 207 393 82 303 415 737 815 907 902 1057 873 865 1258 1015 226 297 873 1307 1725 1445 479 410 769 1298 943 290 511 325 530 354 0 189 240 5 475 894 1431
112 208 203 185 335 528 425 380 337 290 238 605 774 592 638 667 985 921 1007 862 684 835 933 1540 1689 1559 776 0 686 1148 207 551 150 82 1 0 0 2 0 0 2 304 0

GFSSE_con_mlcape_120.txt.gz
CAPE
577 1068 1013 1121 1624 1835 1929 1884 1569 1465 1827 1762 1779 1578 1426 1003 840 1291 1503 1508 1590 1532 1512 1637 1529 1284 1407 1203 933 997 1364 1231 1157 1156 1151 1092 933 686 571 511 514 615 829
780 1111 1505 1835 1902 1903 1763 2005 1948 1870 1805 1791 1672 1444 1021 1088 1154 1260 1517 1542 1682 1608 1663 1683 1551 1367 1206 1019 866 886 1152 1427 1461 1509 1423 1408 1285 1380 1070 1129 1147 1181 1146
955 1322 1739 1832 1988 2049 2124 2098 1759 1892 1903 1760 1593 1316 1766 1603 1558 1545 1588 1612 1676 1569 1501 1274 1289 1228 1271 1248 1199 1095 1009 1443 1405 1339 1287 1162 1235 1304 1210 1328 1278 1035 1144
933 1161 1438 1769 1928 1957 2093 2074 2081 1945 1960 1243 1779 1654 1578 1569 1543 1665 1632 1590 1400 1687 1378 1185 1231 1366 1205 1162 641 1107 1457 1601 1274 1011 835 978 1008 1018 1077 1314 1433 1409 1400
1247 1681 1785 1685 1969 1930 2019 1996 2001 2005 1929 1597 1732 1805 1753 1583 1403 1363 1327 959 1275 968 1521 1062 1255 1528 1284 1103 808 951 1469 1423 1077 758 787 1018 1321 1441 1438 1437 1249 1381 1442
1134 1436 1982 1847 1630 2061 1896 2034 1987 1869 2009 1888 1892 1831 1876 1785 1554 1501 1660 1479 1884 1224 1355 1476 1372 1444 1475 1460 1352 1043 1708 1520 970 725 742 1007 1253 1284 1086 995 1072 1298 1337
497 851 1350 1624 2015 1669 1934 1938 1912 1777 1947 1916 2177 1755 1708 1487 1540 1707 1760 1627 1692 1549 1117 1197 1090 1203 1226 1379 1830 1125 1599 955 580 813 893 380 1077 1596 1663 1555 1516 1153 1069
920 1288 1220 1495 1745 1628 1961 1863 1921 1806 2104 2119 1958 1721 1690 1761 2135 1654 1686 1723 1410 1239 1116 760 659 721 745 858 1534 1404 1307 894 631 668 713 666 610 787 832 813 762 732 688
1165 1283 1427 1263 1517 1736 2000 1813 1857 1727 1949 2052 1856 1427 2075 2078 1898 1838 1557 1474 1303 1119 792 645 388 414 401 535 1177 1306 622 300 19 18 144 456 652 757 1580 1326 1179 1008 478
940 1147 1145 1468 1481 1600 1813 1807 1766 1751 1356 2074 1923 1530 2030 1905 1815 1757 1829 1797 1693 1547 1228 889 348 289 357 390 651 725 327 103 40 104 122 472 771 723 542 493 276 270 276
759 802 1078 1210 1327 1311 1480 1581 1532 1713 1745 1864 1858 1899 1563 1538 1313 1645 1761 1757 1695 1617 1200 860 546 423 578 745 902 931 527 79 446 645 451 322 336 320 245 164 249 262 352
617 768 854 902 663 913 1347 1118 1175 876 519 845 767 713 796 940 974 1208 1584 1664 1550 1483 1387 1041 748 712 732 429 446 1004 869 0 0 14 11 59 347 423 343 246 158 225 316
537 619 747 718 595 811 948 835 719 185 118 177 89 145 662 622 1056 1088 1109 1274 1196 1438 970 742 874 924 952 1126 1224 1166 544 234 0 0 0 93 344 364 235 145 199 306 370
270 320 515 612 409 525 432 406 282 34 15 27 0 43 267 448 681 729 711 884 1016 962 69 65 418 688 351 394 754 1064 427 252 0 0 0 60 301 467 435 369 344 347 404
324 305 512 503 379 365 137 168 52 0 0 0 0 57 318 368 463 399 687 432 110 467 498 394 333 390 609 653 346 551 68 0 0 0 11 176 94 216 249 274 305 352 504
203 232 351 274 416 510 226 91 0 0 0 17 0 0 112 323 642 456 111 214 126 292 193 614 559 719 535 178 61 9 0 0 0 0 0 4 12 86 235 324 372 444 607
189 238 306 554 544 492 400 325 0 0 0 0 0 47 128 459 716 335 362 609 636 604 937 1295 1280 893 663 278 139 58 16 23 0 0 0 0 12 63 107 231 339 446 583
156 95 268 401 405 318 306 300 207 374 45 38 227 431 604 748 1138 889 443 539 966 1100 944 906 979 1096 644 381 332 148 143 88 40 20 0 0 1 21 52 301 447 565 711
63 98 181 151 222 234 149 246 404 574 494 316 385 753 815 803 1091 998 1312 986 789 623 711 1169 1152 949 593 298 284 326 265 121 285 299 85 49 47 76 62 168 467 675 804
40 25 72 25 154 227 425 556 345 564 749 858 741 630 602 886 826 906 433 88 283 676 749 637 969 1480 340 399 629 507 314 173 346 420 329 289 380 334 419 209 217 524 894
20 42 25 79 100 144 327 422 239 339 521 852 876 844 1064 916 718 713 171 0 216 526 963 1041 1152 1415 604 831 760 636 401 208 331 389 313 373 521 453 662 607 552 558 927
74 27 0 144 107 164 289 448 275 402 409 905 981 1133 1026 1077 1039 904 323 0 334 670 818 1505 1611 1232 705 571 1036 1170 465 515 537 451 336 407 397 433 402 484 559 587 1055
113 29 71 22 85 366 280 416 394 419 492 618 628 752 826 1010 1196 979 514 0 320 175 519 1118 1633 1272 805 794 36 950 707 773 1096 267 229 252 445 448 284 444 683 757 1064
100 17 41 71 145 313 285 237 337 297 318 283 573 620 785 1003 1084 980 725 349 425 1 687 1180 1493 1118 982 567 1070 344 108 214 618 626 511 159 0 376 154 505 541 884 1600
132 99 72 132 270 287 228 175 190 222 171 343 569 654 649 821 968 1034 1022 679 48 79 877 1350 1545 349 284 645 700 694 133 195 138 104 304 381 3 31 190 142 143 248 854
154 119 102 183 218 209 261 308 179 180 271 478 596 602 645 728 892 950 886 796 594 708 1087 1302 1424 899 7 62 709 433 115 588 72 44 17 1 0 0 40 2 29 118 200

GFSSE_con_mlcape_123.txt.gz
CAPE
285 958 1082 1475 1604 1854 1880 1882 1931 1750 1699 1658 1503 1310 1234 678 1364 1368 1527 1461 1291 1545 1534 1447 1344 1275 1134 1266 1362 1228 1239 1175 1167 1155 1373 1124 867 989 1022 1180 1174 694 543
500 1058 1274 1714 1817 1802 1923 1841 1751 1824 1874 1750 1620 881 672 1192 1499 1580 1574 1645 1533 1645 1642 1537 1062 991 1120 1117 1275 1338 1411 1394 1341 1307 1266 1285 1386 1286 1226 1201 1165 943 819
705 1166 1466 1575 1993 1947 2013 1960 1878 1700 1829 1683 1046 1308 1212 1261 1708 1664 1701 1809 1617 1476 1480 1232 1333 1334 1409 1287 1227 1481 1298 1386 1413 1465 1192 1217 1187 1224 1578 1428 1311 1221 1140
892 1421 1573 1509 2003 2086 1950 1867 1921 1841 1729 1388 1671 1603 1756 1747 1743 1748 1766 1727 1627 1294 1459 1442 1456 1293 1017 1287 1467 1546 1566 1608 1538 1255 966 890 863 843 1281 1351 1499 1356 1139
1144 1462 1823 1840 1926 2116 1973 1589 1836 1420 1582 1727 1746 1767 1762 1657 1677 1346 1108 1182 1410 1464 1317 1545 1388 1360 1203 1228 1658 1818 1658 1433 1197 922 989 1086 1267 1409 1496 1399 1257 1423 1504
849 1417 1752 2053 1932 2007 1991 1538 1827 1967 1635 1828 1832 1809 1633 1716 1618 1925 1497 1978 1115 1610 1505 1695 1430 1251 1448 1405 1524 1847 1813 1460 951 930 1072 1166 1154 1625 1525 1350 1223 1153 1105
1295 1711 1742 1646 1891 1979 1899 1912 1971 1810 1838 1917 1743 1790 1742 1614 1605 1758 1725 1779 1383 1321 1577 1504 1582 1539 1574 1861 1427 1899 1742 1140 540 550 859 1245 1622 1625 1519 1744 1160 922 1001
1057 1412 1683 1752 1857 1866 2084 1868 1899 1901 1911 1793 1794 1677 1664 1720 1947 1855 1734 1818 1575 1157 1106 1195 1304 1200 1280 1262 1586 1951 1504 1213 894 790 430 654 1114 1401 1420 1270 1066 867 999
787 990 1295 1732 1595 1905 1928 1824 1891 2035 1787 1769 1892 1797 1960 1811 1870 1940 1762 1256 1120 921 911 931 902 848 893 1215 1583 1693 1077 756 463 294 285 381 508 1353 978 873 1072 400 371
1270 1132 865 1202 1616 1669 1791 1971 1798 1984 1968 1800 1727 1722 2110 2110 1881 1713 1813 1789 1563 1184 752 610 649 800 808 1048 1540 1168 591 5 0 0 141 663 1060 1131 1066 761 326 759 420
1187 948 1014 1351 1407 1683 1541 1680 1739 1555 1907 1799 1654 1904 1763 1605 1793 1685 1891 1841 1721 1527 1176 872 784 785 927 929 1205 1468 680 162 362 107 61 370 410 436 254 150 180 263 347
678 841 1135 990 1241 1341 1486 1216 776 936 1002 1426 1537 1220 1167 1172 1215 1543 1808 1817 1611 1435 1137 759 562 677 705 482 597 1178 653 111 126 389 205 110 300 425 352 262 212 224 338
533 794 838 857 1039 1051 1111 970 582 413 668 636 552 617 830 860 1025 919 1073 934 768 1040 717 560 400 702 842 853 1089 1119 790 9 0 0 0 77 399 479 346 229 217 344 481
495 708 796 476 646 797 782 615 253 128 149 101 82 317 564 556 517 637 727 814 851 882 94 41 117 225 332 450 451 820 678 284 94 0 0 143 294 383 400 395 437 497 544
350 594 611 411 425 437 380 312 96 6 40 16 0 128 368 286 231 286 502 481 37 407 381 462 424 495 484 407 284 275 483 249 19 0 0 226 224 323 365 394 411 483 617
263 420 463 357 336 335 178 194 5 0 0 0 0 82 170 246 328 417 372 134 220 236 172 610 687 480 685 225 54 35 104 17 0 0 7 62 223 112 268 410 520 609 746
211 328 396 337 493 324 20 3 0 0 0 0 0 0 175 412 564 327 202 436 611 673 856 1073 1003 923 852 142 42 0 0 0 0 0 0 7 13 57 169 284 444 548 655
183 233 251 495 403 409 234 5 0 0 0 0 9 138 254 566 521 517 470 574 951 743 554 836 792 700 498 363 274 14 8 6 14 9 0 0 0 4 18 90 271 517 800
189 195 244 471 344 414 356 223 78 43 0 76 281 463 722 808 828 878 764 749 643 578 881 865 1264 490 345 230 235 189 92 72 31 46 49 21 16 13 2 0 58 259 611
130 161 150 140 241 247 257 258 208 350 356 252 347 688 714 963 898 686 451 176 384 613 679 1026 1112 641 322 287 283 455 309 109 58 209 282 118 44 93 107 240 343 406 611
40 99 85 116 93 155 218 319 277 466 554 590 775 691 724 720 468 440 278 0 257 857 1169 1518 1276 530 485 721 787 464 315 243 81 167 245 280 306 389 375 369 416 546 645
52 98 20 35 105 304 306 301 278 389 428 826 976 957 775 824 682 808 497 0 382 539 1049 1560 1281 806 515 562 872 596 403 326 266 185 249 295 321 381 487 593 663 643 641
35 39 0 16 65 184 249 329 265 370 463 645 810 718 949 913 804 691 235 0 190 183 809 1202 1353 1050 911 405 403 820 479 468 776 166 170 309 356 283 419 540 638 1025 1056
48 19 0 0 84 223 230 338 240 242 373 268 336 596 775 945 979 768 397 0 169 15 847 1333 879 816 594 492 649 119 137 182 485 448 163 57 5 217 84 336 284 1083 1364
40 7 0 46 147 206 160 217 208 254 231 273 331 587 661 662 885 650 727 443 2 185 938 1291 892 66 479 538 702 353 148 124 47 50 146 287 1 3 40 3 0 194 630
38 27 0 0 59 99 164 142 194 207 230 228 349 461 448 538 735 840 823 597 87 481 902 1141 931 96 63 558 631 203 281 476 45 79 28 8 0 0 71 3 16 102 73